GFSGL_sfc_temp_000.txt.gz
Temp
37 39 38 37 38 38 37 38 38 36 35 33 35 34 33 32 32 31 30 29 29 27 28 28 27 26 25 24 24 24 23 23 19 22 26 26 26 25 26 27 27 28 29
38 38 36 37 36 36 37 37 37 35 34 35 34 33 33 33 32 32 29 29 28 27 27 26 25 25 22 22 22 22 21 22 20 17 21 22 22 23 23 23 26 30 29
42 37 37 37 35 37 39 38 37 36 34 35 34 33 33 33 32 32 31 30 29 29 27 26 24 23 20 20 20 20 20 22 20 18 17 21 21 23 23 24 25 27 30
39 37 37 36 37 40 40 39 36 36 35 34 34 34 34 33 33 33 32 30 29 28 27 26 24 23 21 19 19 18 18 17 18 17 17 18 20 23 24 23 23 26 26
37 38 39 38 36 37 37 37 35 34 35 35 33 33 33 33 33 32 32 29 27 26 25 26 24 24 26 22 20 17 17 15 15 14 16 18 20 22 22 24 22 23 25
35 35 37 36 36 33 36 36 33 33 33 32 32 32 31 33 36 36 33 29 27 26 24 24 24 24 27 28 27 25 20 12 6 9 18 19 21 22 23 22 22 21 19
34 35 34 34 33 34 31 30 31 31 32 31 31 31 30 32 37 37 36 29 27 26 25 24 23 23 23 25 28 27 26 26 21 19 19 21 21 23 23 22 23 23 21
33 32 32 31 31 30 27 29 28 29 30 30 30 30 31 30 37 37 35 28 27 26 25 25 24 22 22 23 24 24 24 24 25 25 23 23 23 25 24 25 23 18 20
33 32 31 30 29 28 25 26 27 28 29 30 30 29 29 29 36 37 34 26 26 24 25 25 24 23 25 27 21 18 20 21 27 29 29 30 31 30 29 18 9 8 10
31 31 29 27 25 25 23 22 24 27 28 28 27 28 27 27 35 36 32 24 22 21 23 24 25 24 28 29 19 17 14 18 21 18 21 23 23 22 24 21 12 2 9
26 26 30 28 25 24 25 20 22 23 22 21 21 24 25 25 29 35 34 24 23 21 20 20 23 29 29 30 26 19 18 21 20 14 14 14 16 17 18 19 20 17 12
24 24 25 28 26 24 22 21 21 22 20 18 18 17 19 22 28 35 34 28 27 22 21 22 23 29 29 30 29 26 28 18 9 5 3 7 12 13 16 18 19 20 20
19 20 21 24 28 23 22 21 20 20 19 16 17 16 17 20 23 32 34 30 29 23 23 24 26 29 29 30 31 30 21 12 8 1 4 9 13 16 17 17 17 17 17
14 14 16 18 21 25 22 23 20 20 19 19 17 18 18 18 21 26 31 29 28 22 24 23 25 27 29 22 24 24 16 13 12 9 9 12 14 13 11 13 11 11 10
10 11 12 15 17 22 22 22 21 23 23 20 20 20 18 16 19 26 29 26 24 21 21 21 21 18 16 14 13 13 13 12 10 9 9 9 9 10 10 12 10 8 6
5 7 9 12 14 18 21 21 26 26 26 28 27 23 21 24 24 26 31 30 28 27 18 18 15 14 13 12 10 10 11 10 11 10 9 8 7 7 7 8 8 6 5
2 4 6 8 11 14 19 18 17 21 28 28 28 28 27 24 26 27 29 31 28 26 16 15 13 12 12 11 10 10 9 9 10 8 8 7 6 5 4 4 5 6 5
2 3 4 6 9 12 16 18 17 17 16 21 28 28 29 27 27 27 29 30 25 22 15 13 12 11 10 9 9 8 7 6 6 6 5 3 -0 -1 -1 0 2 2 3
1 2 4 7 10 12 15 18 16 16 17 18 20 25 27 28 27 28 29 25 23 13 12 12 11 9 8 7 7 5 3 2 1 -1 -3 -5 -4 -5 -3 -1 2 4 4
2 3 5 6 7 9 12 16 14 13 15 17 18 20 23 23 21 23 25 25 16 14 12 9 7 7 5 4 2 0 -2 -4 -5 -6 -7 -8 -6 -5 -2 -1 1 2 2
2 3 4 5 7 10 13 13 13 13 14 16 17 21 24 21 21 22 24 16 13 10 9 6 4 3 1 -1 -2 -4 -5 -3 -6 -8 -8 -10 -8 -6 -3 0 1 2 5
4 3 3 4 8 11 13 13 12 13 13 15 17 19 26 20 19 12 13 12 10 8 6 4 2 0 -2 -3 -4 -6 -6 -8 -10 -10 -11 -10 -7 -5 -4 -1 1 4 6
7 7 8 10 11 12 11 12 12 12 13 14 16 18 18 12 11 8 3 3 2 1 1 1 -1 -4 -5 -4 -6 -4 -5 -7 -9 -13 -13 -11 -9 -7 -4 -1 2 5 5
5 6 7 7 8 8 8 8 9 10 10 13 8 7 6 6 2 1 1 0 -1 -2 -2 -2 -3 -4 -6 -9 -10 -11 -13 -12 -14 -13 -14 -11 -7 -6 -3 0 4 5 4
4 4 4 5 6 6 6 6 7 6 5 4 3 2 2 2 -0 -1 -1 -2 -3 -4 -5 -5 -4 -5 -7 -8 -10 -12 -12 -4 -7 -9 -12 -7 -8 -6 -0 2 4 4 2
2 2 3 3 4 5 4 3 2 3 2 1 2 2 1 -0 -1 -1 -2 -3 -3 -4 -5 -5 -6 -6 -8 -8 -8 -8 -6 -3 -5 -4 -6 -4 1 6 -0 2 4 2 -0

GFSGL_sfc_temp_003.txt.gz
Temp
43 43 40 40 41 41 38 39 40 40 38 37 37 38 37 37 37 36 37 35 35 34 35 34 33 33 33 33 33 34 33 33 33 29 33 33 32 32 32 32 32 33 35
41 42 41 41 39 39 40 39 39 39 38 38 37 37 37 37 36 36 35 34 34 33 33 33 32 30 30 31 31 30 31 31 30 28 27 29 29 30 30 29 30 32 33
39 39 40 40 41 39 39 40 39 39 38 38 37 36 36 36 36 36 37 35 35 35 34 32 31 29 27 28 29 28 28 28 28 27 26 26 27 29 29 30 30 31 32
38 37 37 37 38 39 40 40 40 38 38 37 37 37 37 36 36 36 36 35 34 35 34 33 31 30 28 27 26 26 25 25 25 25 24 24 25 27 27 27 28 31 30
36 36 36 36 37 37 37 37 38 37 38 38 37 37 37 36 36 35 36 35 34 34 33 32 32 31 31 29 26 24 23 23 23 22 23 23 24 24 25 28 26 28 30
35 34 35 34 34 34 35 35 35 36 36 36 35 35 35 36 38 38 37 34 33 33 30 31 31 29 31 31 31 29 26 21 19 21 23 22 24 26 27 26 26 25 25
33 34 33 33 32 32 33 33 33 34 34 34 34 34 34 35 39 39 38 34 32 33 32 30 28 28 29 30 32 30 30 29 26 25 24 25 25 27 27 25 26 25 25
30 31 32 31 30 31 30 30 31 32 32 32 33 34 34 35 38 39 37 34 32 33 32 30 29 27 28 28 29 27 26 27 27 27 27 28 29 29 28 27 24 22 23
28 29 28 28 26 28 28 29 29 28 29 31 32 32 31 33 37 38 37 33 30 30 31 31 30 28 29 31 27 24 23 24 30 30 29 30 30 30 30 24 19 17 17
26 27 26 25 25 28 29 28 28 27 28 29 28 29 30 30 35 37 37 34 28 28 28 29 29 28 31 31 25 24 22 23 25 26 27 29 31 27 26 24 20 15 16
23 22 21 22 22 24 25 27 27 26 26 26 25 26 26 28 29 36 38 33 28 26 25 25 26 31 30 31 27 24 24 24 25 23 23 22 22 22 22 23 23 20 16
18 17 17 17 18 21 21 24 26 24 24 23 22 23 24 25 28 32 36 37 30 26 24 25 25 31 30 31 28 25 28 24 23 20 18 17 18 18 20 21 22 22 23
12 11 12 13 14 16 16 19 24 24 21 23 22 21 22 23 25 29 31 36 30 25 25 25 27 31 30 31 30 27 26 20 18 15 15 16 18 19 20 19 19 18 18
7 7 8 8 10 11 14 18 21 23 22 22 22 21 22 21 21 24 28 30 29 28 27 26 27 29 29 29 28 28 22 20 18 17 16 17 18 16 15 16 14 14 13
4 4 4 5 6 8 11 14 18 24 25 23 23 23 22 20 21 25 26 29 27 26 23 23 23 24 24 24 23 18 17 16 16 15 14 13 13 14 13 14 13 12 9
0 1 2 3 4 6 7 10 19 23 28 30 30 28 24 28 29 27 28 30 30 28 21 20 21 23 18 19 17 15 15 14 14 13 12 12 11 11 11 11 11 9 7
-1 0 1 2 2 3 4 7 8 17 27 31 31 31 31 27 29 28 29 31 31 28 20 20 20 20 18 18 16 14 12 13 13 12 11 11 10 9 8 8 9 9 8
0 0 0 0 1 2 3 6 9 11 14 19 26 29 31 31 29 29 29 30 26 26 21 20 20 19 16 15 14 13 12 11 11 11 10 9 7 6 5 5 6 5 5
-0 0 1 1 1 2 4 5 8 10 13 18 17 23 27 30 31 29 29 26 25 23 19 19 17 16 15 15 13 12 11 9 9 8 6 4 3 3 2 3 4 4 4
1 1 2 2 2 2 4 5 6 9 13 16 17 18 22 25 26 24 25 25 26 23 17 16 16 15 14 12 10 9 7 6 5 4 3 2 2 2 3 2 2 3 4
1 2 2 2 1 2 3 4 7 10 13 14 15 18 24 23 24 23 23 24 20 16 16 13 12 10 9 8 6 5 4 4 3 2 1 1 -0 -1 1 3 3 2 2
3 3 3 3 4 2 3 6 9 12 13 12 14 16 24 23 22 22 19 15 15 14 12 9 7 6 6 6 5 4 3 2 1 1 1 -0 -1 -1 -2 0 0 2 3
2 3 4 5 7 7 6 8 11 11 11 13 14 16 17 14 9 8 7 7 7 7 7 5 3 2 3 3 5 5 3 1 1 0 -1 -2 -3 -3 -4 -2 -1 -0 2
2 2 3 4 6 6 7 8 9 9 7 5 5 6 5 5 4 3 3 3 3 4 5 4 3 2 -0 -0 -0 0 1 -0 -1 -2 -2 -3 -4 -5 -4 -4 -2 0 4
1 1 2 2 3 3 4 3 3 3 3 3 2 3 2 2 2 1 1 2 2 2 1 1 1 -1 -1 -3 -3 -4 -4 -0 -6 -6 -7 -7 -6 -5 -5 -3 0 3 4
-1 -1 -0 0 0 0 0 0 1 1 0 1 1 1 1 1 1 1 1 0 -1 -1 -2 -1 -2 -2 -2 -3 -4 -4 -4 -3 -3 -3 -8 -7 -5 -4 -3 0 2 3 4

GFSGL_sfc_temp_006.txt.gz
Temp
46 46 46 46 47 47 46 47 47 47 47 46 46 46 46 46 46 45 46 46 43 44 44 44 44 44 44 45 45 45 45 47 45 40 44 41 39 39 37 38 38 39 40
44 44 43 44 44 44 44 45 46 45 46 45 46 44 43 43 45 44 43 43 41 42 42 42 43 40 42 43 42 42 42 44 44 35 37 36 37 38 38 37 36 36 39
44 42 42 40 40 41 40 42 42 43 42 44 43 43 42 42 42 42 43 43 41 43 42 40 41 38 37 39 40 40 41 38 40 40 34 37 36 36 34 35 35 36 37
42 42 41 40 39 39 39 39 39 40 41 41 42 42 42 42 41 42 41 42 42 42 43 42 40 37 37 36 35 37 37 36 35 35 35 32 33 33 34 33 32 36 36
40 40 40 41 41 39 37 36 37 37 38 39 39 39 40 40 40 40 40 39 39 40 41 41 40 39 39 38 36 34 33 33 33 32 32 32 31 29 29 33 32 34 35
36 35 38 37 36 35 35 35 35 35 36 36 36 37 38 38 40 40 40 38 38 38 39 40 39 36 37 38 39 38 35 31 30 30 31 30 31 32 32 31 31 30 32
32 32 33 33 32 32 32 34 34 34 36 34 35 35 36 38 40 40 39 38 38 38 39 39 37 37 35 36 37 37 35 37 37 34 32 32 32 33 33 30 30 30 31
31 31 32 32 30 30 30 31 33 34 34 34 34 34 35 36 38 39 39 38 38 38 38 39 37 36 33 34 33 32 31 32 34 34 35 34 35 35 34 33 30 30 30
31 31 31 30 26 26 24 26 30 31 32 33 33 33 33 34 37 38 38 36 35 35 37 38 38 36 34 35 32 29 28 29 34 34 34 35 35 35 34 30 25 23 22
29 29 30 28 23 22 24 24 26 28 29 32 32 33 33 32 35 36 36 36 34 34 35 36 35 36 36 35 32 30 26 27 27 27 29 31 32 32 31 29 27 22 24
27 26 24 24 21 21 20 22 22 23 25 26 28 31 32 32 33 35 36 34 34 34 33 33 34 35 36 34 35 31 29 29 28 25 27 27 27 29 29 29 28 25 23
21 19 18 17 17 17 15 16 17 18 19 21 25 28 31 32 31 33 35 35 36 34 33 33 33 34 35 34 35 33 34 29 26 26 25 24 24 24 25 26 26 27 27
13 11 11 12 12 12 11 12 13 15 17 19 23 26 29 32 32 31 33 34 34 34 33 33 32 33 34 33 35 32 30 26 25 23 23 23 24 24 24 24 24 24 23
7 7 8 7 7 8 10 11 11 12 14 17 20 24 27 30 30 30 28 29 30 31 32 30 31 30 33 30 30 30 27 24 25 23 23 23 22 21 20 21 19 18 17
4 5 5 5 5 5 7 8 10 12 14 13 16 21 23 25 29 31 28 26 29 30 27 26 25 24 25 26 27 25 25 22 21 22 20 18 19 19 19 19 18 16 14
3 4 5 5 5 5 5 5 11 13 16 18 20 21 22 27 30 31 32 30 30 31 24 24 23 24 25 26 26 23 22 20 21 19 18 17 17 16 16 16 16 14 13
0 2 3 3 4 3 4 3 2 8 13 15 18 21 24 26 30 31 31 31 30 30 24 24 24 24 25 26 23 20 19 21 19 18 16 15 16 15 14 13 13 12 11
0 1 2 3 3 3 3 3 3 2 2 7 15 19 22 28 30 31 31 31 26 28 25 24 24 24 25 23 21 19 18 17 17 16 15 14 13 12 11 11 11 10 10
2 3 4 4 4 4 4 4 4 4 4 6 10 15 21 26 27 29 32 27 26 26 25 24 24 24 23 23 20 18 16 16 15 13 12 11 11 10 10 10 11 9 9
4 4 4 4 4 4 5 4 5 5 6 7 9 13 21 22 22 25 29 27 27 27 25 23 23 21 20 18 18 16 15 13 12 11 10 9 9 10 9 8 9 9 8
4 4 5 5 5 5 5 5 5 5 6 8 11 18 22 20 21 23 27 27 27 27 22 20 18 18 17 16 14 13 12 10 9 8 7 7 6 6 9 9 9 7 8
4 4 4 5 7 8 9 9 6 7 8 11 15 18 21 19 21 24 25 23 21 20 20 19 16 14 13 12 12 11 9 8 8 7 7 6 6 7 6 7 7 8 7
4 4 5 6 7 8 9 11 10 11 13 14 14 14 14 14 14 14 13 14 14 14 13 12 10 9 10 11 12 11 9 8 8 8 6 5 5 6 6 6 5 5 6
3 3 4 5 5 5 6 7 7 7 7 8 7 7 7 7 7 7 8 9 9 9 9 8 8 7 7 8 9 9 8 7 7 7 7 6 5 4 5 4 5 5 5
1 1 2 2 2 3 3 4 4 5 5 4 4 5 5 4 4 5 6 6 6 7 6 7 7 6 5 5 4 3 7 5 4 4 4 5 5 3 3 4 5 6 6
-0 -0 0 1 1 1 1 1 2 2 2 3 3 2 3 3 3 3 3 3 3 3 4 4 4 4 3 3 2 3 3 3 -0 1 1 2 2 2 3 2 3 5 7

GFSGL_sfc_temp_009.txt.gz
Temp
46 46 45 44 45 45 44 45 44 44 45 45 45 44 44 44 45 45 44 45 44 44 45 45 45 46 45 45 43 43 42 44 42 38 43 41 40 38 36 36 38 37 38
45 45 44 44 42 42 41 42 41 42 42 43 43 42 42 42 43 43 42 41 43 42 43 43 44 43 43 44 43 42 42 42 40 34 38 37 37 38 36 34 34 37 37
44 43 43 42 42 40 39 39 39 39 39 40 41 41 41 41 41 42 42 42 42 43 43 43 43 42 39 43 42 41 40 37 39 36 33 36 34 36 35 34 34 33 36
44 42 40 40 41 41 39 38 38 38 38 38 38 39 39 40 40 41 40 40 40 41 41 42 42 42 40 41 39 39 38 37 36 35 32 33 33 33 33 31 30 33 33
42 40 39 39 39 38 36 35 36 36 37 38 37 36 37 38 38 38 39 38 38 39 40 40 42 42 42 42 40 39 38 37 35 35 33 32 31 28 29 31 31 32 33
37 35 36 34 34 34 34 33 33 34 36 36 36 36 35 37 39 39 37 36 37 37 37 40 40 39 40 41 42 44 41 37 34 35 35 33 32 32 31 31 31 30 27
33 32 32 32 32 33 32 31 31 31 33 34 34 35 35 36 39 39 38 34 33 36 37 37 38 39 38 39 40 42 42 43 43 39 36 36 33 33 32 31 31 31 31
31 31 32 32 30 31 30 29 28 30 29 30 31 33 34 35 38 39 38 36 34 35 37 37 37 38 38 37 36 36 37 37 40 40 40 39 38 36 35 34 32 31 30
30 30 30 30 28 28 26 25 26 26 26 26 27 28 29 31 36 38 37 35 34 34 36 37 37 37 39 40 35 34 34 35 38 41 39 40 40 39 37 31 27 26 23
28 28 28 27 24 23 24 23 23 22 22 24 24 25 26 27 33 36 36 34 33 34 35 36 36 37 39 40 34 33 31 32 31 33 32 36 37 36 37 32 30 25 23
24 23 21 21 19 19 18 19 18 17 18 17 18 20 21 24 26 33 36 34 33 33 33 34 36 38 38 39 38 33 33 34 31 30 28 30 30 31 31 29 30 28 24
18 15 14 13 13 14 11 12 12 11 11 11 13 15 20 23 27 31 34 36 36 32 32 34 35 38 37 38 38 36 37 36 30 28 26 26 26 26 27 27 28 28 29
11 9 8 9 9 9 7 7 7 8 8 9 11 12 15 21 24 30 34 36 36 33 34 35 36 36 36 36 38 37 35 33 26 25 24 26 27 28 27 25 26 25 25
6 6 7 6 6 7 8 8 6 5 5 6 7 8 11 15 19 24 29 31 32 32 33 33 34 34 33 32 32 35 33 31 26 26 26 28 27 24 21 22 19 19 17
5 5 5 6 5 6 7 7 7 8 8 5 6 7 8 9 13 20 23 24 28 29 29 30 30 30 26 27 28 29 31 28 25 27 27 24 21 20 19 20 18 16 15
2 3 3 3 3 4 4 5 11 13 15 16 17 15 13 17 20 22 23 26 28 30 27 26 27 26 25 25 26 26 28 27 25 25 24 21 19 19 17 17 17 15 14
1 1 2 2 3 2 3 3 1 7 13 14 15 16 16 17 19 21 23 25 27 29 26 26 25 25 25 25 26 26 26 23 24 22 19 18 18 17 16 15 15 14 13
1 1 2 2 3 4 4 4 4 3 2 4 11 12 14 16 18 21 24 26 22 26 27 26 25 25 25 25 25 26 23 21 20 19 18 18 17 16 14 13 13 12 12
1 1 3 4 4 5 5 5 5 5 4 5 7 10 12 16 19 22 26 23 24 25 26 26 26 26 25 26 24 23 21 20 19 18 18 17 16 15 13 13 12 12 12
2 2 4 4 5 5 6 6 6 6 6 6 6 7 10 12 15 19 21 22 23 26 26 27 25 25 25 23 21 20 18 18 17 16 15 14 14 13 12 11 11 9 9
2 4 4 4 5 5 6 7 9 9 8 6 7 10 17 17 16 18 19 21 27 26 27 25 24 23 22 21 19 18 17 16 15 14 13 12 12 11 11 11 10 9 9
3 3 3 3 5 6 6 8 9 9 9 9 11 13 17 14 15 16 18 20 21 22 22 21 21 21 20 18 17 16 14 12 11 11 10 10 10 10 10 9 9 8 8
2 2 2 3 5 5 5 6 6 7 7 7 8 8 8 8 8 9 11 12 14 15 17 17 14 14 15 15 16 14 12 10 11 11 9 8 8 8 8 7 8 7 7
1 1 1 2 2 3 4 4 5 5 5 4 4 5 5 5 6 7 7 9 9 9 9 10 10 11 11 12 12 12 12 11 11 10 10 8 7 7 7 7 6 7 7
1 0 0 0 0 0 1 2 3 3 2 3 3 3 4 4 4 4 5 6 6 7 7 7 7 7 7 8 8 8 11 10 9 10 9 8 7 6 6 6 6 6 6
1 1 0 -0 -0 -0 -0 -0 1 2 2 2 2 2 3 3 3 3 3 4 4 4 4 5 4 4 5 5 5 7 8 8 6 7 7 6 5 4 4 4 4 5 5

GFSGL_sfc_temp_012.txt.gz
Temp
38 38 37 37 37 37 35 36 35 36 37 37 37 36 36 36 37 35 35 35 36 35 36 36 36 37 36 36 36 36 36 35 33 31 33 34 35 35 35 33 34 33 33
38 37 37 37 36 35 35 34 33 35 35 36 36 36 36 36 36 35 35 35 34 34 35 35 37 39 36 36 38 39 39 35 31 28 30 30 31 35 32 31 32 35 32
38 36 35 34 33 33 33 33 33 33 35 35 35 34 35 35 35 36 35 36 35 35 36 36 38 35 37 39 38 40 39 39 34 28 28 28 29 33 29 29 29 29 33
36 33 31 31 32 32 32 31 30 31 31 31 34 34 34 34 34 34 35 35 36 37 36 37 38 37 38 37 38 38 38 37 38 29 28 29 28 30 33 30 28 29 30
34 31 32 32 31 30 28 28 28 28 30 30 31 32 34 34 35 33 33 33 33 34 35 37 38 38 39 40 39 38 38 37 38 36 28 26 28 29 30 31 30 30 28
30 29 30 30 30 29 29 30 30 29 27 27 29 30 30 34 38 39 39 35 34 33 32 34 36 36 38 41 42 43 41 37 37 37 37 34 33 34 33 31 31 27 25
24 25 25 26 27 28 28 28 29 28 28 27 27 28 28 29 35 37 38 35 34 34 33 33 34 36 36 37 40 42 43 43 43 40 38 37 36 34 33 31 32 32 32
25 23 24 26 25 26 26 26 26 27 26 25 25 25 25 27 32 33 35 34 33 34 34 33 33 34 36 36 36 35 37 39 40 41 40 42 41 37 36 35 34 32 27
25 25 25 24 22 22 20 21 22 21 21 21 22 22 21 22 28 30 30 28 30 31 34 35 34 34 37 39 36 32 32 34 39 41 42 43 43 41 38 34 29 26 18
23 23 22 20 16 16 17 16 17 16 17 18 17 18 18 18 23 26 26 24 23 27 30 33 35 35 37 39 36 34 30 32 34 35 36 39 39 38 39 37 32 28 27
19 17 15 15 12 12 11 12 11 10 11 9 10 11 12 14 15 21 24 22 22 23 26 29 33 37 38 38 39 35 33 35 36 33 31 34 32 32 34 36 36 36 30
13 11 10 8 8 9 6 7 6 6 5 5 5 6 10 12 16 19 22 24 26 23 24 29 31 36 38 38 38 38 39 37 34 30 28 29 30 31 33 33 33 35 35
8 6 5 6 6 7 5 4 4 5 4 4 4 4 6 10 11 16 19 21 23 22 26 30 34 35 36 37 38 38 36 34 31 28 27 28 29 32 32 28 29 27 26
4 4 5 4 4 4 5 6 4 3 3 3 3 3 4 6 8 10 11 12 16 17 22 25 32 33 34 33 33 35 35 32 30 29 28 29 29 27 26 26 24 24 21
4 4 3 3 2 2 3 3 4 6 7 6 7 8 8 8 11 16 16 14 13 17 19 20 21 25 27 28 31 30 32 31 28 29 26 25 25 25 25 24 23 21 19
2 3 2 2 2 2 2 3 10 13 15 16 18 16 14 17 19 19 20 20 21 22 17 16 18 21 25 27 28 26 28 29 29 28 26 25 24 23 22 21 21 19 18
1 2 2 2 1 0 1 1 0 6 13 15 16 17 18 18 19 19 20 20 21 21 16 16 18 21 23 27 25 26 26 28 29 26 25 25 23 21 19 18 17 18 17
1 1 0 0 0 1 2 2 3 2 2 4 12 14 17 18 19 20 20 21 15 17 16 17 17 21 23 23 23 25 26 27 26 25 25 22 21 20 17 17 17 16 16
-1 0 1 1 2 3 3 4 4 5 5 6 8 12 13 16 18 20 21 17 16 16 17 18 19 22 23 24 24 26 26 23 24 22 21 20 20 18 17 17 16 16 15
-1 -0 2 2 2 2 3 4 5 5 6 8 8 9 10 10 11 14 16 17 17 19 20 21 23 24 24 23 25 25 22 22 20 20 19 19 18 18 16 14 14 13 13
-1 1 1 1 0 1 3 4 4 5 5 5 6 9 16 9 7 7 9 12 13 20 21 22 24 23 24 22 22 22 21 20 19 19 17 17 16 15 14 14 13 13 12
-1 -2 -0 -1 -0 1 1 3 3 4 3 3 4 5 12 6 5 6 7 8 9 10 14 18 16 15 18 19 20 19 18 17 16 15 14 14 14 13 12 11 11 11 11
-3 -2 -2 -2 -1 -0 -0 1 1 2 2 2 3 3 3 3 4 4 5 7 8 8 10 11 12 13 15 16 17 18 15 14 14 14 13 12 12 11 11 10 9 8 8
-6 -3 -3 -3 -2 -2 -2 -1 -0 1 1 1 2 2 2 2 2 3 4 5 6 7 7 8 9 10 11 11 12 13 13 13 13 13 13 12 11 11 10 9 9 8 8
-9 -8 -7 -6 -5 -4 -3 -3 -1 -1 0 1 1 2 2 2 2 2 3 4 3 3 4 4 6 7 7 8 9 11 13 12 12 12 12 11 10 9 9 8 8 8 8
-9 -10 -11 -9 -6 -5 -4 -4 -3 -2 -2 -1 -0 0 1 1 2 2 2 3 2 3 3 3 4 5 6 7 8 10 11 12 10 10 10 9 8 7 7 7 7 7 7

GFSGL_sfc_temp_015.txt.gz
Temp
36 36 35 34 34 34 32 32 31 31 32 32 32 32 33 34 33 32 33 33 32 32 33 33 34 35 39 41 35 37 39 34 42 40 32 32 36 37 35 35 35 35 37
35 34 34 34 33 32 32 31 30 30 30 31 31 31 31 32 32 32 33 34 32 33 34 33 34 37 34 37 38 38 39 37 41 41 30 30 32 37 35 33 34 36 34
35 33 32 32 31 30 30 31 31 30 29 29 30 30 30 31 31 32 33 33 34 34 35 35 35 35 34 36 36 37 39 40 36 35 32 28 30 34 29 31 32 32 33
33 31 29 28 29 29 29 28 28 28 27 27 28 30 30 31 31 31 32 32 32 34 35 35 35 35 35 36 36 36 37 38 37 35 29 27 28 29 33 31 28 31 32
32 31 30 30 31 29 29 28 28 27 29 28 28 28 28 30 32 31 32 31 31 32 34 34 35 35 37 38 36 36 37 36 37 36 36 26 27 28 30 31 32 32 32
30 28 29 28 29 28 29 29 29 29 29 28 28 28 27 30 33 34 34 31 31 32 32 34 34 33 35 38 40 40 39 35 35 36 37 35 35 36 33 32 33 29 26
23 22 23 25 25 26 26 26 26 25 26 25 25 26 25 26 31 32 32 30 28 28 30 32 33 35 34 34 37 39 39 39 40 38 36 38 37 37 35 33 33 33 35
22 21 21 23 21 21 22 21 21 21 21 21 21 21 21 23 27 28 29 27 26 26 27 29 30 32 34 34 33 33 34 35 36 36 38 40 41 38 38 37 35 34 30
23 22 20 18 16 17 15 15 16 16 15 15 16 16 15 16 22 23 23 20 21 21 24 25 26 28 33 36 33 31 32 33 37 38 39 40 41 44 39 36 32 29 27
20 20 19 16 12 12 12 11 12 11 12 13 12 12 12 10 16 18 19 16 14 17 19 23 25 26 30 33 31 31 29 31 32 33 34 36 37 37 40 37 36 30 32
16 15 13 12 10 9 8 9 8 7 8 6 7 8 8 10 10 16 19 17 15 15 16 18 22 26 29 31 34 32 31 34 34 32 32 33 34 34 34 35 38 36 34
10 8 7 5 5 8 5 5 5 4 3 3 4 5 8 10 13 15 18 19 20 15 14 17 19 24 27 30 31 35 37 37 34 31 31 31 31 32 33 33 35 37 38
2 -0 1 3 5 5 3 2 2 3 2 3 3 3 5 9 10 15 17 18 19 15 16 18 22 23 25 25 28 32 34 34 33 31 30 30 31 34 34 32 31 31 32
-5 1 4 4 3 3 4 4 2 1 1 2 2 3 5 8 11 13 13 11 13 15 16 15 17 20 23 23 22 28 32 32 31 31 30 31 32 32 30 29 27 25 26
1 3 3 3 2 2 3 3 4 6 7 6 9 10 9 10 12 19 19 17 17 18 15 12 12 15 16 17 19 27 29 30 30 31 30 29 28 28 27 28 27 24 24
0 2 3 2 2 3 2 2 9 12 15 17 18 16 14 18 21 21 22 23 24 24 18 13 13 13 14 16 17 21 25 27 29 31 29 29 27 25 26 25 26 23 23
-4 1 1 2 1 0 0 -0 -1 5 13 15 16 18 19 19 21 22 22 23 24 24 16 13 12 13 14 17 18 21 24 27 30 29 29 27 26 26 25 23 23 21 21
-8 -1 -1 -1 -0 0 0 1 2 1 1 4 12 15 18 18 19 21 22 21 15 18 16 14 13 13 15 17 18 21 25 26 27 29 28 26 26 25 23 21 21 20 20
-4 -1 -0 -1 -0 1 2 1 2 3 3 3 6 10 10 14 17 17 16 9 9 10 13 15 15 14 16 17 19 22 23 24 25 27 25 26 25 23 21 21 20 20 19
-7 -1 1 -1 -1 -1 0 0 1 1 2 2 3 3 5 9 3 4 6 7 7 8 9 11 18 20 18 18 20 24 23 24 24 25 24 23 22 22 20 19 18 18 17
-3 -2 -2 -3 -3 -2 -1 -1 -1 0 0 1 1 4 13 5 2 3 3 4 5 6 8 10 13 20 23 24 23 23 23 22 22 22 21 20 21 19 19 19 18 17 16
-5 -6 -5 -5 -3 -3 -3 -2 -2 -1 -0 0 1 3 10 4 2 2 3 3 5 6 7 8 10 12 13 16 19 20 20 19 19 18 18 18 18 16 16 15 15 14 13
-6 -7 -6 -7 -6 -4 -4 -4 -4 -2 -1 -0 1 1 2 2 2 2 2 3 3 4 5 6 7 8 11 13 14 15 15 15 16 16 16 15 14 14 14 13 12 12 12
-7 -9 -9 -11 -11 -7 -6 -6 -5 -3 -3 -2 -1 -1 0 1 1 2 2 3 3 3 4 5 6 6 8 10 11 12 13 13 15 15 15 13 12 12 12 11 11 11 10
-8 -11 -11 -13 -15 -12 -10 -8 -6 -6 -5 -3 -2 -2 -1 -0 0 1 2 3 3 3 4 4 6 7 8 9 9 10 12 12 13 13 13 13 12 11 10 10 9 10 10
-9 -11 -15 -16 -16 -17 -16 -12 -10 -8 -8 -5 -4 -4 -3 -3 -1 -0 1 2 2 3 3 4 5 6 8 9 11 12 12 13 11 12 12 11 9 9 9 9 9 8 8

GFSGL_sfc_temp_018.txt.gz
Temp
34 33 32 32 32 31 31 30 30 29 30 30 30 29 30 30 30 29 29 30 30 30 31 31 31 32 33 33 33 34 37 39 36 41 34 34 32 36 35 37 37 37 40
34 33 32 31 31 30 29 30 29 29 29 29 29 29 29 29 29 27 29 28 28 30 32 31 31 35 31 31 33 34 34 36 37 36 41 31 32 33 37 35 35 37 37
33 32 31 30 29 29 28 29 28 28 28 28 28 28 29 29 29 29 29 29 30 30 30 31 32 31 31 32 34 34 35 37 36 34 36 33 31 30 29 32 34 34 35
31 31 29 28 28 28 28 27 26 26 25 26 27 28 28 28 28 28 29 29 29 30 31 31 31 32 31 32 33 34 35 34 35 34 34 35 28 29 32 32 30 32 32
31 31 29 29 29 27 26 26 27 27 28 27 27 27 27 28 30 29 29 28 28 28 29 30 31 32 34 35 33 33 33 34 34 33 34 35 30 26 29 31 33 32 32
29 26 27 26 26 26 25 25 25 25 25 25 24 24 24 27 30 31 30 27 27 27 27 28 29 29 31 35 37 38 37 33 31 33 34 33 35 33 35 34 32 31 29
22 20 21 22 22 22 22 22 22 21 21 20 20 21 20 21 26 27 27 25 24 24 24 25 26 29 29 30 33 36 37 38 40 35 33 34 35 38 36 33 32 34 35
20 18 18 20 17 18 18 17 17 17 17 16 16 16 16 18 22 23 23 21 20 20 21 22 22 23 25 26 26 27 30 32 34 36 37 37 38 39 37 36 36 34 37
21 19 18 16 12 14 11 12 13 13 12 11 13 12 11 12 17 19 20 16 16 16 19 19 20 20 23 25 23 22 24 27 35 38 39 40 41 41 41 36 32 31 30
19 18 17 14 7 9 10 9 10 9 10 11 10 10 9 7 14 16 18 15 12 14 16 19 21 22 24 26 22 20 19 23 28 31 33 35 38 38 40 37 33 31 31
15 13 11 11 8 8 7 8 7 6 7 5 6 6 7 8 9 15 18 16 14 13 13 15 18 21 23 24 25 21 21 25 27 29 31 32 32 34 36 38 35 35 32
9 7 6 3 5 7 3 3 4 3 2 2 2 4 7 9 12 15 18 20 20 15 14 16 17 21 22 23 23 24 26 26 24 25 27 29 30 32 34 36 36 33 38
1 -3 -2 1 3 4 1 2 1 1 0 1 2 2 4 8 10 15 18 20 20 17 17 18 22 25 26 25 24 24 23 20 19 21 25 29 31 34 35 34 35 34 34
-10 -3 1 -0 1 0 3 4 2 0 0 2 2 3 6 10 13 15 15 15 18 18 19 17 19 22 23 22 20 21 20 19 18 19 23 30 33 32 32 33 32 32 29
-5 0 -0 -0 -2 1 3 3 4 6 7 7 9 11 10 10 13 19 20 18 19 20 21 20 19 12 10 10 12 15 17 17 18 19 25 27 30 29 29 31 30 29 27
-3 0 0 1 1 2 1 1 9 12 15 17 18 17 15 19 21 22 22 23 24 24 19 17 17 18 16 14 13 13 15 18 19 20 25 27 28 29 29 29 29 28 24
-11 -3 -1 0 -1 -1 -0 -1 -2 4 12 13 15 17 17 19 19 20 21 22 21 19 10 10 12 14 15 16 14 13 15 18 21 23 25 27 29 27 27 27 25 26 24
-13 -5 -4 -3 -3 -2 -2 -1 -0 -2 -1 1 9 12 15 15 17 19 18 16 4 7 7 8 8 10 10 15 13 14 16 18 19 22 24 27 28 27 25 25 24 24 23
-10 -7 -7 -5 -3 -2 -1 -1 -1 -1 0 -0 2 6 7 12 15 13 13 3 3 3 5 6 7 9 13 15 15 14 16 18 20 23 25 27 26 26 25 25 23 24 23
-13 -7 -4 -8 -4 -4 -3 -3 -2 -2 -2 -1 -1 0 2 8 1 2 3 2 2 2 4 4 6 8 11 15 17 16 17 18 21 23 24 24 25 25 25 23 22 21 21
-16 -13 -6 -10 -10 -6 -5 -5 -4 -3 -3 -3 -1 2 13 3 0 1 1 2 1 2 2 3 4 6 9 11 13 19 19 20 23 24 24 23 24 22 24 23 21 21 21
-16 -16 -16 -14 -5 -6 -8 -5 -6 -6 -5 -4 -2 0 8 1 0 1 1 2 3 4 4 4 4 6 7 9 10 11 14 15 17 17 18 19 20 20 20 19 19 18 17
-15 -14 -12 -7 -6 -8 -9 -11 -10 -8 -7 -6 -4 -3 -2 -2 -1 -0 0 2 3 4 5 5 5 6 8 9 11 11 10 11 13 15 15 14 15 16 16 16 15 14 14
-14 -12 -7 -5 -7 -11 -12 -11 -11 -9 -9 -8 -9 -6 -4 -4 -3 -2 -1 1 2 3 4 4 5 6 8 9 10 11 12 13 13 14 14 13 12 13 13 13 13 13 13
-10 -6 -5 -6 -13 -13 -15 -16 -13 -16 -15 -12 -9 -8 -7 -6 -6 -5 -3 -2 0 1 2 3 5 6 7 11 10 10 11 11 12 13 13 12 12 11 11 11 11 11 11
-6 -5 -6 -8 -12 -14 -18 -18 -18 -16 -15 -12 -11 -10 -9 -8 -7 -6 -5 -4 -2 -0 0 2 3 4 6 11 12 15 15 14 11 12 11 11 10 10 10 10 10 9 9

GFSGL_sfc_temp_021.txt.gz
Temp
33 31 30 30 30 30 29 28 28 28 28 28 28 28 28 27 28 26 26 27 27 28 28 28 29 29 29 29 29 30 32 32 31 36 37 35 34 34 36 36 37 38 40
32 30 31 30 30 29 29 28 28 28 28 28 28 28 27 27 27 25 26 27 26 27 28 28 29 32 28 29 28 29 30 32 32 31 35 36 32 32 34 35 36 37 37
31 31 30 30 28 28 28 28 27 27 26 26 27 25 26 26 26 26 26 27 27 27 28 28 28 28 28 29 27 29 31 34 32 31 32 35 34 30 30 32 33 36 36
30 30 29 28 28 27 27 26 25 25 24 25 25 25 25 26 27 27 28 27 27 28 28 28 28 28 27 28 29 29 30 29 31 31 31 32 33 33 30 32 30 32 33
29 29 28 27 27 26 24 24 24 24 24 24 24 23 24 24 27 26 26 25 24 25 26 27 28 28 31 31 29 28 29 28 28 29 29 31 32 27 30 33 32 35 32
29 26 26 24 24 23 22 22 22 22 21 21 20 20 19 23 26 26 26 23 24 24 23 24 25 25 27 30 31 32 32 28 28 29 29 29 31 33 33 34 33 32 29
22 18 18 20 20 20 19 19 19 18 18 17 17 17 17 17 22 24 24 22 21 20 20 21 22 24 23 23 25 28 28 30 32 30 29 30 31 33 33 32 34 34 34
19 16 17 19 16 16 16 15 15 15 14 14 14 13 14 16 20 21 21 20 18 18 18 19 19 19 20 21 21 20 21 23 25 27 27 29 33 35 35 35 34 34 36
20 19 17 15 12 13 9 10 12 11 10 9 12 11 9 10 16 18 19 16 16 16 18 18 19 18 21 23 21 18 19 21 26 29 30 32 34 35 37 36 32 30 30
19 18 16 14 7 6 9 8 9 6 9 10 9 9 8 7 13 16 18 15 12 14 16 18 20 21 23 24 21 18 15 18 20 20 23 26 29 31 35 35 34 30 31
15 14 12 11 6 6 5 6 5 4 6 4 5 6 6 7 8 16 18 16 14 13 14 15 18 22 24 25 25 20 19 21 21 20 20 21 24 26 29 33 35 34 31
10 10 8 1 3 5 -5 0 -1 -0 -0 0 1 2 6 8 12 16 18 20 21 16 15 17 18 22 24 25 25 25 26 26 22 20 18 17 20 23 27 31 33 35 36
4 3 -3 -1 2 2 -5 -0 -0 -2 -2 0 2 2 4 9 10 15 19 21 22 20 20 22 25 26 27 27 26 26 24 20 18 15 14 16 20 22 26 29 31 34 34
1 1 0 -2 -1 -1 3 3 1 -1 -1 1 1 3 6 11 13 15 15 15 18 19 20 20 21 24 26 25 22 23 21 21 19 17 16 18 20 20 22 25 28 29 29
-0 2 -0 -2 -4 -1 1 1 2 4 5 5 9 11 10 10 13 20 20 18 19 20 21 18 15 15 14 16 18 16 16 16 15 15 15 15 17 17 19 23 27 29 28
1 2 -1 -1 -1 1 0 0 8 13 15 17 19 17 15 18 20 21 21 23 23 22 14 7 6 8 9 10 10 12 16 15 14 15 14 15 15 16 19 24 27 28 27
-5 -3 -3 -0 -2 -2 -3 -3 -4 3 12 13 15 16 16 18 19 20 21 20 18 14 3 3 4 6 6 8 9 11 11 16 17 15 16 16 17 18 19 24 26 27 27
-10 -5 -8 -5 -6 -7 -6 -5 -3 -4 -4 -1 7 10 14 15 17 18 17 11 0 3 2 1 2 4 5 6 8 11 15 15 15 16 16 17 19 20 24 24 26 26 27
-10 -8 -8 -8 -8 -6 -5 -4 -4 -3 -3 -3 -1 4 5 11 14 13 12 -3 -1 -1 0 1 2 2 3 5 7 10 13 15 15 15 16 18 20 23 25 24 25 24 25
-13 -8 -7 -11 -10 -10 -7 -7 -5 -4 -4 -5 -4 -3 -0 5 -1 -1 -0 -0 0 0 1 1 2 3 3 5 6 9 10 14 17 17 18 20 22 23 23 25 25 23 24
-13 -16 -9 -13 -16 -14 -12 -10 -6 -5 -6 -7 -5 -1 11 2 -3 -3 -2 -1 0 1 2 3 3 3 4 6 7 8 9 11 13 15 18 21 24 24 23 22 23 23 23
-14 -14 -20 -17 -14 -12 -13 -9 -5 -6 -8 -8 -5 -3 7 -3 -4 -4 -3 -2 -1 1 3 3 3 4 6 6 8 8 8 9 11 12 14 14 15 18 18 19 20 21 20
-13 -15 -17 -17 -15 -12 -12 -10 -8 -10 -11 -10 -8 -7 -7 -7 -7 -6 -5 -4 -3 -1 2 3 3 4 7 7 11 10 9 9 11 12 12 12 12 11 11 12 12 13 15
-16 -16 -14 -15 -15 -13 -10 -8 -8 -9 -11 -11 -14 -14 -9 -9 -9 -8 -7 -6 -4 -3 -1 1 2 3 4 6 10 13 12 12 12 11 11 11 10 11 12 12 12 12 13
-20 -16 -14 -14 -16 -11 -9 -9 -11 -16 -16 -15 -14 -17 -13 -12 -10 -10 -8 -7 -6 -5 -3 -1 2 2 3 4 8 12 14 13 11 12 11 10 9 9 10 11 12 12 12
-8 -11 -13 -14 -12 -9 -9 -12 -13 -15 -15 -15 -16 -16 -15 -13 -11 -11 -10 -9 -8 -8 -6 -3 -1 -1 1 4 6 14 15 17 12 12 10 10 9 9 9 9 9 10 10

GFSGL_sfc_temp_024.txt.gz
Temp
31 29 30 29 28 28 28 27 27 27 27 27 27 27 27 26 26 24 24 26 25 25 25 26 27 27 27 28 28 28 28 27 26 31 35 37 34 34 38 36 35 36 38
30 29 30 29 29 28 27 27 27 27 27 27 27 26 26 26 25 24 25 24 23 25 26 26 26 29 26 27 27 26 27 28 27 26 31 33 33 35 33 34 37 36 35
29 29 29 29 28 27 27 27 27 26 25 25 25 25 25 25 25 25 25 25 25 25 26 26 26 26 25 26 26 26 27 29 28 27 27 31 33 34 33 32 32 34 35
29 29 28 27 27 26 26 25 25 24 23 23 23 23 23 23 24 25 26 25 24 25 25 25 25 25 25 24 25 25 27 26 27 26 27 28 30 33 28 30 32 29 32
28 28 27 28 26 25 23 22 22 22 22 22 22 21 22 22 26 24 24 23 22 22 23 24 24 25 27 27 26 25 25 24 24 24 25 27 28 28 28 31 30 32 32
27 27 27 24 23 21 21 21 21 20 19 19 18 18 17 21 24 25 25 22 21 21 20 21 21 21 23 25 26 27 27 23 21 21 24 24 26 29 32 30 31 30 28
23 20 20 20 19 19 18 18 18 16 17 16 16 15 15 16 22 24 24 21 20 19 19 19 19 21 20 21 22 24 24 25 26 23 20 21 23 26 28 28 29 30 30
21 18 17 18 15 15 15 14 14 14 13 13 13 12 13 15 20 21 22 20 18 18 18 18 18 18 19 20 20 19 20 22 23 24 22 22 23 25 25 26 27 28 30
20 19 17 15 12 12 8 9 11 10 10 8 12 9 8 9 16 19 20 17 16 16 18 18 18 18 20 23 21 17 18 20 25 27 28 29 30 31 31 26 22 23 23
19 19 16 13 7 6 9 7 7 4 9 10 9 8 8 6 13 17 19 17 13 15 16 18 21 21 24 25 21 19 16 18 20 19 21 23 26 25 28 26 23 19 21
16 14 12 11 6 5 4 5 2 1 6 2 4 5 5 7 7 16 19 18 16 15 15 17 19 23 25 26 27 22 20 23 22 21 21 21 22 22 23 24 25 24 21
11 10 9 4 7 5 -5 -3 -4 -5 -3 -2 -1 2 6 8 12 16 20 22 23 18 16 18 19 24 25 26 27 28 29 28 24 20 19 18 18 19 22 23 25 26 27
6 6 3 4 5 5 -2 0 -3 -7 -5 -1 2 2 4 9 10 17 21 22 23 20 20 22 26 27 27 24 25 26 24 22 20 17 17 18 20 21 23 22 23 23 24
-1 4 5 3 3 3 5 4 -5 -5 -2 -0 0 1 4 8 13 14 15 17 20 20 21 19 21 21 20 20 15 17 17 17 16 16 16 19 21 20 18 19 17 18 17
0 4 4 4 2 3 3 1 2 3 3 0 3 6 10 10 12 20 21 19 19 21 19 12 8 7 7 8 9 11 12 12 12 14 14 15 16 16 16 18 17 16 14
3 4 4 4 3 2 1 0 8 13 16 18 20 18 15 18 20 22 22 23 22 19 10 1 1 3 3 5 5 6 9 10 11 13 13 14 14 15 15 16 16 14 13
-2 4 3 3 0 -1 -3 -3 -4 2 10 13 15 16 17 18 19 20 21 20 14 11 -6 -2 -1 0 1 3 4 5 5 8 12 13 14 14 15 15 15 15 16 17 15
-2 2 -1 -0 -2 -5 -5 -5 -5 -6 -6 -4 5 9 13 15 17 18 17 9 -2 -1 -12 -3 -2 -0 1 2 3 3 5 7 9 11 15 14 14 15 15 16 18 21 18
-2 -2 -3 -3 -5 -6 -6 -5 -6 -6 -6 -6 -4 2 3 10 13 13 11 -12 -6 -3 -2 -1 0 1 2 2 3 4 6 7 9 10 12 15 15 16 16 19 21 23 23
-6 -2 -3 -9 -10 -10 -7 -8 -7 -8 -8 -9 -6 -4 -2 -2 -10 -10 -11 -13 -9 -3 -2 -1 1 2 2 3 3 5 6 7 8 9 10 12 15 17 19 20 21 22 24
-9 -10 -8 -13 -14 -13 -13 -12 -8 -10 -9 -10 -6 -1 9 1 -7 -7 -7 -9 -8 -5 -3 -1 0 1 3 3 4 5 6 8 9 9 10 10 12 12 15 18 21 23 21
-12 -13 -18 -16 -14 -13 -13 -11 -10 -11 -10 -8 -4 -3 5 -5 -6 -8 -8 -8 -7 -6 -4 -2 -1 1 2 3 4 5 6 9 9 10 9 10 11 12 13 15 16 16 16
-9 -9 -10 -14 -15 -14 -15 -16 -14 -13 -10 -7 -6 -7 -9 -11 -12 -11 -10 -9 -8 -7 -5 -5 -3 -1 1 3 4 6 6 9 11 10 9 9 10 11 12 12 13 13 13
-11 -11 -9 -11 -17 -15 -14 -14 -11 -8 -7 -7 -12 -13 -11 -11 -15 -14 -12 -10 -9 -8 -7 -6 -5 -4 -2 -1 3 4 6 10 13 10 10 9 9 10 10 11 11 12 14
-21 -16 -14 -14 -15 -11 -12 -11 -8 -7 -9 -10 -11 -15 -14 -15 -15 -16 -14 -13 -11 -10 -9 -8 -6 -5 -4 -3 -2 -0 4 10 11 10 9 9 9 9 9 9 10 11 12
-9 -8 -8 -8 -10 -10 -10 -8 -6 -7 -8 -11 -13 -14 -16 -16 -15 -14 -13 -13 -12 -11 -11 -8 -7 -8 -6 -4 -2 3 7 14 13 10 8 8 8 8 9 8 8 9 9

GFSGL_sfc_temp_027.txt.gz
Temp
34 33 33 32 32 32 32 32 32 32 31 31 31 31 30 30 30 29 29 30 29 29 30 30 30 31 31 31 32 32 31 31 27 32 36 38 38 38 39 41 42 42 44
33 32 33 32 32 32 31 31 31 30 30 30 29 29 29 28 28 27 27 27 27 27 28 28 28 30 29 30 29 29 29 30 28 25 31 33 34 37 38 37 39 41 42
32 32 31 31 31 31 30 30 30 29 28 28 28 27 26 26 26 27 27 27 27 26 26 26 26 26 25 27 28 27 28 29 29 27 26 32 33 35 34 37 37 38 40
31 31 31 30 30 30 29 28 28 27 26 26 25 25 25 25 26 27 27 26 26 26 26 26 25 25 24 24 25 25 26 25 26 25 26 27 30 32 34 32 32 37 37
31 31 31 31 29 28 27 25 25 25 25 24 23 22 23 24 27 26 26 25 24 24 24 24 25 25 25 25 25 24 24 23 22 22 23 25 26 27 28 32 31 34 36
31 31 30 28 26 24 23 23 23 22 21 21 20 19 18 22 24 26 26 24 23 22 21 22 23 22 23 24 25 25 25 21 19 19 21 20 22 24 26 27 27 26 25
27 24 24 24 23 22 21 20 20 19 18 17 17 17 16 17 22 25 25 23 21 20 20 20 20 22 21 21 22 23 23 24 25 24 20 21 22 24 24 23 23 24 24
25 23 21 21 19 18 17 17 17 16 15 15 15 14 15 16 21 22 23 22 19 19 19 19 19 19 20 21 20 20 21 22 23 25 23 24 25 26 25 25 24 23 26
24 23 21 19 16 16 13 13 14 13 13 12 14 12 10 11 17 21 21 19 18 17 19 20 20 20 21 23 22 20 21 22 27 28 29 30 30 31 31 27 22 21 19
23 23 19 16 12 11 13 11 11 9 12 12 11 10 9 8 14 18 20 19 16 17 19 20 22 23 25 27 23 20 18 21 23 22 24 26 28 28 29 28 25 19 19
19 17 15 14 11 10 9 9 7 6 8 4 6 7 7 8 9 17 20 20 18 17 18 20 21 24 26 28 28 24 23 25 25 24 24 24 24 23 24 25 26 24 20
15 13 11 7 11 8 3 4 3 2 2 2 2 5 8 10 13 17 21 23 24 20 18 21 21 24 26 27 26 26 27 26 21 19 19 20 21 23 25 26 26 26 26
10 7 5 5 6 5 1 3 5 2 2 3 5 5 7 11 12 17 20 22 23 22 22 24 25 24 23 21 21 22 20 17 15 14 14 16 20 23 24 24 25 25 25
6 6 5 4 5 4 7 6 4 3 3 4 3 3 6 8 11 16 16 17 21 21 21 17 18 16 16 15 13 15 14 14 13 12 12 16 18 19 18 21 19 20 19
5 6 6 4 3 6 7 6 7 7 5 -1 1 4 5 7 14 20 22 20 20 20 16 8 5 6 6 7 8 9 10 11 10 11 11 12 14 15 16 19 18 18 15
5 5 5 5 4 5 5 5 11 14 17 19 20 20 18 20 21 22 23 23 22 19 5 -0 1 2 3 4 4 5 7 7 9 10 10 12 12 15 16 17 18 16 15
4 4 4 5 4 3 2 2 0 5 10 13 15 17 19 18 20 20 21 21 15 12 -1 -1 -1 0 1 3 4 4 4 7 8 9 9 11 12 15 15 15 16 17 16
-5 2 1 1 1 -0 -0 -1 -0 -2 -5 -2 5 9 13 16 16 18 18 10 -1 -1 -4 -3 -2 0 2 2 4 4 5 6 7 8 9 10 11 12 13 15 16 16 17
-4 -3 -2 -2 -3 -2 -1 -2 -2 -4 -4 -5 -4 2 4 9 13 14 11 -3 -6 -5 -3 -2 -1 0 1 3 3 4 4 5 6 7 9 10 11 11 11 14 16 18 19
-9 -3 -3 -6 -5 -5 -4 -5 -4 -5 -6 -6 -5 -4 -4 -4 -3 -2 -6 -8 -8 -6 -4 -4 -2 -1 1 2 3 4 4 5 6 8 10 10 11 11 11 12 14 15 17
-10 -10 -6 -8 -8 -10 -9 -6 -5 -7 -7 -7 -6 -2 7 5 -1 -3 -7 -7 -8 -7 -6 -5 -4 -2 -1 1 2 3 3 4 6 8 10 11 10 9 11 13 13 15 17
-15 -14 -13 -11 -8 -8 -9 -7 -8 -9 -8 -7 -5 -3 7 -1 -3 -5 -6 -7 -8 -8 -7 -6 -5 -4 -3 -2 0 2 2 3 5 7 10 10 9 10 11 11 12 14 15
-11 -9 -12 -13 -11 -10 -10 -10 -10 -11 -10 -10 -8 -6 -6 -6 -6 -8 -8 -9 -9 -8 -7 -8 -7 -6 -3 -2 -0 0 1 2 5 6 10 9 8 9 10 10 11 12 14
-14 -15 -14 -13 -12 -9 -8 -7 -8 -8 -9 -9 -10 -10 -7 -7 -9 -11 -11 -10 -10 -9 -9 -9 -8 -8 -7 -5 -3 -1 -0 2 5 8 10 8 8 9 9 9 10 11 13
-22 -18 -15 -13 -16 -13 -13 -8 -7 -8 -8 -7 -7 -7 -7 -9 -11 -12 -12 -13 -13 -11 -10 -9 -8 -8 -8 -7 -6 -6 -3 1 5 12 9 8 7 6 7 8 8 10 10
-19 -17 -14 -9 -8 -7 -9 -8 -6 -6 -5 -5 -6 -7 -9 -11 -12 -13 -14 -15 -13 -12 -12 -10 -9 -9 -9 -6 -5 -1 2 8 14 10 6 6 5 6 7 6 7 8 9

GFSGL_sfc_temp_030.txt.gz
Temp
43 43 42 42 42 43 42 41 41 40 40 39 38 38 37 37 37 37 36 36 34 34 36 35 35 36 36 37 36 36 35 35 30 35 38 40 39 39 40 41 42 43 45
43 42 42 42 42 42 41 41 40 39 38 37 36 36 35 35 34 34 33 33 32 32 33 33 33 34 32 34 34 33 33 34 31 28 33 34 35 37 38 38 40 42 42
42 42 41 41 41 41 40 39 38 37 37 35 34 33 33 32 32 32 32 32 32 32 31 31 31 31 29 30 31 30 31 31 30 29 28 32 33 35 35 36 37 38 41
41 41 40 41 41 40 39 37 36 35 34 33 32 32 31 31 31 32 31 31 31 31 31 30 30 29 28 28 27 27 28 27 27 27 28 28 29 32 32 32 33 36 36
40 40 40 40 40 38 36 34 33 32 33 32 30 29 29 29 31 30 30 30 29 29 29 29 29 28 26 26 26 26 25 24 23 23 23 25 26 27 26 29 28 30 32
41 39 41 38 35 32 32 30 30 29 28 27 26 25 25 28 25 26 28 28 27 27 26 27 28 26 27 26 26 26 26 22 20 21 22 21 23 26 27 27 26 25 23
35 34 33 33 31 31 30 28 27 27 27 25 25 24 23 24 23 25 26 26 26 26 25 24 25 26 25 25 25 25 25 26 27 25 21 22 23 26 27 25 25 25 25
33 32 31 31 30 28 26 26 26 25 24 24 23 22 22 23 22 23 24 25 25 25 24 24 23 24 25 24 24 23 24 25 25 27 26 27 27 28 27 27 25 25 26
33 32 31 30 27 26 23 24 24 23 22 21 20 19 17 19 19 22 23 23 23 22 24 24 24 23 24 26 25 23 24 25 29 30 31 31 32 32 31 28 24 23 22
33 33 31 28 25 23 23 21 22 20 20 20 19 18 16 14 18 20 22 23 21 22 23 25 25 26 27 28 25 24 21 24 25 25 26 27 28 28 29 29 27 21 21
30 28 26 25 22 22 21 20 18 17 17 15 14 16 14 14 16 19 21 22 22 22 23 24 25 26 27 28 28 25 23 26 23 23 24 25 26 26 28 29 28 26 22
26 24 22 19 20 18 16 16 14 14 12 13 13 15 18 16 16 20 22 24 25 22 22 24 25 26 25 26 25 24 24 23 20 19 19 19 21 22 24 26 27 28 28
21 19 17 16 17 15 13 13 14 13 14 16 16 17 17 18 19 19 21 22 24 23 24 25 23 23 21 20 20 20 18 17 16 14 14 16 19 21 22 22 24 25 25
19 17 15 13 14 13 15 15 15 15 15 15 15 15 16 17 18 20 21 21 22 24 24 19 19 17 17 17 15 16 15 15 13 12 13 16 18 18 18 20 19 20 20
18 16 17 16 13 15 15 17 16 17 17 15 14 14 15 16 18 22 23 22 23 23 18 15 13 12 11 12 13 13 13 13 12 13 12 12 14 15 16 19 20 19 17
17 17 18 18 16 16 16 15 17 18 19 20 22 22 21 21 24 23 24 24 24 20 15 10 9 9 9 9 9 10 12 11 12 11 11 12 12 13 14 16 18 18 17
19 18 17 15 16 15 14 13 13 15 16 17 18 19 20 21 21 21 22 23 17 14 9 7 6 7 7 8 9 9 9 11 11 11 11 11 12 13 13 13 15 16 17
13 11 15 15 15 14 13 12 11 10 9 11 12 12 14 16 19 19 20 18 10 8 5 4 5 6 6 7 8 8 8 9 9 10 10 10 11 12 12 12 13 13 15
11 12 11 12 11 10 10 9 8 8 6 6 7 9 9 10 13 16 14 8 5 3 4 4 5 5 5 6 6 7 7 7 8 8 9 10 12 12 12 12 13 12 13
6 4 5 8 8 6 7 6 6 5 5 4 5 6 7 3 5 7 6 4 3 2 3 2 3 3 4 4 5 5 5 6 7 8 9 10 11 13 11 11 12 12 13
6 5 2 4 4 4 4 3 4 4 3 3 4 6 8 5 8 7 5 4 3 2 2 2 2 2 2 3 3 4 4 5 6 7 8 10 10 11 12 12 12 13 13
2 2 1 1 2 2 2 2 2 2 2 2 3 5 8 7 7 5 4 3 2 1 1 0 0 1 1 1 2 2 2 2 4 6 7 8 9 11 11 11 11 12 13
0 0 1 0 -0 -1 -1 -0 -0 0 0 1 1 1 2 2 2 2 2 1 -0 -1 -0 -1 -1 -1 1 1 2 2 1 1 3 4 4 6 9 11 10 10 11 11 12
1 0 0 1 0 0 -0 -0 1 -1 -1 -0 0 0 0 1 1 1 -1 -1 -2 -2 -2 -3 -3 -3 -2 -2 0 1 2 2 3 3 4 7 10 10 9 9 10 10 11
-1 -0 -1 -1 -2 -2 -2 -1 -1 -1 -0 -0 -0 0 1 0 -1 -1 -2 -3 -5 -5 -4 -4 -3 -3 -3 -4 -4 -3 -2 -1 0 4 9 11 10 8 9 9 9 9 10
-1 -2 -2 -2 -2 -2 -1 -2 -1 -0 -1 0 1 1 0 -1 -2 -2 -4 -5 -6 -6 -5 -4 -4 -5 -5 -3 -2 -1 0 4 7 11 11 12 9 9 9 9 8 9 9

GFSGL_sfc_temp_033.txt.gz
Temp
47 47 45 44 45 45 44 43 43 42 42 41 40 40 39 38 37 37 37 36 34 35 36 35 34 35 35 35 35 35 34 33 28 31 35 36 35 35 36 37 37 37 38
46 46 44 44 44 43 43 43 42 41 41 39 39 38 37 37 36 35 34 34 33 33 33 33 33 35 32 33 33 32 31 32 29 26 30 30 31 32 33 33 36 39 37
46 44 43 42 42 42 42 41 41 40 39 37 37 36 35 35 34 34 34 33 33 32 32 32 31 31 29 30 30 29 29 30 28 26 25 29 30 31 30 31 32 33 37
45 43 42 42 42 43 41 40 39 39 37 36 35 34 34 33 33 33 33 32 32 32 32 32 31 30 28 28 27 26 27 26 25 24 24 24 26 28 29 27 26 30 29
43 42 42 42 42 42 38 37 36 35 36 35 34 32 32 31 32 33 32 31 30 30 31 31 30 30 28 28 26 25 24 22 22 21 21 22 23 23 23 26 25 26 27
42 41 43 40 38 35 34 33 32 31 31 30 29 29 28 31 31 28 28 28 29 28 28 29 29 28 28 29 28 28 27 22 19 19 20 20 22 23 25 24 24 22 20
38 36 35 36 33 32 32 31 30 30 30 29 28 28 27 28 29 27 28 27 27 27 27 27 27 28 27 26 27 28 27 28 29 26 22 22 22 25 25 24 24 23 22
35 33 33 33 31 31 30 29 29 29 28 27 27 26 26 26 28 27 26 25 26 27 26 26 25 25 26 25 25 24 25 26 26 27 26 26 26 27 26 25 24 23 25
34 33 32 32 30 29 27 27 28 27 26 25 25 22 21 22 26 25 25 24 24 24 26 26 25 25 26 28 26 22 23 24 29 30 30 31 31 32 31 27 22 20 19
34 34 33 32 29 28 27 26 26 26 25 25 23 22 20 18 22 24 24 23 21 23 24 26 27 28 29 29 26 23 20 21 23 23 23 25 27 27 30 27 24 19 19
32 31 30 29 28 28 26 26 23 22 22 20 19 20 19 18 17 23 24 22 22 22 22 24 26 28 28 28 28 22 20 24 21 18 18 19 21 22 24 25 26 24 19
29 27 25 24 25 24 22 21 20 19 17 16 16 17 20 19 19 21 24 25 25 21 21 24 24 27 26 27 24 24 24 22 15 14 14 14 16 17 20 22 23 23 24
24 22 22 21 22 21 19 18 17 17 17 18 18 18 20 22 20 23 24 25 25 23 24 25 27 24 24 21 21 21 18 15 13 11 10 12 16 18 19 19 20 21 21
22 20 19 18 19 17 19 20 18 19 17 18 19 19 20 20 20 21 20 21 23 24 25 20 20 21 21 19 16 17 16 14 12 11 12 14 16 14 13 16 15 16 16
22 20 20 19 17 18 18 19 19 20 21 19 19 19 17 17 20 23 22 21 21 23 22 16 13 13 12 13 13 13 13 13 12 12 11 10 11 12 13 15 14 14 12
21 21 22 21 19 20 19 18 23 24 23 23 23 19 19 22 24 25 26 26 26 22 14 10 10 10 9 10 9 10 11 11 12 11 9 10 10 10 10 12 13 12 11
23 22 22 19 20 19 18 18 16 21 23 23 24 24 24 24 24 25 24 25 23 15 9 8 8 8 8 9 9 9 8 10 10 9 9 9 9 9 9 10 11 11 10
19 14 20 18 19 18 17 17 16 14 13 14 19 18 19 20 20 21 23 22 13 11 6 5 4 5 6 7 7 7 7 7 7 7 7 7 8 8 8 9 10 9 9
15 16 15 16 15 14 14 13 12 11 10 10 10 12 13 16 17 18 20 11 8 5 4 4 4 4 5 5 5 5 5 5 5 4 5 6 8 7 8 9 10 10 10
9 7 10 11 11 9 10 9 9 9 8 8 7 8 10 3 4 7 9 8 5 4 4 3 2 3 3 2 2 2 3 3 4 4 4 5 7 8 7 7 9 9 9
9 7 6 7 7 7 7 7 7 6 6 6 6 9 12 5 4 6 8 8 6 4 3 2 1 2 1 1 0 1 1 2 2 2 3 4 6 5 6 9 10 9 9
6 6 5 4 5 5 5 5 4 4 4 4 5 6 12 8 8 8 8 7 5 4 1 -1 -1 0 0 -1 -1 -1 -1 -1 0 1 2 3 3 4 6 9 8 8 9
4 4 3 3 3 2 0 1 1 1 2 2 2 3 3 2 3 4 4 5 4 2 -1 -2 -1 -1 -1 -2 -1 -0 -1 -2 -1 1 0 -0 1 2 7 8 7 7 7
4 3 3 3 2 2 1 1 2 -0 0 -0 -0 1 1 2 2 3 3 3 2 1 -3 -4 -3 -4 -4 -5 -3 -2 -1 -1 -0 0 0 0 -0 3 8 7 6 6 6
2 1 1 1 0 0 0 0 0 0 0 1 1 1 2 2 2 2 2 2 -1 -3 -5 -4 -4 -5 -6 -7 -6 -7 -5 -2 -4 -2 -1 1 4 8 7 6 5 5 5
1 1 1 0 -0 -0 -1 -0 -0 0 -0 0 1 1 2 2 2 1 1 -1 -3 -4 -7 -5 -5 -7 -7 -6 -6 -4 -3 1 0 3 7 10 10 6 1 1 1 3 2

GFSGL_sfc_temp_036.txt.gz
Temp
40 39 37 37 38 37 35 34 33 33 34 33 33 32 31 30 30 29 29 29 28 28 28 28 27 28 26 26 26 26 26 25 22 26 28 29 28 28 30 31 32 32 33
39 37 36 36 35 35 34 34 33 33 32 32 32 31 30 30 30 29 28 28 27 27 27 27 26 31 25 25 24 24 24 24 22 21 25 25 25 27 27 27 30 33 31
38 36 34 34 33 34 33 33 32 31 31 31 30 29 29 29 29 29 29 28 28 27 27 26 26 26 24 24 23 22 22 26 22 22 21 24 25 25 25 26 27 28 32
37 34 33 33 33 33 32 32 31 31 29 29 29 29 29 29 29 29 29 28 27 28 28 27 26 26 24 23 23 22 24 22 22 21 20 21 22 24 24 22 23 26 26
37 34 33 33 33 32 31 30 30 30 30 29 28 28 28 28 30 28 28 26 26 26 26 28 27 27 30 29 26 22 22 19 19 19 19 20 20 21 21 24 23 24 25
36 34 33 33 32 30 30 29 28 28 27 27 27 26 25 29 32 32 29 26 26 26 25 26 26 26 27 30 30 30 29 21 17 17 20 19 21 22 24 23 23 21 18
33 31 31 32 30 29 29 28 27 25 26 24 24 24 24 24 31 32 30 27 25 24 25 26 26 28 25 25 27 28 28 28 29 26 22 22 21 23 24 22 22 22 21
32 30 29 30 29 26 26 25 24 25 24 23 23 23 23 24 31 31 29 25 24 24 24 25 24 24 24 24 24 22 23 24 25 27 25 25 26 27 26 26 24 23 24
31 30 29 29 26 25 24 23 23 23 21 20 21 19 19 19 30 30 28 22 22 22 25 25 24 23 26 28 25 21 22 23 28 29 30 30 30 30 29 24 19 18 17
29 31 29 27 26 26 25 22 22 19 22 22 21 18 17 14 26 28 27 21 13 19 21 25 27 27 29 30 25 22 17 18 20 20 19 20 22 22 25 23 20 15 16
27 27 26 26 27 26 23 19 20 18 20 16 17 14 13 15 15 25 27 22 19 17 18 20 24 28 29 30 29 22 19 23 16 12 13 14 16 17 19 20 22 19 15
25 24 23 23 25 23 22 16 17 16 13 11 8 9 14 16 19 23 26 27 25 19 16 21 21 27 28 28 26 26 26 22 7 7 9 10 11 14 17 18 19 19 20
22 20 19 19 20 19 18 16 12 12 13 12 14 12 14 17 17 25 25 26 27 24 22 23 27 27 26 22 22 23 19 9 5 1 7 10 14 15 17 15 16 17 18
20 19 17 17 14 13 16 16 14 13 12 13 13 13 9 13 14 15 17 17 22 22 23 19 19 24 23 20 14 16 14 10 10 9 10 13 14 12 11 13 12 13 12
18 16 15 13 14 12 13 12 14 11 15 8 8 9 9 9 12 19 16 11 13 18 18 11 7 5 5 6 5 6 8 8 8 9 9 8 9 10 10 12 11 10 8
16 16 15 15 12 12 11 9 23 24 25 27 27 16 8 20 24 26 27 27 28 27 14 -2 -1 2 4 4 3 4 5 7 7 7 7 7 7 7 8 9 10 9 8
16 15 15 15 13 12 11 11 8 15 26 27 27 26 27 26 26 27 27 27 27 26 1 -4 -1 1 3 3 2 2 5 8 5 5 6 5 6 5 6 6 8 8 8
9 13 12 11 10 9 10 9 8 7 5 7 18 22 22 23 24 24 25 24 18 15 -6 -3 1 -1 2 -1 -0 -0 3 4 3 3 3 2 3 4 4 4 6 5 6
9 8 9 10 7 9 10 8 7 5 4 3 3 11 14 18 20 21 23 16 11 6 1 1 3 0 -0 -1 -6 -7 -1 0 0 -1 -0 1 2 3 3 4 6 5 7
5 9 8 8 6 6 7 5 5 4 2 1 1 3 0 -3 -7 -8 -2 -0 -5 -2 0 1 2 0 -3 -3 -10 -9 -4 -7 -7 -9 -6 -2 1 2 3 3 3 4 6
3 4 6 4 4 4 3 1 2 1 2 -1 -1 2 13 3 0 -4 -5 -4 -1 -4 -2 -1 -1 -2 -4 -5 -13 -9 -7 -4 -9 -12 -10 -2 -1 -0 1 2 3 5 7
5 3 2 1 -2 -1 -1 2 2 -2 -4 -6 -5 -3 11 2 -4 -1 2 3 0 -1 1 0 -3 -4 -4 -7 -9 -7 -9 -9 -12 -14 -10 -2 -2 -2 -1 0 2 6 6
1 -1 -5 -6 -3 -0 -4 -8 -7 -8 -10 -12 -9 -6 -10 -10 -8 -7 -6 -6 -4 -1 -2 -1 -2 -2 -3 -6 -7 -5 -8 -6 -10 -15 -7 -3 -4 -3 -3 -1 2 5 4
-7 -5 -3 -4 -5 -8 -9 -10 -10 -9 -12 -12 -15 -13 -8 -10 -11 -4 -0 2 -0 -4 -1 -1 -2 -3 -3 -7 -9 -11 -11 -7 -14 -7 -11 -4 -3 -3 -3 -0 6 5 3
-9 -8 -8 -9 -12 -12 -13 -13 -12 -15 -15 -12 -13 -11 -10 -8 -6 -4 -0 1 -1 -1 -1 -1 -3 -3 -5 -8 -8 -13 -12 -3 -6 -8 -10 -6 -5 -5 -3 4 5 2 -1
-10 -11 -12 -13 -14 -15 -16 -14 -14 -13 -13 -12 -11 -9 -9 -7 -6 -4 -2 -1 -1 -1 -2 -3 -4 -6 -7 -7 -9 -8 -7 -3 -4 -4 -5 -4 -1 4 7 3 1 -4 -5

GFSGL_sfc_temp_039.txt.gz
Temp
40 38 38 36 37 36 35 33 33 32 32 32 31 30 30 29 29 27 27 27 27 27 27 27 27 27 25 24 24 25 24 23 20 24 25 27 26 25 27 28 29 28 29
39 38 36 36 35 34 33 32 31 32 31 31 30 30 29 29 28 28 28 27 27 27 27 27 26 30 24 24 23 22 22 22 20 20 23 24 23 24 25 24 28 31 28
37 36 34 34 33 33 32 32 31 30 30 30 29 28 28 28 28 28 28 28 28 27 27 26 26 25 24 23 22 21 21 25 21 20 20 23 23 24 23 25 26 26 30
36 35 33 33 33 33 32 31 31 30 29 28 28 28 28 28 29 28 28 28 27 27 27 27 26 25 24 23 23 22 23 21 21 20 20 20 22 24 24 22 23 26 26
36 34 33 32 32 31 31 30 30 30 29 28 27 27 27 28 29 27 29 27 26 25 26 27 27 26 29 29 25 22 21 18 19 19 19 20 21 22 21 24 23 24 25
36 34 32 32 32 31 31 31 30 28 27 27 26 25 25 29 34 34 29 26 26 26 25 25 26 25 27 31 31 31 29 19 6 9 20 20 21 22 24 23 22 21 18
33 31 31 32 31 30 31 30 28 27 26 25 24 24 24 25 34 35 33 26 25 24 24 25 26 27 24 24 26 29 28 29 29 26 22 22 21 23 24 22 22 21 20
32 31 30 32 31 29 29 27 25 25 25 24 23 23 23 24 33 34 33 26 24 23 23 24 24 24 24 23 23 22 23 24 25 26 25 25 25 26 25 23 20 19 20
33 33 32 32 30 28 27 25 24 24 21 22 21 19 20 20 32 33 31 23 23 22 24 24 23 23 26 28 24 19 22 22 27 29 29 28 28 27 25 20 14 12 12
34 34 32 31 29 27 27 24 19 21 24 23 22 20 19 17 29 32 31 22 13 19 20 24 26 25 28 30 25 17 18 17 20 16 15 18 20 20 22 20 16 10 11
31 28 28 28 27 27 25 20 18 21 19 18 19 17 17 17 18 30 31 23 19 16 17 18 22 27 28 29 30 24 17 23 10 7 10 12 14 15 16 18 19 16 11
27 26 25 24 25 23 22 16 17 18 19 15 15 14 15 16 20 26 29 30 27 16 15 20 21 26 28 29 29 26 28 24 2 -0 1 8 10 12 15 16 17 17 18
24 23 22 19 20 20 20 17 17 17 19 17 16 15 14 16 16 26 27 28 29 26 22 23 26 28 29 26 24 25 20 8 3 -1 4 9 12 14 15 14 15 15 15
21 18 16 18 14 13 17 18 18 16 15 14 13 14 11 13 15 15 18 19 25 25 25 22 23 25 25 21 14 17 14 9 8 7 8 11 13 11 9 12 10 10 9
16 16 16 15 16 14 15 14 16 12 17 11 13 11 8 10 14 19 17 11 11 16 16 5 6 12 13 11 6 5 7 7 6 6 6 7 8 8 9 10 9 8 6
16 16 15 15 13 12 12 9 23 23 25 26 26 16 9 21 25 26 27 28 28 25 19 16 11 13 11 9 5 5 6 6 6 5 1 4 5 6 6 6 7 6 5
18 15 13 13 12 11 9 10 9 13 28 28 28 28 28 25 25 27 28 28 29 28 22 11 9 8 7 8 6 6 6 7 3 -0 0 1 3 3 2 3 4 5 4
10 14 13 12 11 9 8 7 6 6 6 8 18 22 22 23 24 25 26 26 19 19 9 4 7 6 5 5 5 5 4 4 -2 -2 -3 -6 -7 -2 0 0 2 2 3
9 7 8 6 5 6 6 6 4 5 5 7 9 13 13 18 19 20 21 8 4 6 2 2 2 3 3 2 2 -0 -2 -2 -4 -11 -12 -12 -9 -6 -1 -1 2 2 2
6 8 6 4 4 4 4 4 6 7 4 3 1 1 -2 -3 -6 -5 -6 -7 -5 -5 -4 -1 -2 -3 0 -1 -3 -3 -5 -5 -6 -14 -11 -11 -10 -8 -1 -1 -0 -1 -0
1 2 3 1 -0 2 5 4 4 2 -2 -5 -5 -1 12 -1 -2 -7 -10 -9 -6 -4 -1 -5 -9 -10 -5 -2 -4 -5 -5 -3 -5 -15 -12 -14 -15 -9 -6 -2 -2 -2 -0
-1 -2 -3 1 2 3 1 1 -2 -5 -9 -9 -8 -6 9 -7 -11 -13 -13 -11 -9 -4 -1 -1 -3 -3 -1 -1 -2 -2 -4 -4 -7 -17 -14 -13 -14 -10 -10 -5 -4 -3 -0
0 -0 -2 -4 -3 -2 -5 -10 -12 -13 -13 -15 -13 -9 -13 -15 -13 -11 -10 -10 -11 -9 -8 -3 -1 -3 -3 -0 -1 -1 -4 -3 -6 -15 -15 -15 -14 -13 -14 -6 -5 -4 0
-3 -5 -8 -11 -10 -12 -13 -15 -15 -12 -14 -15 -19 -16 -11 -11 -12 -11 -10 -9 -10 -11 -12 -6 -2 -1 -2 -1 -3 -5 -6 -7 -13 -15 -15 -14 -9 -10 -9 -6 -5 -3 2
-13 -12 -12 -13 -16 -15 -16 -17 -15 -18 -18 -16 -13 -15 -13 -12 -11 -11 -10 -9 -7 -10 -10 -9 -3 -2 -3 -3 -4 -6 -8 -4 -8 -12 -19 -19 -12 -12 -8 -6 -4 -2 2
-12 -13 -15 -17 -17 -18 -18 -17 -17 -16 -15 -13 -13 -13 -13 -12 -10 -10 -9 -10 -9 -11 -12 -9 -3 -3 -4 -4 -6 -5 -6 -4 -7 -7 -11 -14 -12 -9 -6 -4 1 3 2

GFSGL_sfc_temp_042.txt.gz
Temp
40 40 38 36 36 36 34 33 33 32 32 31 31 30 30 29 29 27 27 27 27 27 26 27 26 26 25 24 24 24 24 22 19 23 24 25 24 24 26 27 27 27 28
39 38 37 36 35 34 34 33 32 33 31 31 31 30 29 29 28 27 27 27 27 27 27 26 26 29 24 24 23 22 22 22 20 19 22 22 22 24 24 23 27 30 28
37 36 34 34 34 34 33 32 32 31 30 30 30 29 29 28 28 28 28 28 28 28 27 26 26 25 24 23 22 22 21 25 21 20 19 22 23 24 24 25 26 26 30
36 35 34 33 34 33 32 31 32 31 30 29 29 29 29 29 29 28 29 28 27 27 27 27 26 25 24 23 23 22 23 20 20 19 19 20 22 24 24 23 23 26 26
36 34 34 33 33 31 31 31 31 31 31 30 29 29 28 28 30 28 29 27 26 26 26 27 26 26 29 28 24 22 21 18 19 18 18 19 20 22 21 23 22 23 24
36 34 33 32 32 32 31 31 30 30 28 28 28 27 26 30 34 35 30 27 26 26 25 25 25 24 27 32 32 32 29 17 3 7 19 20 21 22 23 22 21 19 15
34 32 32 32 32 31 31 30 29 29 29 28 27 26 25 25 35 36 35 26 25 24 24 25 25 27 24 24 27 30 29 30 30 26 22 21 21 22 22 21 19 18 16
33 32 33 32 32 31 30 30 29 29 28 26 26 25 25 25 34 36 36 26 24 24 23 23 24 23 23 23 22 21 22 22 24 25 24 24 24 26 24 21 18 15 16
33 32 33 33 32 29 29 29 29 27 25 23 24 22 23 21 34 35 34 24 24 23 24 23 23 22 26 29 24 17 20 22 28 30 30 30 28 27 25 19 9 9 8
34 34 33 33 32 30 31 29 27 26 27 25 24 22 21 19 31 34 34 24 17 21 21 24 26 24 27 29 24 19 17 19 19 13 16 18 20 19 22 19 14 8 9
34 33 33 32 32 31 30 27 24 24 22 21 21 18 18 18 19 33 34 23 22 19 19 19 22 27 29 30 31 23 21 21 17 9 8 11 13 14 15 17 18 15 10
33 30 30 30 30 28 27 23 22 23 22 18 15 12 16 17 22 29 33 33 29 18 17 20 20 26 28 29 29 30 31 26 3 -1 0 7 10 11 14 16 16 16 16
29 29 29 27 26 26 25 21 19 19 21 18 17 18 18 17 17 28 29 32 32 28 23 22 26 27 28 29 30 28 22 9 3 -1 2 8 11 13 15 13 14 14 14
29 25 23 24 21 20 21 21 20 18 18 19 17 18 11 12 15 16 18 20 25 27 27 24 26 27 27 25 18 22 16 13 10 6 7 11 12 11 8 10 8 9 7
24 20 20 20 19 16 15 17 19 13 20 15 16 14 9 10 13 20 18 13 14 18 18 3 6 12 16 16 11 12 13 11 9 7 5 6 8 7 7 9 7 5 3
19 18 17 16 14 13 13 9 23 23 26 27 26 15 8 21 25 26 28 28 28 27 20 16 13 12 14 15 15 13 10 9 9 7 3 3 5 4 4 4 4 2 2
18 15 13 13 12 11 9 12 11 14 27 28 29 29 28 23 27 28 29 29 29 28 23 21 18 14 13 13 12 10 8 9 8 6 5 4 3 1 -0 -1 1 2 0
9 13 12 11 11 10 10 9 7 6 6 7 18 22 23 23 23 24 25 24 12 10 3 3 6 8 10 10 9 8 6 5 4 4 2 -0 -3 -9 -6 -4 -2 -2 -1
9 7 6 6 7 8 6 5 4 5 3 1 7 13 11 17 17 18 18 -4 -7 -8 -7 -5 -3 -0 4 3 2 1 2 0 -0 -0 -3 -7 -5 -13 -11 -6 -3 -1 -1
5 8 7 6 6 6 6 5 3 3 4 6 4 6 2 -4 -7 -11 -12 -15 -16 -15 -15 -16 -10 -10 -6 -7 -6 -4 -4 -6 -3 -3 -5 -6 -7 -10 -8 -6 -4 -3 -4
3 3 4 2 1 1 1 1 4 4 3 -2 -6 -3 11 -7 -8 -12 -14 -15 -17 -17 -13 -14 -13 -12 -6 -6 -5 -6 -6 -3 -2 -2 -5 -8 -11 -14 -15 -5 -4 -5 -4
-1 -2 -2 -3 -1 1 3 3 2 -1 -8 -8 -7 -6 9 -8 -14 -16 -17 -18 -16 -16 -13 -14 -8 -11 -6 -6 -4 -4 -4 -5 -4 -3 -7 -9 -11 -16 -19 -10 -7 -6 -6
-2 -2 -2 -1 0 -1 -4 -8 -11 -11 -12 -14 -13 -11 -14 -17 -18 -17 -17 -17 -17 -13 -11 -16 -11 -8 -11 -10 -2 -1 -3 -3 -2 -3 -8 -10 -15 -19 -22 -16 -10 -8 -7
-1 -1 -3 -8 -9 -10 -11 -13 -12 -11 -12 -15 -20 -20 -15 -17 -20 -17 -16 -14 -14 -13 -14 -13 -11 -9 -11 -11 -8 -4 -4 -3 -4 -7 -9 -11 -15 -20 -20 -18 -13 -8 -6
-7 -7 -7 -9 -13 -11 -11 -15 -14 -18 -18 -17 -17 -18 -18 -18 -18 -18 -16 -15 -13 -13 -10 -10 -12 -11 -9 -9 -6 -4 -4 -1 -2 -8 -12 -18 -18 -20 -23 -20 -12 -8 -6
-10 -9 -8 -8 -7 -10 -14 -11 -13 -15 -17 -17 -18 -19 -18 -16 -14 -15 -14 -14 -12 -11 -11 -12 -12 -10 -10 -10 -9 -6 -2 -1 -4 -5 -13 -17 -17 -18 -19 -15 -13 -8 -3

GFSGL_sfc_temp_045.txt.gz
Temp
39 39 37 36 38 36 36 34 33 33 32 32 32 31 31 30 29 28 28 27 28 27 26 27 27 26 25 24 24 24 23 23 18 22 23 24 23 23 26 26 27 27 28
39 38 37 36 35 35 34 34 33 33 32 32 31 31 31 30 29 29 28 28 27 27 27 27 26 28 24 24 23 23 23 22 20 18 21 21 21 23 23 23 27 30 28
37 37 35 35 35 34 33 33 33 32 31 31 31 31 30 30 29 28 29 28 28 28 27 26 26 25 23 22 22 21 21 25 21 19 19 21 22 24 24 25 25 26 29
37 36 34 34 35 35 34 32 33 32 31 31 31 31 31 30 30 30 29 28 28 28 28 27 26 24 24 23 22 22 22 20 20 19 19 19 21 24 23 22 22 25 25
36 35 35 34 35 33 31 32 32 31 32 32 30 30 30 31 31 30 30 27 27 26 26 27 26 25 30 27 23 21 21 18 18 17 18 19 19 21 20 22 21 22 23
36 35 35 33 33 32 32 32 31 31 30 30 29 29 29 32 35 36 31 28 27 26 25 24 25 24 28 32 33 33 27 17 8 8 19 19 20 21 22 21 20 18 15
34 33 32 33 32 32 32 31 31 30 30 29 29 29 29 30 36 37 36 28 26 25 25 26 25 26 23 24 28 32 31 32 31 24 21 22 21 22 22 21 20 17 16
33 32 32 33 32 31 31 30 30 29 28 29 28 29 29 28 36 37 36 27 25 25 25 25 24 24 24 23 22 21 22 22 23 25 24 23 24 25 24 22 18 12 15
32 32 32 33 31 30 29 28 28 28 26 26 28 26 25 27 35 37 36 26 26 25 25 24 23 23 26 30 24 18 19 21 27 31 32 31 30 29 27 19 1 -2 7
33 33 33 33 32 30 30 28 28 28 27 26 26 26 25 27 33 36 35 25 22 24 23 24 26 25 28 30 25 16 16 20 20 17 19 20 22 19 23 19 13 0 7
33 32 32 32 31 31 29 28 27 27 26 25 25 25 24 24 24 35 36 26 26 22 22 22 23 29 31 32 32 23 21 23 20 19 14 13 13 14 15 16 17 15 9
31 31 31 31 30 30 29 28 27 27 26 25 23 22 21 21 24 31 35 36 30 21 21 22 21 27 29 30 30 31 32 31 13 7 2 7 10 11 13 15 16 16 16
32 31 31 31 30 30 30 28 26 26 25 24 22 23 22 19 20 30 30 34 35 31 23 24 27 28 29 29 31 32 28 17 13 9 10 10 12 13 15 13 13 13 13
30 29 29 29 27 27 28 26 26 24 23 23 21 22 18 15 16 17 19 20 26 28 27 24 27 29 28 27 22 23 22 17 14 12 10 11 12 10 7 10 7 8 5
27 24 25 25 24 22 20 21 23 18 24 20 19 17 13 12 14 20 17 10 9 17 17 3 6 13 18 19 19 18 18 15 13 12 10 7 7 7 7 7 6 0 -0
22 21 22 21 19 19 18 13 25 25 29 29 26 18 10 22 25 26 28 28 28 27 17 13 15 16 16 16 15 15 12 13 13 11 8 4 4 5 4 3 5 -0 -1
21 19 17 17 16 15 14 17 14 17 28 29 29 29 25 22 27 28 28 28 27 26 20 12 11 10 11 12 12 12 12 10 12 9 7 4 0 -0 -1 -4 0 0 -2
14 14 13 11 11 10 11 11 12 12 12 8 23 24 25 25 24 24 24 15 6 7 3 -1 -5 -3 1 5 7 7 6 7 6 5 4 2 -1 -2 -8 -5 -2 -9 -6
12 9 8 7 6 8 8 6 6 6 4 2 5 11 10 19 19 18 13 -3 -11 -12 -14 -13 -14 -13 -11 -10 -5 -4 -2 0 0 -2 -3 -2 -4 -6 -8 -5 -4 -3 -3
7 9 7 5 4 4 5 4 3 3 2 3 2 2 2 3 -0 -2 -13 -16 -18 -18 -19 -19 -18 -20 -19 -16 -13 -10 -11 -11 -8 -6 -4 -4 -5 -5 -5 -6 -6 -6 -11
2 2 3 1 0 -0 0 2 2 1 1 -2 2 5 9 -0 -6 -12 -14 -16 -18 -20 -19 -20 -19 -20 -18 -17 -16 -16 -17 -13 -12 -5 -4 -6 -7 -9 -6 -5 -6 -10 -7
-2 -4 -2 -3 -1 -0 -2 -1 -2 -1 -1 -0 -1 0 9 -7 -12 -14 -17 -20 -20 -22 -20 -22 -19 -19 -17 -16 -13 -13 -14 -12 -12 -4 -3 -5 -7 -7 -8 -9 -10 -13 -10
-2 -3 -4 -6 -5 -4 -6 -9 -8 -7 -7 -7 -10 -8 -12 -16 -18 -19 -19 -21 -22 -19 -19 -22 -20 -16 -16 -19 -17 -9 -7 -11 -8 -3 -4 -6 -6 -7 -11 -14 -19 -22 -17
-4 -4 -5 -8 -9 -10 -10 -12 -8 -9 -13 -15 -18 -19 -15 -18 -21 -19 -19 -19 -21 -20 -22 -21 -19 -16 -16 -17 -20 -16 -11 -9 -11 -5 -5 -6 -6 -8 -12 -20 -22 -20 -14
-9 -7 -8 -10 -12 -11 -10 -13 -11 -16 -18 -16 -18 -18 -18 -20 -20 -20 -21 -20 -21 -21 -16 -15 -16 -15 -13 -12 -13 -15 -15 -4 -7 -6 -7 -9 -9 -14 -23 -24 -23 -21 -16
-12 -10 -13 -13 -14 -15 -11 -10 -15 -14 -15 -16 -17 -19 -18 -16 -16 -19 -18 -19 -17 -16 -16 -15 -15 -15 -13 -12 -12 -9 -8 -3 -4 -3 -7 -10 -15 -19 -24 -22 -23 -18 -14

GFSGL_sfc_temp_048.txt.gz
Temp
41 39 38 41 42 40 39 38 38 36 32 32 32 32 31 31 30 30 29 29 29 28 27 28 27 27 25 24 25 24 23 23 19 22 23 23 23 24 25 25 26 26 27
39 38 37 38 39 39 39 38 36 36 33 33 32 32 31 31 30 30 30 29 28 28 28 27 26 28 24 24 23 23 23 22 21 19 21 21 22 23 23 22 27 30 28
37 37 35 35 37 38 37 37 36 34 33 31 32 32 31 31 30 31 31 30 29 30 29 27 26 25 23 22 22 21 22 25 21 19 18 21 21 22 23 24 25 25 29
37 36 34 35 36 37 37 35 35 33 32 31 32 32 32 31 32 32 32 30 30 30 29 28 26 25 24 23 22 21 22 20 20 19 18 19 19 22 22 21 22 25 24
36 35 35 35 36 37 35 34 34 32 33 33 31 31 31 32 32 32 32 30 29 28 27 28 27 26 30 27 24 21 21 18 19 17 18 17 18 19 19 21 20 22 23
36 35 36 34 34 34 33 33 32 32 31 31 30 30 30 32 36 36 32 30 29 28 26 26 27 26 29 33 33 32 26 18 8 10 19 18 20 20 21 20 20 19 16
36 34 33 33 32 33 33 32 32 31 31 30 30 30 30 30 37 37 36 29 29 28 27 27 27 27 24 24 31 34 33 34 31 22 20 21 20 21 22 20 20 18 17
34 33 32 32 32 32 31 32 32 31 30 30 29 30 30 30 37 38 35 28 28 28 27 27 27 26 25 24 23 22 23 23 25 26 24 23 23 24 23 23 18 12 16
33 32 32 33 31 31 31 31 31 29 29 28 27 27 27 27 37 35 33 29 28 27 27 27 26 25 28 32 25 20 20 22 27 31 32 32 32 30 27 17 3 -1 9
32 32 32 33 32 31 31 30 29 29 28 27 27 27 27 27 34 34 33 29 26 26 26 27 27 27 30 31 27 20 18 20 20 19 21 24 25 21 24 21 15 2 6
30 30 30 31 32 32 30 29 28 27 26 26 26 25 26 27 27 33 35 29 29 27 26 24 25 31 33 33 32 24 22 24 20 23 17 17 16 16 17 18 18 16 10
28 27 29 30 30 30 29 28 28 27 26 25 25 25 24 24 26 31 36 37 33 27 24 25 24 29 31 32 31 32 32 32 24 13 11 11 12 13 15 16 17 17 17
28 28 30 30 30 30 29 28 27 27 27 26 24 25 24 22 23 31 31 36 36 32 27 26 28 29 31 30 32 32 30 25 18 13 10 12 14 16 16 15 15 14 13
31 31 30 30 30 30 31 29 29 27 26 26 24 25 24 19 20 20 24 26 30 31 29 21 27 29 28 27 21 24 22 21 19 17 16 16 15 12 10 11 6 6 2
29 27 28 28 28 27 25 27 26 24 28 26 26 25 20 18 20 23 21 16 16 19 11 5 8 10 11 12 13 18 19 20 17 16 14 11 11 10 9 9 6 -1 -5
23 23 24 24 23 22 21 19 28 27 31 31 29 23 15 24 27 28 28 28 26 26 9 6 8 10 14 15 14 13 11 11 11 11 9 10 9 8 7 5 4 -4 -6
21 20 19 18 19 18 18 18 18 23 31 30 28 27 25 24 28 28 29 29 26 23 13 7 6 3 3 6 6 6 7 8 8 6 7 5 7 5 3 -1 -1 -1 -7
15 15 15 14 15 14 15 15 17 18 15 12 27 27 29 28 28 27 25 19 10 9 6 5 3 1 -3 -3 -2 -2 -2 -0 -0 1 1 -0 -0 -1 -4 -7 -4 -7 -5
13 11 11 11 11 12 11 10 9 9 9 7 9 13 14 24 23 19 14 5 3 0 -3 -8 -13 -14 -14 -15 -15 -14 -12 -9 -8 -11 -11 -9 -6 -6 -8 -4 -3 -1 -2
7 9 6 6 5 5 6 5 4 3 3 4 1 -3 -4 1 -1 -4 -4 -5 -3 -5 -7 -16 -19 -23 -22 -22 -21 -20 -18 -18 -17 -18 -16 -11 -6 -5 -4 -6 -5 -4 -4
3 3 3 2 -0 -1 -1 1 1 0 -0 -3 -3 1 9 3 1 -4 -9 -12 -13 -18 -19 -21 -22 -24 -25 -24 -24 -21 -21 -16 -20 -19 -17 -14 -10 -13 -6 -4 -4 -4 -5
-1 -3 -2 -4 -2 -1 -3 -2 -2 -2 -2 1 1 3 10 -0 -4 -6 -8 -16 -20 -21 -23 -23 -23 -24 -23 -21 -20 -19 -19 -17 -20 -20 -16 -15 -14 -12 -8 -6 -6 -6 -7
-2 -2 -4 -6 -5 -5 -5 -5 -1 -2 -2 -3 -4 -2 -6 -10 -8 -10 -14 -20 -22 -21 -24 -26 -24 -21 -21 -21 -19 -14 -13 -13 -13 -17 -14 -16 -14 -10 -8 -8 -8 -11 -15
-5 -5 -5 -9 -7 -8 -8 -11 -9 -7 -6 -9 -13 -12 -9 -11 -15 -17 -19 -22 -22 -23 -26 -25 -22 -19 -18 -18 -21 -22 -19 -15 -19 -14 -11 -11 -12 -8 -8 -10 -11 -17 -19
-10 -9 -10 -11 -13 -13 -13 -13 -12 -14 -14 -11 -10 -11 -12 -14 -14 -15 -14 -20 -22 -23 -18 -19 -19 -18 -15 -15 -16 -19 -18 -7 -14 -13 -17 -16 -16 -14 -18 -22 -24 -25 -23
-14 -14 -16 -16 -17 -18 -16 -13 -14 -10 -9 -7 -9 -11 -11 -11 -11 -16 -17 -20 -18 -17 -17 -17 -17 -16 -15 -14 -14 -11 -10 -5 -8 -8 -12 -13 -15 -18 -23 -23 -26 -23 -19

GFSGL_sfc_temp_054.txt.gz
Temp
52 54 53 54 54 54 52 51 49 46 47 45 41 41 40 41 44 47 45 44 43 42 43 42 40 41 41 39 37 38 40 42 40 38 40 39 38 39 39 40 39 39 40
52 53 52 53 53 52 50 48 46 45 46 44 40 39 39 40 40 45 43 42 42 40 40 40 39 37 37 35 36 37 39 40 39 35 37 37 36 39 38 37 36 37 38
51 51 50 50 51 50 50 48 46 47 45 43 40 39 38 38 38 41 43 42 41 41 40 40 38 36 32 32 34 37 38 35 36 35 35 35 35 36 36 37 37 37 37
50 49 48 49 49 50 49 46 43 45 41 40 39 38 38 37 37 38 40 40 40 39 39 39 36 34 31 32 33 35 35 34 33 32 32 33 34 35 33 32 32 37 35
48 47 47 47 49 49 47 43 41 41 40 39 37 37 36 36 36 36 37 37 37 36 36 35 35 33 33 33 34 34 33 32 31 31 31 32 32 32 30 33 31 33 34
47 46 48 46 43 42 41 40 38 38 36 35 35 35 34 36 39 39 37 35 35 35 34 34 32 30 31 34 36 36 35 31 29 30 31 30 31 32 32 31 30 28 26
42 40 39 39 38 39 39 38 37 37 36 34 34 35 34 35 38 39 37 34 34 34 34 33 30 29 29 33 36 36 35 35 35 32 29 31 31 33 32 29 29 28 27
38 37 37 37 36 37 37 36 36 36 34 33 33 33 33 33 38 38 33 32 33 34 34 31 31 29 30 30 31 31 32 33 34 34 33 32 33 34 32 31 29 28 28
38 37 37 36 35 35 34 35 36 34 33 32 32 31 31 32 36 35 32 31 30 31 31 30 30 29 33 34 30 28 29 30 33 35 35 36 36 35 34 31 26 22 22
37 37 36 35 34 33 34 34 34 34 32 31 30 30 29 30 34 34 32 30 28 29 29 30 29 29 31 34 32 28 26 28 29 28 28 30 32 32 33 30 29 23 23
35 34 34 34 33 34 33 34 32 31 29 28 27 28 28 31 33 35 35 31 31 31 32 30 29 31 32 31 36 31 30 32 30 29 27 27 28 28 28 28 26 24 22
32 32 31 31 32 32 31 31 31 30 28 27 26 26 28 28 32 35 36 34 34 33 32 31 30 31 32 32 34 35 35 34 31 30 27 27 26 26 26 25 24 24 24
29 28 29 31 31 31 31 30 30 30 29 28 27 27 27 28 30 34 35 36 36 33 33 31 31 31 32 34 35 35 33 32 30 28 27 27 26 25 24 22 23 22 21
29 29 30 30 30 31 32 32 31 30 29 29 29 29 29 29 30 31 32 34 34 33 33 32 32 33 32 32 29 32 31 30 28 27 25 24 24 22 21 21 19 19 16
31 30 31 31 31 31 32 32 32 33 34 32 32 33 31 28 29 30 30 30 31 32 26 26 26 26 26 26 26 26 26 25 24 24 22 21 20 20 19 20 17 15 12
30 30 31 31 31 30 29 28 32 33 33 33 34 33 31 31 32 32 32 32 31 31 24 25 25 26 25 25 23 23 22 19 20 19 18 18 17 16 15 16 16 12 10
30 28 27 27 28 27 27 28 26 30 31 31 32 31 30 30 32 32 33 32 31 30 25 23 25 24 23 21 19 17 16 16 13 15 15 14 13 12 11 11 11 10 8
25 25 29 28 28 27 27 27 29 29 26 26 29 29 30 31 31 32 32 27 22 22 22 21 19 18 17 15 13 13 13 12 12 12 11 10 9 8 8 8 8 5 5
23 23 24 23 24 24 25 25 26 26 25 23 24 23 27 25 24 23 23 22 19 17 15 15 15 13 12 11 10 9 8 8 8 7 7 6 6 6 5 5 5 3 2
17 16 20 21 21 21 22 22 22 22 22 22 23 19 18 20 19 14 13 13 15 14 13 12 9 7 7 6 5 5 5 4 5 5 5 5 5 5 4 3 3 3 3
17 15 14 18 18 19 19 20 20 20 19 18 17 15 14 17 14 13 11 10 10 10 8 8 5 4 3 3 3 3 3 6 4 3 3 3 2 2 3 3 3 2 1
13 13 14 13 14 14 14 16 16 16 15 14 13 14 16 13 12 10 9 7 6 5 5 5 4 4 3 2 3 3 3 3 3 2 2 0 0 1 0 1 0 1 0
12 11 10 9 10 8 11 11 12 12 13 13 12 11 10 9 8 8 7 5 3 3 1 0 1 1 1 -1 1 2 2 2 3 2 1 0 -0 0 -0 -0 -0 -2 -2
9 9 8 7 7 8 8 8 7 4 7 7 7 7 7 5 5 4 4 4 2 1 -0 -1 -2 -1 0 -1 -1 -1 -2 -1 1 -1 -2 -1 -1 -1 -2 -2 -2 -3 -3
5 5 4 4 4 4 6 4 4 4 4 4 4 3 4 3 2 2 2 1 -1 -0 -0 -2 -2 -2 -2 -3 -3 -3 -2 -1 -1 -3 -3 -4 -3 -3 -4 -4 -3 -3 -5
3 3 2 3 3 3 3 4 3 3 3 3 3 2 2 2 2 2 1 -1 -2 -2 -2 -1 -1 -3 -3 -2 -3 -3 -3 -3 -5 -6 -3 -3 -4 -4 -4 -6 -7 -6 -6

GFSGL_sfc_temp_057.txt.gz
Temp
59 58 57 58 59 59 57 57 56 56 54 50 48 46 44 43 44 44 41 42 42 43 43 41 40 40 40 39 38 37 36 37 34 34 39 38 37 36 37 35 37 37 37
58 56 55 57 57 56 56 56 55 53 51 49 47 44 44 43 42 42 41 41 41 40 40 39 38 40 38 37 36 35 35 35 34 33 35 35 34 36 36 34 35 36 36
57 55 54 54 54 54 54 54 53 51 47 45 43 41 41 41 39 41 41 40 40 39 40 39 37 36 34 34 34 34 34 33 33 33 33 34 34 35 33 34 34 35 36
55 53 52 52 53 54 54 52 50 48 44 43 40 40 41 40 38 39 38 38 38 39 38 39 37 36 34 33 33 33 32 31 31 31 32 32 33 34 32 29 30 33 33
54 52 51 51 52 53 50 48 47 45 44 42 39 38 38 38 38 38 38 37 36 35 35 35 36 36 36 35 33 31 31 31 30 30 30 31 31 30 29 31 30 30 32
53 50 51 48 45 44 44 42 40 39 39 38 36 36 36 37 40 40 38 35 35 34 32 33 32 32 35 36 36 35 34 29 29 30 30 29 30 31 31 30 29 27 25
46 41 40 41 40 40 40 39 38 38 38 35 35 35 35 35 39 40 38 35 34 33 33 32 30 31 31 31 33 33 33 37 36 32 29 31 30 32 31 30 29 27 26
40 37 37 38 37 37 37 37 37 37 35 35 34 34 34 33 39 39 37 33 32 31 32 31 31 29 30 31 29 29 30 32 33 33 31 31 32 32 31 30 28 27 28
39 38 37 37 35 36 35 35 36 35 34 33 33 32 31 31 38 38 34 31 29 29 30 31 32 30 32 32 28 27 28 30 34 35 35 37 37 37 36 30 25 24 23
38 38 37 35 34 33 34 34 34 34 32 31 30 31 30 31 36 36 33 30 28 28 29 31 31 32 34 34 29 27 25 28 28 27 28 31 33 32 34 31 28 24 24
35 34 34 34 33 34 33 33 33 31 30 29 28 29 30 33 34 36 34 30 30 28 29 30 30 34 34 34 33 29 29 30 30 29 27 27 27 27 27 27 28 26 23
32 32 31 31 33 33 31 32 31 29 28 28 27 27 28 31 32 35 35 32 32 30 30 31 32 34 35 34 33 33 33 31 30 28 28 27 27 26 26 26 25 25 25
29 28 30 31 31 32 31 30 30 30 29 27 27 27 27 28 31 34 35 34 34 32 34 34 34 35 34 34 34 34 31 32 30 28 28 27 25 24 24 22 23 21 21
29 29 30 30 31 31 32 32 31 31 30 28 28 28 28 27 29 31 32 34 33 34 34 33 33 33 33 32 30 32 31 30 29 27 25 23 23 21 20 21 17 17 14
30 30 30 31 31 31 32 32 32 32 33 31 32 32 30 28 30 32 33 32 33 34 32 31 31 30 29 28 27 27 28 26 24 24 22 21 20 20 19 19 16 13 9
31 31 32 31 31 30 29 29 34 34 34 35 35 34 32 34 35 34 34 35 34 34 28 28 27 27 27 26 25 23 22 21 21 19 19 18 17 16 14 13 11 7 6
31 30 30 29 29 29 28 29 26 29 32 32 32 32 31 31 32 33 33 33 33 32 25 26 26 26 25 24 22 20 19 17 15 15 15 13 13 12 9 7 7 6 2
30 31 31 30 30 30 30 29 29 27 26 25 30 30 32 32 32 33 33 31 25 26 24 23 23 23 22 20 17 15 14 12 12 12 12 10 7 5 3 2 3 -1 -1
27 27 28 28 28 27 28 28 29 28 26 24 24 25 27 29 28 27 27 24 22 19 17 17 17 16 14 14 13 11 11 11 10 7 6 2 1 0 -2 -0 1 0 -1
20 21 24 24 24 24 24 24 24 24 24 25 25 20 19 20 20 15 15 16 15 15 14 12 11 11 10 9 8 7 5 2 3 2 2 1 -0 -1 -2 -4 -4 -4 -4
19 18 20 21 21 21 22 22 22 22 21 22 18 17 18 18 15 14 11 11 11 10 8 8 5 5 4 4 4 3 3 5 3 1 0 -1 -3 -6 -4 -1 -4 -5 -6
17 16 16 16 16 15 16 17 17 17 16 16 14 16 16 14 13 11 10 7 5 5 4 4 3 1 -0 -0 1 3 2 0 1 -1 -0 -5 -6 -6 -7 -5 -6 -5 -6
15 14 13 13 13 13 12 12 12 13 13 13 12 11 10 8 7 7 6 3 2 1 -1 -1 -0 -3 -2 -4 -1 -0 -0 -0 0 -1 -1 -4 -7 -8 -8 -8 -8 -9 -10
12 11 10 9 8 8 9 8 8 5 7 7 7 7 6 4 4 2 1 2 0 -1 -2 -5 -5 -5 -5 -5 -5 -6 -6 -4 -1 -4 -5 -6 -9 -8 -10 -10 -9 -10 -9
8 7 6 6 5 6 7 6 6 4 4 4 4 4 3 2 1 1 0 -1 -4 -3 -4 -5 -5 -6 -6 -8 -7 -6 -2 1 -3 -4 -7 -9 -11 -12 -13 -13 -13 -12 -11
6 6 5 5 5 4 4 4 4 4 2 3 3 2 1 1 0 0 -1 -3 -5 -5 -6 -4 -4 -5 -6 -5 -6 -5 -3 0 -3 -2 -5 -5 -7 -10 -12 -13 -16 -14 -14

GFSGL_sfc_temp_060.txt.gz
Temp
51 51 50 49 50 51 51 50 49 49 48 47 46 46 45 44 44 44 42 42 42 41 39 39 38 37 36 36 35 34 34 33 31 31 33 34 34 34 34 33 33 33 33
50 50 48 49 49 49 49 49 48 47 45 43 41 39 39 39 41 42 40 42 40 39 38 37 36 38 35 35 35 33 33 34 33 30 31 31 32 33 33 31 33 35 33
49 48 47 47 47 47 48 48 47 46 43 41 40 39 36 39 38 41 41 40 41 40 39 38 36 35 33 33 33 33 32 33 32 31 29 31 32 32 30 31 30 30 34
48 47 45 45 46 46 47 46 45 44 40 38 37 38 37 37 36 39 38 38 38 38 38 38 36 36 34 33 32 31 31 30 29 29 29 30 30 31 30 28 28 30 30
47 46 47 44 45 45 44 42 41 39 39 37 35 35 35 36 37 37 38 37 37 35 35 35 35 34 36 36 33 30 30 29 29 28 28 29 29 29 28 29 28 29 29
47 46 46 42 40 40 40 39 38 36 35 34 33 36 35 37 40 40 38 36 36 35 33 33 33 33 36 37 37 37 34 30 27 27 27 28 29 30 30 29 28 25 22
41 36 36 37 37 38 37 36 35 34 33 32 33 34 34 34 39 39 38 35 35 34 33 32 30 32 32 34 37 38 36 37 33 30 28 30 29 31 31 29 28 26 25
34 33 31 35 33 32 33 33 33 32 31 30 31 33 32 32 38 39 37 33 33 33 33 31 31 30 31 31 31 30 30 31 32 31 31 30 31 32 31 30 26 21 23
35 34 33 31 30 31 29 30 30 29 27 26 32 31 31 31 38 39 36 32 31 30 30 31 32 31 33 34 30 29 28 29 33 34 35 35 36 36 34 28 20 17 21
34 34 33 30 28 27 29 28 26 26 30 31 30 31 31 31 37 38 34 31 28 28 29 30 31 32 34 35 29 28 26 27 27 27 29 32 33 33 36 31 22 22 24
29 28 28 28 27 28 27 25 24 25 29 29 28 28 29 31 34 37 35 31 29 28 28 29 31 35 35 36 33 29 29 30 29 27 26 26 27 26 25 26 26 22 20
26 26 24 23 27 26 25 23 23 22 26 27 26 26 28 29 33 36 34 32 33 29 28 29 30 35 35 36 35 33 34 32 28 26 25 24 24 24 24 23 24 23 23
24 24 24 24 26 25 25 23 23 22 24 26 26 25 25 27 29 33 34 34 33 30 30 31 32 34 36 35 36 35 33 31 28 26 25 26 25 23 23 21 22 21 20
23 24 28 29 25 23 25 25 25 24 24 25 26 26 26 26 27 30 32 32 32 31 33 33 34 34 35 34 30 33 31 29 29 28 25 22 21 19 17 19 13 12 6
24 27 29 29 29 26 26 26 28 28 28 25 25 26 24 22 24 30 32 31 32 32 32 31 31 30 29 27 26 26 27 25 24 23 19 18 19 19 19 17 13 5 1
28 26 28 29 28 28 30 30 35 35 36 36 36 33 30 32 34 34 35 35 35 35 29 27 26 24 25 24 23 20 20 20 18 17 17 17 16 16 14 12 10 1 -2
29 28 28 27 27 26 26 26 25 29 33 33 33 33 33 33 34 35 35 35 35 33 23 23 20 19 18 20 19 17 15 14 13 14 13 12 12 11 8 8 7 3 -4
30 29 29 28 28 28 28 26 26 24 22 22 30 30 33 33 33 33 34 30 21 24 23 22 22 21 16 15 12 9 9 7 9 11 10 8 6 4 1 -1 -1 -8 -8
25 25 26 25 26 26 26 26 26 24 22 22 21 23 25 30 29 28 27 17 11 6 6 7 5 4 3 3 3 4 7 7 6 6 4 1 -0 -2 -5 -4 -3 -3 -7
20 22 22 21 21 20 20 21 21 20 21 22 16 15 14 15 9 7 10 9 7 1 0 -2 -3 -3 -4 -3 -3 -1 -3 -3 -2 -1 -2 -1 -4 -4 -6 -7 -10 -10 -13
18 18 19 18 17 18 18 18 18 18 18 14 13 16 22 11 7 3 2 2 1 -1 -1 -2 -4 -4 -4 -4 -6 -8 -9 -7 -8 -8 -9 -8 -7 -10 -10 -5 -12 -14 -14
15 14 14 13 13 13 13 14 14 13 11 10 10 12 16 8 5 3 -2 -7 -9 -9 -8 -6 -6 -8 -11 -12 -12 -12 -12 -12 -13 -12 -11 -12 -13 -11 -10 -11 -11 -9 -14
14 12 12 11 11 10 9 8 8 8 7 6 4 3 2 -2 -4 -5 -8 -10 -10 -11 -12 -13 -13 -13 -14 -14 -14 -12 -11 -12 -12 -11 -13 -14 -15 -14 -12 -9 -10 -13 -15
11 10 8 8 7 7 6 4 4 2 1 1 -2 -4 -2 -7 -9 -9 -11 -13 -12 -15 -15 -15 -15 -14 -15 -15 -15 -15 -14 -14 -15 -13 -12 -12 -12 -8 -11 -11 -9 -9 -8
7 6 6 4 4 3 3 2 -0 -2 -6 -6 -9 -7 -9 -9 -10 -12 -13 -13 -13 -14 -13 -14 -14 -12 -11 -10 -11 -12 -10 1 -9 -9 -15 -16 -16 -12 -11 -11 -11 -12 -12
5 4 3 2 1 -1 -2 -3 -8 -7 -7 -7 -9 -11 -10 -10 -11 -12 -12 -13 -13 -13 -14 -13 -10 -8 -7 -6 -6 -4 -3 1 -2 -2 -9 -10 -12 -11 -12 -11 -12 -11 -13

GFSGL_sfc_temp_063.txt.gz
Temp
49 49 48 49 49 49 50 51 49 47 48 47 46 47 47 47 47 47 47 46 44 44 44 43 43 44 43 40 36 35 35 34 31 31 33 34 34 35 33 32 34 34 34
48 48 48 47 47 47 48 47 47 47 46 47 45 44 45 46 45 46 44 44 43 42 42 41 41 39 38 37 35 34 36 34 32 29 30 31 31 31 31 31 33 35 32
47 47 46 46 45 47 47 46 46 45 44 42 41 41 39 40 41 43 44 42 42 42 42 40 40 37 35 34 35 34 33 33 32 30 29 30 30 30 30 31 31 31 33
46 45 45 46 46 46 45 45 44 44 42 40 39 39 37 36 38 39 40 40 40 40 40 40 38 36 36 33 33 33 32 31 30 31 29 30 30 30 31 30 28 29 31
46 45 46 45 43 44 42 41 41 40 40 38 36 35 35 35 38 37 36 38 37 37 36 36 36 36 36 35 34 31 31 30 30 30 28 29 29 29 29 28 28 29 28
45 44 45 42 39 39 39 39 38 37 36 35 34 34 33 37 41 40 38 35 35 35 33 33 33 33 35 37 38 37 35 30 28 28 28 28 27 29 29 29 28 26 23
40 38 36 36 36 37 37 37 36 35 34 34 33 32 32 33 40 40 39 34 34 34 33 32 31 33 33 34 37 37 37 39 38 32 29 28 28 29 30 28 27 27 25
35 34 34 32 32 31 31 33 34 33 31 30 29 29 29 32 39 39 38 33 33 33 33 32 32 31 33 32 31 32 31 32 33 32 31 30 30 31 31 29 28 27 25
35 35 34 32 29 29 28 28 28 27 26 26 28 28 32 31 38 39 37 32 31 31 32 32 32 31 33 33 30 29 29 30 33 34 33 33 34 35 32 28 22 23 19
33 34 33 29 26 26 28 26 25 25 27 30 30 31 31 31 37 38 34 31 29 29 29 30 31 31 34 34 31 30 28 29 29 29 30 33 33 32 35 30 27 22 24
28 27 27 27 25 25 24 24 22 26 29 29 29 28 29 30 33 38 35 30 29 28 28 29 31 34 35 35 33 31 30 30 30 28 27 27 27 27 27 27 27 25 18
24 24 22 21 25 24 23 19 20 24 28 27 27 27 28 29 33 36 34 32 32 28 28 29 31 35 35 35 33 34 34 32 28 27 25 25 25 25 26 26 25 25 24
22 25 23 22 23 22 24 22 21 23 27 25 26 26 26 28 30 35 34 33 33 29 30 31 33 35 36 35 36 35 32 32 26 24 24 24 25 26 25 23 22 21 20
27 27 27 26 23 20 23 23 22 21 25 25 25 25 25 25 26 29 32 32 32 31 32 32 33 33 34 33 31 34 33 32 29 26 25 22 22 21 19 19 16 15 12
27 27 28 28 24 22 25 28 27 27 28 24 22 23 21 21 22 31 32 31 31 31 31 30 30 30 29 30 30 29 27 23 25 21 20 19 20 19 18 17 15 11 10
26 27 27 28 26 27 30 30 35 35 36 35 34 30 28 30 33 34 34 34 35 34 30 29 28 29 28 28 26 21 20 20 19 19 18 18 17 17 14 14 12 8 7
28 27 27 26 26 27 27 27 26 30 34 34 34 34 34 35 35 35 35 35 36 34 26 26 26 25 24 23 20 17 15 15 14 16 15 13 13 13 12 11 10 7 1
28 28 27 26 26 26 26 25 24 21 22 24 31 32 34 34 33 34 34 29 22 23 24 23 22 22 21 16 13 10 9 10 10 9 10 10 9 8 5 5 5 -2 -4
27 26 27 27 26 27 27 25 22 21 21 19 21 23 22 27 26 26 25 17 14 12 10 11 10 8 4 6 6 5 5 6 7 6 4 3 3 1 -3 -2 0 0 -4
23 24 24 24 23 23 23 22 20 21 19 15 14 13 11 12 8 7 7 5 4 -2 -6 -3 -5 -4 -4 -1 1 3 2 3 6 4 2 -1 -6 -5 -6 -10 -8 -8 -10
19 19 19 18 18 18 19 18 18 17 15 13 11 19 17 8 4 1 -1 -2 -2 -5 -5 -8 -8 -7 -8 -8 -8 -6 -4 -2 -8 -12 -13 -13 -15 -14 -14 -7 -12 -11 -10
16 15 15 15 15 15 14 14 13 12 11 10 8 13 15 5 2 -0 -6 -10 -13 -12 -14 -12 -13 -13 -14 -13 -14 -15 -15 -15 -18 -16 -14 -15 -14 -14 -13 -11 -11 -11 -11
14 14 13 12 11 10 10 10 9 8 6 5 5 4 1 -3 -5 -6 -8 -12 -13 -14 -17 -17 -16 -15 -19 -19 -18 -15 -14 -14 -11 -11 -10 -13 -14 -12 -13 -9 -11 -14 -15
12 11 10 8 9 8 7 5 5 4 3 1 -1 -4 -3 -8 -10 -9 -12 -14 -15 -19 -19 -18 -17 -17 -18 -19 -20 -20 -19 -16 -18 -10 -7 -9 -10 -10 -9 -10 -13 -13 -10
9 8 7 6 6 5 4 3 1 -0 -1 -1 -6 -5 -9 -10 -11 -13 -15 -16 -17 -17 -16 -17 -18 -17 -16 -15 -16 -17 -15 -2 -12 -10 -10 -9 -6 -7 -6 -7 -8 -9 -12
6 5 4 4 3 2 1 0 -1 -2 -5 -7 -8 -12 -11 -11 -13 -15 -16 -17 -16 -16 -18 -18 -18 -16 -14 -12 -12 -9 -6 -0 -1 -1 -8 -7 -7 -8 -9 -8 -8 -8 -14

GFSGL_sfc_temp_066.txt.gz
Temp
48 48 47 48 48 48 48 49 48 47 47 47 47 49 49 49 49 49 50 49 46 46 46 45 44 45 44 42 42 41 39 39 38 31 34 34 34 34 36 36 36 36 35
49 48 47 47 47 46 47 48 46 47 45 47 45 47 48 48 47 47 47 46 44 44 44 43 43 43 43 42 40 37 39 37 35 30 30 30 31 34 33 32 34 35 34
47 46 46 46 45 46 47 45 45 45 44 43 42 43 44 45 45 45 46 45 44 44 44 42 43 42 39 39 37 37 36 35 33 31 28 30 29 30 29 31 31 32 34
46 45 44 46 47 46 45 44 43 43 43 41 40 42 41 42 42 43 42 42 41 42 42 41 41 38 39 36 35 35 34 32 31 31 28 27 30 30 31 31 29 29 31
45 44 45 45 44 43 42 41 40 40 41 40 38 37 37 36 37 37 38 38 39 39 37 37 38 37 37 37 34 33 33 33 31 29 27 28 28 28 30 28 30 30 28
41 41 41 39 39 38 38 37 37 37 37 36 35 35 34 37 40 40 38 36 36 36 35 34 34 33 36 37 38 37 36 32 29 27 28 30 28 28 28 28 27 26 25
36 36 35 33 34 36 36 36 36 36 35 34 34 33 33 33 39 41 39 34 35 35 34 33 32 32 33 33 36 35 35 36 33 31 29 30 29 30 29 27 28 27 26
34 34 33 34 33 32 32 32 34 33 31 30 29 29 29 30 39 40 39 34 33 33 33 32 32 31 31 31 32 31 31 32 32 33 33 32 32 31 30 30 29 28 26
36 34 33 31 32 30 30 29 28 27 26 25 27 28 31 31 38 39 37 32 32 31 31 31 32 31 33 34 31 29 30 31 35 35 34 34 34 34 32 29 24 24 22
34 32 31 30 30 28 27 25 25 24 26 30 31 31 31 32 37 38 35 31 29 29 29 30 31 31 34 35 30 29 28 30 30 30 31 33 33 32 34 30 28 24 24
28 27 26 26 25 25 23 23 21 24 29 29 29 28 29 30 32 38 34 30 29 28 28 29 30 34 34 34 33 30 31 31 32 29 28 28 28 28 28 28 29 27 22
24 23 22 20 23 23 19 18 17 24 28 27 27 27 28 29 33 36 34 33 32 28 28 29 30 34 35 35 33 34 35 31 30 27 26 25 25 25 26 26 26 26 25
19 25 27 19 21 21 18 17 19 19 25 25 26 26 26 28 30 35 34 33 33 29 29 31 33 34 35 35 34 35 32 29 26 26 24 23 25 25 25 23 22 21 20
23 26 23 20 24 22 22 23 24 23 26 26 26 26 25 26 27 31 32 32 32 30 32 31 33 33 34 33 31 33 32 31 29 28 25 22 23 21 19 19 17 16 13
17 22 22 27 26 25 22 26 26 25 28 27 26 26 25 25 27 32 32 31 30 30 29 29 29 29 27 28 28 28 28 28 28 26 22 19 19 19 18 17 16 13 10
24 26 27 27 26 26 25 28 33 31 32 32 31 28 25 29 33 34 35 34 34 34 30 28 27 28 27 27 26 26 25 23 21 20 17 17 17 17 15 15 14 12 11
26 27 26 26 26 26 26 27 27 30 34 34 35 35 34 34 34 35 35 35 35 33 28 27 26 26 25 24 23 22 18 16 16 17 15 14 14 14 14 13 12 10 7
29 28 27 26 26 26 25 24 24 25 23 23 30 32 32 32 33 35 33 29 23 23 23 22 21 20 20 18 16 12 11 11 10 11 10 8 9 9 6 6 7 4 -1
28 27 27 27 27 26 25 23 22 22 20 19 21 22 21 28 27 27 26 20 17 14 14 10 5 3 2 3 4 1 1 2 3 2 2 3 4 3 1 5 4 -0 -8
26 27 27 26 26 24 23 21 20 18 17 16 15 13 12 13 12 9 8 8 7 3 -0 3 -5 -7 -7 -7 -6 -7 -6 -5 -3 -3 -4 -2 -0 -3 -7 -12 -10 -12 -14
22 22 22 22 21 22 22 20 19 16 15 15 14 17 18 10 6 3 2 2 1 -1 -6 -9 -11 -11 -12 -14 -12 -11 -10 -7 -10 -12 -15 -16 -18 -14 -16 -8 -14 -15 -14
19 19 19 18 18 17 16 16 15 14 12 11 10 15 15 7 4 2 -1 -5 -8 -10 -12 -11 -13 -14 -15 -15 -16 -15 -16 -16 -20 -20 -18 -18 -18 -17 -15 -11 -11 -11 -12
17 15 15 14 14 13 13 12 11 10 8 7 6 5 3 1 0 -1 -4 -11 -10 -9 -12 -13 -13 -14 -18 -19 -21 -16 -15 -16 -16 -19 -15 -17 -17 -15 -15 -12 -11 -11 -10
15 14 13 12 11 10 9 7 7 7 5 4 2 1 2 -2 -5 -6 -9 -11 -11 -14 -15 -16 -16 -17 -19 -22 -24 -25 -24 -21 -23 -20 -18 -16 -14 -12 -14 -12 -10 -8 -7
11 10 10 9 8 6 5 5 5 4 2 2 -1 -1 -4 -7 -8 -10 -11 -13 -14 -15 -15 -17 -19 -19 -19 -19 -20 -22 -21 -7 -18 -17 -19 -15 -13 -14 -14 -9 -8 -7 -7
7 7 6 6 5 5 4 4 2 2 0 -1 -3 -7 -7 -5 -7 -12 -14 -16 -14 -16 -18 -20 -20 -21 -20 -17 -15 -11 -10 -4 -9 -7 -17 -16 -15 -13 -10 -8 -8 -7 -7

GFSGL_sfc_temp_069.txt.gz
Temp
48 47 47 46 47 46 46 48 48 47 46 47 47 47 47 47 48 49 51 51 49 48 48 47 46 47 46 45 43 43 41 42 40 38 34 35 35 36 36 36 36 35 34
47 47 46 46 46 45 45 46 46 46 45 46 45 45 46 48 49 48 48 48 48 46 46 45 45 45 44 45 42 41 40 40 40 38 30 31 32 35 34 32 33 33 32
46 45 45 45 45 45 45 45 45 44 44 43 42 43 45 48 48 47 48 47 46 46 46 44 44 43 42 43 41 40 40 39 37 34 29 30 29 31 29 31 30 30 33
44 44 43 44 44 44 44 43 43 43 42 41 40 42 41 45 45 45 45 44 44 44 44 44 43 42 41 41 38 37 35 34 33 33 29 29 29 29 29 28 26 30 31
41 41 42 41 41 40 40 39 38 38 39 40 39 37 37 39 42 41 40 41 41 41 38 38 39 39 38 40 37 35 33 33 32 32 29 27 26 26 26 27 29 28 28
39 38 38 36 35 35 35 36 36 36 36 36 36 35 35 37 40 41 40 37 36 36 37 36 36 34 36 39 39 39 36 34 32 33 29 27 26 27 28 27 27 26 25
34 35 34 34 34 34 33 34 34 35 35 34 34 34 33 34 39 40 40 35 35 35 35 34 33 33 33 34 38 38 37 38 37 32 28 28 27 28 28 28 28 27 26
35 32 30 32 31 32 32 32 32 33 31 30 30 29 28 30 38 40 39 34 33 34 33 33 33 32 32 32 32 31 31 32 32 31 31 30 30 31 32 31 29 28 27
35 35 34 31 30 30 28 29 28 26 25 25 27 24 25 32 37 39 37 33 32 32 32 32 32 31 33 35 31 30 30 30 34 34 34 35 36 35 33 30 26 25 23
34 34 31 29 29 31 30 28 25 23 26 26 28 31 32 33 36 38 37 31 30 29 30 30 31 32 35 35 31 30 29 30 31 31 32 33 33 33 34 30 28 25 24
29 28 26 26 25 25 24 22 20 20 23 22 26 28 29 30 31 38 35 31 30 28 29 29 30 33 34 35 33 31 30 31 33 30 30 30 30 30 30 30 29 28 22
26 24 24 26 22 24 16 17 15 16 19 25 27 27 26 29 33 36 34 33 32 28 28 29 30 33 34 34 32 34 34 32 30 28 27 26 26 26 26 26 27 26 26
24 24 27 28 22 19 15 17 16 14 16 22 26 26 25 26 30 35 34 33 32 29 30 31 32 34 34 34 34 35 30 29 28 26 25 25 23 23 25 23 22 21 21
20 22 27 26 21 17 19 19 23 22 26 26 26 26 26 27 29 31 31 31 31 30 31 31 32 33 34 33 32 33 31 30 28 28 27 25 25 22 21 20 16 16 14
21 21 23 22 19 19 22 22 22 23 27 26 27 27 26 26 28 32 31 30 28 30 30 30 29 29 29 29 29 29 28 28 28 26 24 20 19 18 17 17 16 13 11
25 26 27 27 21 22 26 27 32 31 32 32 31 29 27 30 33 34 34 34 34 34 30 28 27 27 26 24 24 25 24 20 18 18 16 16 16 16 15 14 13 9 9
24 27 27 26 22 21 24 25 28 30 34 33 33 33 32 33 35 35 35 35 35 33 28 26 25 24 23 21 20 18 14 12 13 15 13 13 14 12 10 10 10 10 7
17 22 27 25 20 20 24 24 24 24 23 22 29 31 34 34 34 34 33 29 23 23 22 21 19 18 14 12 8 7 7 8 8 7 7 4 3 4 6 8 7 4 4
15 21 26 25 25 25 25 23 23 22 20 19 20 23 21 29 28 28 28 22 19 15 10 8 5 3 2 1 -0 1 1 1 -2 -3 -3 -2 -0 2 2 3 5 4 -1
15 20 25 27 27 25 23 21 20 19 18 17 16 15 15 17 12 9 10 10 7 4 4 4 -2 -4 -7 -6 -6 -7 -4 -6 -7 -7 -7 -4 -3 -1 0 -5 -6 -6 -9
16 21 26 27 26 24 22 21 19 18 16 15 15 17 19 12 7 6 5 3 2 -1 -1 -1 -3 -6 -14 -15 -13 -12 -12 -12 -15 -14 -16 -18 -19 -15 -18 -10 -14 -12 -9
17 20 22 23 22 22 21 19 18 16 15 14 12 17 16 9 6 3 -0 -3 -7 -8 -11 -8 -13 -14 -14 -12 -15 -15 -16 -17 -21 -21 -19 -21 -21 -21 -18 -13 -10 -9 -12
16 17 18 18 18 18 17 16 15 13 11 9 8 7 5 3 2 0 -3 -7 -6 -7 -12 -12 -10 -12 -14 -18 -19 -15 -16 -16 -19 -22 -19 -21 -21 -21 -20 -17 -15 -13 -12
15 15 15 14 15 14 13 12 11 10 8 6 4 3 3 0 -0 -1 -4 -6 -6 -12 -13 -10 -12 -16 -19 -21 -25 -28 -26 -24 -26 -23 -20 -20 -20 -19 -20 -19 -15 -13 -11
12 12 12 12 11 10 10 9 8 7 5 4 2 0 0 -1 -3 -6 -7 -8 -10 -9 -12 -16 -18 -19 -20 -21 -23 -25 -24 -9 -22 -22 -24 -21 -20 -21 -21 -19 -17 -15 -13
8 8 8 8 8 8 7 6 5 4 3 3 0 -3 -2 -2 -3 -7 -8 -8 -12 -15 -18 -20 -21 -22 -21 -20 -18 -15 -12 -6 -13 -11 -20 -20 -20 -21 -21 -19 -17 -15 -11

GFSGL_sfc_temp_072.txt.gz
Temp
45 45 45 45 45 45 44 45 45 45 45 45 45 45 46 46 45 47 50 52 51 51 50 48 48 49 48 48 46 46 44 43 41 45 36 35 35 35 36 37 37 37 39
44 44 44 44 44 44 44 45 45 45 44 45 44 44 45 45 45 45 47 49 49 48 48 49 47 47 45 47 46 43 43 43 41 40 35 31 32 34 34 33 35 36 35
43 43 44 44 43 43 43 43 43 43 42 42 41 41 42 43 44 46 48 48 48 48 48 46 46 44 43 44 44 42 42 41 40 39 38 31 30 32 31 31 31 32 32
42 41 41 42 41 42 42 41 41 40 39 40 40 40 40 41 42 45 46 46 46 46 46 46 44 43 43 42 41 41 40 38 36 36 30 29 29 30 31 29 27 29 29
39 39 39 39 38 38 37 37 37 36 38 37 37 37 36 37 40 42 42 43 42 42 40 40 40 40 39 41 39 38 36 36 33 34 32 28 27 27 27 28 27 27 27
36 36 36 35 34 34 34 34 34 35 35 35 35 35 35 37 40 41 41 38 37 38 38 37 37 35 37 39 41 41 38 35 34 33 32 30 27 28 28 28 27 25 24
34 32 32 32 32 33 33 32 33 33 33 33 33 33 32 33 39 40 40 37 36 36 36 35 34 34 34 34 37 39 39 39 39 34 31 30 28 29 29 27 27 27 27
34 32 30 31 30 29 29 29 31 31 31 31 30 30 29 31 38 39 39 35 35 34 34 34 34 33 33 32 33 33 33 33 33 32 32 31 31 30 30 30 29 27 27
35 34 33 31 30 29 29 29 27 27 26 27 27 26 24 28 37 39 38 34 33 33 32 32 32 32 34 36 32 31 31 30 34 34 34 35 35 34 33 30 27 27 24
33 32 31 29 27 27 28 28 25 23 27 27 27 23 24 30 36 37 37 32 31 30 30 30 31 32 33 35 31 30 29 29 31 31 32 33 34 34 34 31 29 26 24
28 28 27 26 25 25 25 23 23 23 24 22 23 22 23 28 31 37 38 31 30 29 29 29 30 34 34 35 33 31 30 32 33 30 30 30 30 30 30 29 30 28 24
25 24 24 23 26 26 19 20 18 17 18 20 20 24 23 24 31 36 35 33 32 28 28 28 30 33 34 35 32 34 35 32 30 29 28 27 27 27 27 27 27 26 26
21 22 23 23 27 21 16 19 18 13 16 19 20 19 25 27 30 34 34 33 32 29 30 30 32 34 35 33 34 34 30 30 28 27 26 25 24 25 25 22 21 20 20
27 26 24 25 28 25 21 20 18 19 19 22 21 21 26 26 28 30 31 30 30 30 31 31 33 33 34 32 32 31 30 29 28 28 27 25 24 23 20 20 17 17 13
22 27 28 28 27 25 23 23 23 22 24 19 20 20 21 23 28 32 30 29 29 30 30 30 30 29 29 28 28 28 27 27 26 24 23 21 20 19 18 18 16 12 9
20 25 27 28 28 28 24 24 30 34 34 34 34 27 26 30 34 34 33 33 33 34 27 26 27 27 26 26 25 22 19 20 19 19 17 17 16 15 14 12 12 8 9
13 18 21 24 27 27 22 21 26 28 33 33 33 32 32 33 34 34 34 35 35 32 25 23 23 22 21 20 19 17 15 15 14 15 14 14 13 11 6 6 9 10 6
7 12 15 18 22 26 24 22 19 18 19 21 27 32 33 34 34 34 33 29 23 22 19 18 16 15 14 13 13 12 11 10 10 9 8 6 5 3 3 5 6 2 1
8 12 14 19 23 25 25 24 22 22 21 20 21 23 23 30 29 29 28 21 18 13 11 9 8 7 5 5 6 5 5 5 3 -1 -3 -4 -5 -4 -4 -1 1 -0 -2
7 10 13 16 20 25 25 24 22 21 20 20 19 18 14 20 16 12 12 12 10 8 7 5 3 2 2 2 -0 -1 -2 -3 -5 -6 -10 -8 -9 -6 -7 -10 -10 -12 -14
8 11 14 17 21 25 24 23 22 20 19 17 16 17 20 14 11 9 7 5 4 2 0 -0 -4 -5 -8 -6 -5 -5 -6 -8 -11 -12 -15 -18 -20 -16 -18 -11 -17 -17 -17
9 11 14 17 22 24 23 22 20 19 18 16 16 19 18 10 8 5 1 -2 -7 -7 -9 -6 -7 -8 -7 -6 -8 -8 -9 -14 -20 -20 -20 -22 -23 -23 -20 -17 -16 -17 -19
12 13 14 17 20 22 20 19 18 17 15 13 11 10 9 6 4 2 -1 -4 -5 -6 -8 -6 -5 -9 -13 -15 -16 -13 -13 -16 -18 -22 -21 -23 -23 -23 -23 -20 -20 -20 -19
10 12 14 15 17 18 17 16 15 14 12 10 8 6 5 3 0 -1 -3 -5 -5 -11 -10 -8 -7 -9 -13 -18 -23 -26 -25 -24 -28 -24 -21 -21 -23 -22 -22 -22 -20 -19 -17
9 10 10 12 13 13 13 12 11 10 8 7 5 3 1 0 -2 -3 -4 -8 -11 -9 -7 -8 -9 -12 -14 -17 -19 -23 -25 -8 -25 -24 -27 -23 -22 -23 -25 -23 -22 -19 -18
7 7 9 10 10 10 10 9 8 7 5 4 3 3 2 1 -0 -2 -5 -6 -4 -5 -7 -8 -12 -15 -16 -14 -20 -18 -14 -7 -15 -14 -22 -21 -22 -24 -25 -23 -23 -20 -18

GFSGL_sfc_temp_075.txt.gz
Temp
46 46 47 47 47 48 48 48 48 48 48 48 48 48 49 49 49 49 51 52 53 53 52 50 50 51 50 49 48 48 47 46 43 47 44 39 36 36 37 37 38 38 39
45 45 45 45 45 45 45 46 45 46 46 46 45 45 46 46 47 47 48 49 49 48 50 50 49 49 47 49 48 46 45 46 44 42 45 34 34 35 35 34 35 37 36
43 43 44 43 44 43 43 43 43 43 43 43 43 43 44 44 45 46 47 47 48 49 49 48 48 48 45 46 45 45 44 44 43 42 42 32 32 33 31 32 32 33 33
42 42 42 41 41 42 42 41 41 41 41 42 41 41 41 42 42 43 45 46 47 47 47 48 47 45 45 44 42 43 42 41 40 39 39 32 31 31 32 30 29 31 31
40 40 40 39 39 39 38 37 37 37 39 39 39 39 39 39 41 40 40 41 41 42 43 43 44 42 40 43 41 41 39 38 38 36 36 30 29 28 28 30 29 29 30
38 37 38 36 35 35 35 35 35 36 36 36 36 36 36 39 40 40 40 38 38 37 38 39 38 36 37 39 41 41 40 37 35 35 36 33 31 29 29 29 28 26 25
35 34 33 33 32 33 33 32 33 34 34 33 34 34 34 35 38 39 39 37 36 37 37 36 36 35 35 35 37 39 39 40 41 35 34 32 30 30 30 29 29 29 28
32 32 31 31 31 30 30 31 31 32 31 31 32 32 32 33 37 38 38 36 36 36 36 35 34 35 35 33 33 33 33 33 34 33 33 32 32 32 32 31 31 29 29
33 32 31 30 28 29 27 28 29 29 29 28 30 29 29 30 35 37 38 34 34 34 34 34 33 33 35 36 33 32 32 31 33 34 34 34 35 34 33 31 29 29 26
32 31 30 29 26 27 28 27 28 25 27 28 28 28 26 26 32 36 37 34 32 33 32 32 32 33 35 35 33 32 29 30 32 32 32 33 34 34 34 32 31 29 27
28 27 27 26 25 25 25 25 25 24 24 24 26 27 26 27 28 34 37 33 32 31 30 30 31 33 34 35 34 32 31 32 33 31 31 31 31 31 31 31 31 31 28
24 24 24 22 23 26 26 23 22 20 21 22 23 26 27 27 29 33 37 35 33 30 29 30 31 33 34 34 32 34 35 32 31 30 30 29 29 28 28 27 27 26 27
21 24 27 27 22 28 27 24 23 20 21 24 24 25 27 28 28 33 34 34 33 29 30 31 32 34 34 34 35 34 31 31 30 29 28 27 28 27 25 23 22 22 21
19 22 25 26 29 30 29 26 23 24 23 23 24 24 24 25 27 31 32 29 31 31 32 32 33 33 34 32 31 31 31 31 30 29 28 26 26 25 22 23 20 19 17
18 20 23 27 27 29 31 31 26 26 26 26 27 26 25 24 27 31 30 29 30 31 31 31 31 30 30 29 28 28 28 29 28 27 26 24 23 22 21 21 20 18 17
16 19 21 22 25 26 27 28 31 32 34 35 35 33 29 30 32 34 33 33 33 33 29 29 28 28 27 27 24 22 22 22 22 23 23 23 21 21 19 17 17 17 15
10 14 16 17 19 20 23 24 24 28 34 34 34 34 33 31 34 34 34 34 34 31 26 25 24 23 22 22 21 20 18 18 19 20 20 19 18 16 16 15 15 14 12
6 9 10 13 15 17 20 23 25 23 24 25 27 32 33 33 34 34 34 30 24 23 22 20 18 18 18 17 17 15 15 15 14 15 14 13 14 13 13 12 12 9 9
8 9 11 12 13 16 19 22 24 24 22 22 23 26 23 34 34 32 30 24 20 16 15 13 13 12 12 12 12 11 11 10 10 9 8 8 8 10 7 8 7 4 4
5 6 8 10 12 14 17 20 23 24 23 23 23 23 21 22 20 16 16 16 14 12 11 9 8 8 8 8 8 7 7 6 6 5 4 4 4 7 5 3 3 4 2
5 6 8 9 11 13 16 19 24 23 23 22 23 21 22 19 15 13 11 10 10 9 7 6 4 2 1 2 3 4 4 3 2 1 1 -1 -2 -1 -3 1 -2 -3 -2
3 5 7 9 12 14 17 21 24 22 22 21 19 22 22 14 11 8 6 4 2 2 3 2 -0 -0 0 2 2 2 1 -1 -2 -4 -5 -7 -6 -6 -5 -4 -3 -5 -5
6 7 8 11 13 14 16 20 22 21 20 18 15 13 11 9 7 6 3 0 0 -1 -1 0 -1 -3 -4 -4 -2 0 0 -2 -3 -7 -6 -7 -7 -6 -6 -4 -6 -7 -5
5 7 8 9 12 14 16 19 19 19 17 14 12 10 8 6 5 2 1 -1 -1 -3 -2 -2 -1 -2 -5 -7 -9 -10 -10 -12 -13 -11 -9 -7 -8 -11 -8 -8 -7 -8 -6
5 6 8 9 11 13 15 15 14 13 12 10 8 6 4 4 3 1 -0 -0 -1 -2 -3 -3 -3 -3 -4 -8 -8 -11 -13 -6 -14 -16 -15 -10 -9 -12 -12 -9 -9 -8 -8
4 4 6 7 9 10 11 10 10 9 8 7 6 5 4 4 2 0 -1 -1 -1 -0 -2 -3 -4 -6 -7 -7 -9 -11 -11 -7 -11 -14 -13 -9 -10 -12 -13 -10 -13 -8 -8

GFSGL_sfc_temp_078.txt.gz
Temp
56 57 56 55 56 56 56 56 55 56 55 55 55 55 55 56 56 56 56 56 56 56 57 55 53 54 53 53 51 49 49 48 44 49 51 48 43 42 42 40 40 39 40
55 56 54 54 54 54 53 53 52 52 52 52 51 51 52 53 53 52 52 53 53 52 52 51 51 51 50 50 51 48 47 48 46 44 48 47 38 39 38 36 36 38 38
52 53 52 51 51 50 50 50 50 49 50 50 50 49 49 49 49 49 50 50 50 50 50 48 49 48 46 47 47 47 48 47 46 43 44 40 35 34 33 33 33 34 34
51 50 48 47 47 48 47 47 47 47 48 48 48 47 47 47 47 47 47 47 48 48 48 48 47 46 45 45 45 44 44 43 42 42 42 42 33 32 32 31 30 32 31
50 49 47 46 46 45 44 43 43 43 44 44 44 44 45 45 46 44 43 43 42 42 43 43 44 43 40 42 42 42 41 40 40 39 39 38 31 29 29 30 30 30 30
46 44 44 42 40 40 39 39 40 40 41 40 40 40 40 43 41 40 40 41 40 38 38 40 41 37 39 39 40 41 41 38 36 37 38 36 36 31 30 29 29 28 28
41 39 38 38 37 38 37 38 38 38 38 37 38 38 38 40 39 39 38 39 39 39 39 38 37 37 36 38 38 39 39 39 40 38 35 35 33 31 31 30 31 31 31
39 37 37 37 35 36 36 36 36 37 36 36 36 36 37 37 38 38 38 39 39 40 39 39 37 37 38 36 35 34 35 35 35 34 34 33 33 32 33 33 32 31 31
38 38 36 35 33 33 31 34 35 34 34 33 34 33 33 34 36 37 37 36 36 36 38 38 37 36 36 36 34 33 33 32 34 34 34 35 35 35 34 32 30 30 28
35 35 34 34 31 31 33 32 33 32 32 33 32 33 32 32 34 35 36 35 33 35 36 35 34 34 35 36 33 32 31 31 32 32 32 33 34 33 34 33 33 30 28
32 32 32 32 30 31 31 32 31 30 31 31 31 33 33 32 33 35 36 34 34 33 33 33 35 34 35 35 35 32 33 33 33 32 32 32 32 32 32 32 32 32 31
29 28 29 30 30 31 29 31 31 29 29 30 31 32 35 34 33 35 35 36 36 32 31 33 33 34 35 34 33 34 35 33 32 32 31 31 30 29 28 28 28 27 28
25 24 26 28 29 31 31 31 31 30 29 30 32 31 32 34 33 34 34 36 35 32 32 33 33 34 33 34 35 34 32 33 32 31 30 29 28 27 27 26 25 24 22
22 23 25 25 28 29 31 32 32 31 30 30 31 31 31 30 32 34 33 34 32 32 33 33 33 34 33 33 32 33 33 33 32 31 29 28 29 28 26 26 24 23 21
21 23 24 26 27 28 30 31 31 32 32 29 28 29 29 29 32 34 33 32 32 33 32 32 32 32 31 31 30 31 31 32 31 31 30 28 26 25 24 24 23 23 22
18 22 23 22 24 25 25 27 31 32 33 34 34 34 33 35 34 34 35 34 33 33 32 31 31 31 30 29 28 27 28 27 28 28 27 27 25 24 22 21 22 22 20
14 15 18 18 20 21 22 22 21 27 31 33 33 35 35 35 34 34 34 34 34 33 31 30 29 28 27 27 26 26 23 23 24 25 25 24 23 21 22 20 20 19 17
11 12 14 16 17 18 18 19 20 21 22 26 32 33 33 35 34 34 34 32 29 29 29 26 25 25 24 23 23 22 21 21 21 20 20 20 20 20 19 18 18 16 16
10 12 13 14 14 15 16 17 18 20 21 24 28 30 29 32 34 34 34 30 27 24 22 22 22 21 20 20 19 19 18 17 17 17 16 16 16 17 15 15 13 10 11
10 9 9 11 12 13 15 16 18 19 21 24 27 28 29 27 28 25 24 24 23 20 20 18 17 17 17 17 16 16 15 15 14 14 13 13 13 15 12 11 12 11 11
8 9 8 9 10 12 13 14 17 19 20 24 27 30 28 26 24 21 20 20 19 17 17 16 14 13 13 13 13 13 13 12 11 10 10 9 9 8 9 10 8 7 7
7 7 8 8 10 11 13 15 16 18 20 23 27 27 29 23 19 16 14 13 12 14 14 12 11 11 11 11 11 11 10 8 7 7 6 4 5 5 6 6 6 5 5
8 8 8 9 10 11 13 15 16 18 20 25 25 22 19 17 14 12 9 8 8 8 8 8 7 5 5 5 7 10 9 8 7 6 5 4 4 4 5 5 3 3 3
8 8 8 9 10 11 12 14 17 18 21 23 20 17 15 12 10 7 6 6 6 6 6 6 6 5 2 3 3 2 2 1 1 1 3 4 2 -0 3 1 2 1 2
6 6 7 7 8 10 12 14 16 18 18 17 15 12 10 8 6 5 5 5 4 4 4 4 4 3 2 1 1 -0 -2 -1 -2 -4 -1 2 1 -1 -0 1 1 1 1
5 5 5 7 7 8 9 11 13 13 13 12 10 9 8 7 6 5 5 4 4 4 3 3 3 2 1 1 0 -1 -4 -2 -5 -6 -1 1 -0 -1 -2 -1 -3 0 -0

GFSGL_sfc_temp_081.txt.gz
Temp
59 58 57 57 58 58 57 56 55 56 55 55 55 54 55 55 55 55 55 55 54 54 55 54 54 54 54 53 52 52 50 49 46 49 52 52 44 43 43 42 41 40 40
58 57 55 56 56 55 54 54 53 53 53 53 52 52 52 52 52 51 51 52 51 50 51 51 50 51 50 51 50 49 49 49 47 45 48 48 46 41 40 39 37 38 37
56 55 53 52 52 51 51 51 51 50 51 51 50 49 49 49 49 49 50 49 49 49 49 48 49 49 46 46 46 46 47 47 47 44 44 47 43 35 34 34 34 34 34
53 51 48 48 48 48 48 47 47 47 47 47 47 47 47 47 48 48 47 46 46 46 46 45 45 45 44 44 43 43 43 43 43 42 42 42 42 33 32 32 32 32 32
50 48 47 46 45 44 43 42 42 41 44 44 43 42 44 44 46 43 41 40 40 41 42 42 42 41 38 40 40 40 40 39 40 39 39 40 38 31 31 32 31 31 30
46 42 43 41 39 39 38 38 39 39 40 40 39 39 38 42 42 41 39 38 38 38 38 39 40 39 40 40 41 41 40 37 35 36 37 37 37 33 31 31 30 28 28
40 38 37 38 37 37 37 38 38 38 38 37 38 38 37 38 40 40 39 37 36 38 38 38 38 38 38 38 39 40 39 39 40 37 34 35 34 33 32 30 30 30 30
38 37 37 37 35 36 36 35 36 37 36 36 36 36 36 36 39 39 38 36 36 37 38 38 37 37 39 37 36 35 35 35 35 34 34 34 34 33 32 32 32 30 30
37 37 36 35 33 33 31 34 35 34 34 34 34 34 33 34 38 38 37 34 34 35 36 37 36 36 37 37 34 32 33 33 35 36 36 35 35 35 34 32 30 28 26
34 34 34 34 31 31 33 32 34 33 32 33 33 33 33 32 36 37 36 34 33 34 35 35 35 36 37 36 33 32 32 32 32 32 32 33 33 33 34 32 32 29 27
31 31 31 31 30 31 31 32 31 31 31 30 30 33 33 34 34 37 37 34 33 33 33 33 34 35 35 36 37 33 32 32 33 32 31 31 31 30 29 29 28 29 28
28 27 27 27 29 31 30 31 31 31 30 30 30 32 35 35 34 36 36 36 36 33 32 33 32 34 35 35 34 35 34 33 32 32 30 29 27 25 25 25 25 25 26
22 21 23 26 27 28 29 29 30 32 31 31 31 31 32 35 35 37 36 36 36 33 33 33 34 34 35 34 35 34 32 32 32 30 27 25 26 26 26 25 24 23 21
19 22 24 25 26 27 30 31 30 30 30 31 30 30 31 31 32 35 34 33 32 33 33 33 33 33 34 33 32 33 32 32 31 29 27 27 28 26 24 26 23 22 19
19 21 23 26 26 25 26 27 28 29 30 28 28 30 29 29 32 35 34 33 32 33 32 32 32 32 31 30 30 29 30 31 30 29 28 26 25 24 23 24 23 22 19
17 21 22 21 22 23 23 24 29 30 31 32 33 32 31 34 35 36 36 36 35 35 31 31 31 31 29 29 28 26 27 26 27 28 27 26 24 23 21 21 23 21 17
13 14 17 17 18 18 19 19 18 23 28 29 31 32 33 34 35 35 36 35 35 34 30 31 30 29 28 27 26 25 22 23 24 25 24 23 21 21 21 20 19 18 15
10 11 13 16 16 17 17 17 17 16 16 18 25 28 30 33 34 34 36 34 32 32 31 30 28 27 26 24 23 22 21 20 20 20 20 20 20 20 18 17 17 15 13
9 12 13 13 13 13 13 14 15 16 16 17 20 25 29 32 33 33 35 32 30 28 26 25 25 24 23 22 21 20 18 17 17 17 17 15 16 16 14 13 10 10 10
10 10 10 11 11 12 12 12 13 14 15 17 18 20 25 29 27 29 30 30 28 25 23 22 21 21 20 19 18 16 15 15 15 14 13 13 14 14 11 9 8 6 4
10 10 9 9 10 11 11 11 12 13 14 15 17 21 26 26 27 28 25 25 24 21 20 19 17 16 16 16 15 14 14 13 11 10 10 9 10 6 7 7 1 -1 -1
8 9 10 9 10 10 10 12 12 12 13 15 17 20 26 26 26 22 20 18 17 18 17 16 14 13 13 13 12 12 10 8 7 7 6 5 4 3 1 -1 -1 -3 -5
9 9 10 10 10 10 10 11 12 13 14 16 18 20 23 23 20 18 14 12 12 11 12 12 9 7 7 8 9 10 8 6 6 6 5 4 4 1 -1 -3 -6 -6 -6
9 8 8 8 9 8 9 10 11 12 14 17 19 21 18 16 15 11 10 9 8 8 9 8 8 6 5 5 4 3 3 3 3 4 4 4 0 -1 -3 -7 -6 -7 -7
7 7 7 7 7 7 7 8 9 11 13 14 15 15 13 11 9 8 7 7 6 6 6 6 6 5 5 4 3 2 3 2 -0 1 0 0 -2 -4 -8 -7 -7 -7 -8
5 5 5 6 6 6 6 6 7 9 9 10 11 11 10 9 8 7 6 6 6 6 5 5 5 5 4 4 2 2 1 1 -4 0 -1 -3 -6 -8 -10 -11 -11 -9 -10

GFSGL_sfc_temp_084.txt.gz
Temp
49 48 48 48 48 48 46 46 46 46 46 46 46 46 46 46 46 45 45 46 45 45 45 45 46 46 47 46 49 50 49 49 45 49 51 52 50 44 43 44 44 43 42
48 47 46 47 46 45 44 44 44 44 45 45 45 44 44 45 44 44 43 43 43 43 44 43 44 47 43 44 45 47 47 47 45 42 47 47 46 48 44 41 40 40 38
46 44 44 44 43 42 42 42 42 42 42 42 43 42 42 43 42 42 43 42 42 42 42 42 42 42 40 40 41 43 44 45 44 42 42 46 46 40 37 35 35 35 35
44 42 40 40 41 40 40 40 40 40 40 40 40 40 40 40 41 41 41 39 38 40 40 40 40 39 38 39 39 39 40 39 40 39 40 41 42 40 33 33 35 33 33
42 40 39 39 39 38 37 36 36 36 38 37 37 36 37 38 41 39 37 35 35 35 36 37 38 37 37 39 38 37 37 36 36 36 36 37 38 38 33 34 32 32 31
38 37 37 35 34 34 34 34 34 34 34 34 33 33 33 38 41 41 39 35 34 33 33 35 36 34 36 39 40 40 39 35 34 34 35 34 35 36 35 34 33 29 28
34 33 33 33 33 33 33 33 33 33 33 32 32 32 32 32 38 39 39 34 33 33 33 33 34 35 34 37 38 39 38 38 39 35 33 33 33 34 34 33 30 29 29
33 31 31 32 31 31 31 31 31 31 31 31 31 30 30 32 38 38 38 34 32 32 32 33 34 35 36 35 35 34 34 34 34 34 33 33 33 33 33 32 31 29 29
32 32 32 30 27 27 25 28 29 28 28 26 29 26 25 30 36 37 36 33 32 33 34 35 35 34 36 37 34 32 32 33 36 37 36 37 36 35 33 31 28 27 25
31 31 30 28 24 24 27 26 26 24 29 29 29 28 26 27 34 36 36 32 33 33 34 35 35 36 36 37 32 31 30 32 32 32 32 32 32 31 31 30 31 27 26
29 27 25 25 22 23 24 23 22 23 26 26 27 28 25 26 29 37 38 35 32 31 32 33 34 35 35 36 37 32 31 33 33 29 29 28 27 26 25 25 26 27 25
23 21 18 16 19 23 16 18 19 21 22 25 21 27 29 25 30 35 38 38 37 32 31 33 33 35 36 37 35 35 35 33 31 28 27 25 24 23 23 23 23 23 24
15 13 13 14 17 17 14 17 17 15 18 25 26 27 28 30 27 34 36 37 37 33 33 33 35 36 35 34 34 34 32 31 27 26 24 24 25 25 25 23 23 22 21
10 12 14 14 15 13 18 20 14 14 20 23 23 23 25 26 27 28 30 33 34 33 33 32 33 34 34 32 31 31 29 28 27 26 25 26 25 24 23 22 20 20 17
12 14 13 14 10 16 18 18 21 20 21 22 23 24 23 24 26 32 33 32 33 33 32 27 30 29 28 28 25 25 27 27 27 27 25 22 23 22 21 20 21 19 16
11 13 11 11 11 15 15 17 24 27 28 29 30 28 26 30 32 33 34 35 35 36 32 25 27 29 28 27 25 24 24 25 26 25 23 22 20 19 19 20 19 16 13
2 6 6 10 9 8 12 12 11 17 24 25 26 27 28 29 30 31 33 34 35 35 30 29 29 29 27 26 24 23 21 21 22 22 20 19 19 19 18 16 16 14 11
-3 4 1 3 3 3 4 9 10 9 9 13 20 22 25 28 29 31 33 33 29 32 31 28 28 27 26 24 22 21 19 17 15 15 16 16 16 16 14 13 13 10 8
-1 -1 -1 -0 0 3 6 8 9 10 10 11 13 18 19 24 26 28 31 28 28 29 23 25 26 24 23 22 21 19 17 13 11 11 12 13 11 12 10 9 10 9 7
-5 3 2 -2 -0 0 5 7 8 8 9 10 11 12 15 17 17 20 23 27 28 23 24 23 22 21 20 19 17 14 13 11 10 10 9 11 9 11 10 7 5 5 -0
-4 -3 2 -1 -3 -1 5 6 7 8 8 9 10 13 21 20 19 20 23 19 23 22 22 20 19 18 17 16 15 14 11 9 7 8 7 6 5 6 5 6 2 0 -1
-6 -5 -4 -4 -0 4 4 6 7 7 8 9 11 14 21 17 18 21 13 14 16 17 18 17 16 15 15 14 13 11 8 6 4 3 4 4 3 3 3 2 0 -6 -11
-2 -3 -3 -4 -2 1 2 2 5 7 8 9 11 13 16 17 14 10 9 10 12 12 12 12 11 9 10 9 10 10 8 5 4 3 4 2 2 2 1 0 -4 -10 -11
-4 -3 -4 -5 -5 -4 -2 1 4 5 6 8 9 11 12 9 7 2 3 7 9 8 9 9 8 7 7 5 5 5 4 2 3 4 4 4 2 2 -0 -7 -9 -11 -10
-7 -6 -7 -7 -8 -5 -4 -2 2 2 5 5 7 8 8 5 4 -1 2 5 7 7 6 7 7 6 4 4 4 3 7 4 1 2 2 1 0 -1 -5 -4 -7 -11 -13
-9 -9 -10 -9 -8 -9 -8 -3 -1 1 2 4 5 5 5 2 2 0 1 3 5 6 6 6 5 5 5 4 3 4 3 3 1 2 1 -0 -1 -4 -5 -7 -7 -12 -15

GFSGL_sfc_temp_087.txt.gz
Temp
47 47 46 44 44 44 43 42 43 43 43 43 43 43 42 42 42 41 41 42 41 40 41 41 42 42 43 44 44 43 43 44 41 45 47 49 48 47 48 45 45 45 45
46 45 43 44 42 42 41 41 41 41 41 41 41 41 41 41 40 40 40 40 39 39 40 40 40 43 40 41 41 40 40 41 40 39 42 43 43 44 45 42 43 42 41
43 43 41 40 40 40 39 40 39 39 39 39 39 39 39 39 39 39 40 38 37 37 38 38 38 38 37 37 37 37 39 41 40 37 37 41 42 43 42 42 37 39 37
41 40 38 38 38 38 38 37 37 37 37 37 37 37 37 37 37 38 38 36 36 37 36 36 36 36 35 35 35 37 38 36 36 35 36 37 38 40 36 36 37 37 35
40 38 37 36 36 36 35 35 34 34 36 36 35 34 35 36 39 37 35 34 33 33 33 33 34 35 36 37 36 36 36 34 34 33 33 34 35 35 35 37 35 36 33
38 36 36 34 33 33 33 33 33 33 33 32 32 31 31 36 39 39 37 33 32 31 31 32 32 31 35 37 38 38 37 34 33 32 32 32 33 33 34 34 33 32 31
33 32 32 33 33 32 32 33 32 32 31 31 30 30 30 30 37 38 38 33 32 31 31 31 32 35 36 36 38 38 37 37 37 33 31 31 31 33 32 31 31 32 29
32 31 31 32 31 31 31 30 30 30 29 29 29 29 28 30 36 37 37 32 30 30 32 33 34 34 35 34 34 34 34 34 34 34 32 33 33 33 32 32 31 29 29
32 32 31 30 27 26 24 25 28 26 25 24 27 24 22 26 34 36 36 30 31 31 32 34 34 33 36 37 33 31 31 32 35 36 36 35 33 34 34 31 27 27 25
31 31 30 28 23 22 25 23 25 23 26 26 27 24 23 23 31 35 36 30 27 31 31 34 35 35 36 37 32 31 31 31 31 31 27 28 28 27 29 26 30 26 25
28 26 25 24 22 23 22 21 20 17 21 16 22 23 20 23 24 35 37 32 29 30 33 33 34 36 36 37 38 33 32 33 30 25 24 25 25 24 24 24 25 27 24
23 22 20 18 22 22 13 15 12 11 12 17 18 22 21 22 28 33 35 36 35 31 32 33 33 36 37 37 35 36 35 33 25 23 24 23 23 22 22 22 23 23 24
21 19 20 16 16 14 10 11 15 11 10 15 18 20 22 23 22 31 32 33 34 32 32 34 36 36 36 34 33 35 32 28 21 22 24 24 25 25 25 23 22 22 21
20 20 18 16 14 11 16 17 10 9 10 14 15 18 20 22 22 22 26 30 31 32 33 33 33 34 35 33 28 28 25 24 24 25 25 25 25 24 21 22 18 19 17
17 18 16 15 12 12 15 12 16 16 16 10 10 14 19 19 22 29 29 28 29 30 31 31 31 22 26 24 23 23 24 24 24 26 24 20 22 21 20 20 20 16 13
16 15 13 12 10 12 10 10 20 24 26 27 27 25 22 27 28 29 31 32 33 33 29 28 29 26 26 26 23 24 23 24 25 25 20 21 18 18 20 18 17 14 12
8 9 9 11 7 6 5 4 6 11 21 22 24 24 25 26 27 28 29 30 31 32 28 29 29 25 27 27 25 25 23 22 23 23 22 17 19 18 17 16 15 13 10
4 8 3 2 -0 -1 0 -0 -0 2 5 8 15 19 22 24 25 26 28 28 22 26 27 28 27 27 28 26 24 22 21 20 20 19 16 17 17 17 14 13 12 10 9
2 0 -1 -1 -1 0 -1 -0 -0 1 5 6 8 13 13 20 22 25 27 18 18 22 25 26 29 28 26 25 23 22 20 18 16 14 9 11 14 14 9 10 12 10 6
-5 1 -0 -4 -3 -3 -1 -1 0 1 4 5 6 8 10 13 16 16 17 18 20 21 22 22 24 23 23 22 21 19 17 16 13 11 6 8 10 11 8 7 8 8 3
-6 -4 2 -4 -5 -4 -4 -2 -1 -1 3 4 6 9 19 16 13 14 16 16 15 14 15 18 15 18 20 19 18 17 16 15 12 8 7 7 7 4 6 7 4 4 3
-5 -5 -6 -6 -4 -3 -4 -4 -3 -2 2 4 6 8 17 12 13 12 11 10 10 10 11 13 15 15 16 17 16 16 14 11 10 8 6 3 4 4 3 3 3 1 -2
-2 -3 -5 -5 -8 -6 -7 -9 -7 -5 -1 1 4 6 7 8 8 7 6 5 5 6 7 8 10 11 11 11 12 13 10 9 9 8 5 3 3 2 3 1 1 -3 -3
-5 -5 -6 -8 -8 -7 -8 -8 -7 -3 -3 -2 -1 2 4 5 4 3 1 1 2 3 6 7 7 8 7 7 6 2 4 6 7 6 5 4 2 2 1 -2 -1 -3 -5
-8 -7 -7 -7 -10 -9 -10 -10 -8 -11 -9 -6 -2 -1 2 3 2 -0 -1 -1 1 3 4 6 6 6 6 5 4 3 7 6 6 7 6 5 3 1 -1 -1 -2 -6 -9
-8 -9 -10 -10 -11 -12 -13 -12 -11 -9 -9 -7 -5 -3 -1 1 1 -1 -0 1 3 6 6 6 5 5 5 3 2 4 5 6 4 5 3 2 1 -1 -2 -3 -4 -3 -6

GFSGL_sfc_temp_090.txt.gz
Temp
46 46 45 43 43 43 42 41 41 41 41 41 41 40 40 40 39 39 39 39 37 37 37 37 37 38 38 39 38 38 39 39 36 39 42 43 41 41 43 46 45 45 45
44 43 42 42 41 41 39 39 40 39 39 39 39 38 38 38 37 37 37 36 35 35 35 35 36 39 36 36 36 36 36 38 37 34 37 38 39 41 41 41 43 44 42
43 42 41 40 40 38 38 38 38 38 37 37 37 36 36 36 36 36 36 35 34 34 34 34 35 34 32 32 33 35 36 38 37 34 33 37 37 39 38 39 39 40 39
41 41 38 37 37 37 37 37 36 36 36 35 35 35 34 35 35 35 35 34 33 34 34 33 33 31 31 31 33 34 35 34 34 33 33 34 35 37 37 34 34 37 36
40 38 37 36 36 35 34 33 33 33 34 33 33 33 33 34 36 33 32 32 31 31 31 31 31 31 34 36 35 34 33 33 32 32 32 33 33 33 32 33 32 33 34
38 36 35 34 33 32 32 32 32 32 31 32 31 31 31 34 37 38 36 31 31 30 29 30 33 33 35 37 38 39 38 33 31 30 31 30 30 32 33 31 31 30 28
34 33 33 32 32 32 32 32 32 31 31 31 31 30 30 29 36 38 37 31 30 29 29 31 31 32 34 32 34 37 36 37 38 34 30 29 29 31 31 31 30 30 29
33 32 31 31 30 30 30 30 30 30 29 29 29 28 28 29 35 36 37 31 30 29 29 29 29 30 33 33 35 34 33 31 32 33 32 32 31 31 30 31 30 28 29
32 31 31 30 27 27 26 26 28 26 25 24 27 23 21 25 33 35 35 29 30 30 30 30 29 33 36 37 33 31 31 34 35 36 35 34 33 31 31 27 26 26 25
32 32 30 28 25 25 26 24 25 23 25 25 25 22 22 20 30 35 34 27 25 29 28 31 33 36 37 38 33 32 31 31 31 21 21 24 26 25 28 24 26 25 24
29 27 25 25 24 24 23 22 19 17 20 14 18 20 19 19 21 33 34 30 27 27 27 28 33 36 37 37 38 32 32 34 31 16 16 18 19 22 22 23 23 24 24
25 23 21 19 23 22 19 18 15 11 11 12 12 16 19 19 27 30 33 33 33 26 27 28 29 34 36 37 36 36 36 34 26 14 13 14 17 22 22 22 22 22 22
21 18 17 19 20 20 18 19 15 9 11 13 17 15 18 20 19 29 29 31 32 28 29 31 34 34 35 35 35 34 31 30 23 14 15 19 22 25 23 22 22 22 21
19 19 19 20 19 18 20 20 14 11 12 13 10 10 12 15 16 19 23 25 27 28 29 27 30 33 34 34 29 29 26 27 26 19 18 22 24 22 18 20 18 21 15
21 21 20 19 18 16 17 15 17 15 16 6 6 8 11 14 15 28 28 27 27 29 30 27 27 26 27 26 20 22 22 23 25 19 17 17 21 20 19 21 19 15 13
20 19 18 17 16 15 13 12 20 23 24 26 26 23 14 25 27 28 29 30 31 32 26 24 25 26 25 25 20 21 21 24 24 24 19 20 21 18 18 18 16 12 10
19 16 15 14 13 11 9 6 7 11 18 22 22 23 24 25 25 27 28 30 29 27 20 22 25 26 27 25 23 20 21 24 24 24 24 22 17 16 17 14 13 12 9
13 12 11 9 8 6 6 6 4 3 -1 1 13 18 21 22 24 25 27 22 14 16 16 21 21 22 25 26 23 22 22 22 22 22 22 20 15 15 16 12 13 7 6
8 7 7 7 6 6 5 4 2 -0 -2 -1 2 9 10 18 21 23 23 4 11 14 15 15 18 19 22 25 26 23 22 22 21 20 19 16 12 12 11 10 11 9 5
6 7 5 3 1 1 2 1 0 -0 -2 -2 -2 -1 3 7 8 6 3 4 9 10 11 11 13 15 18 21 22 21 19 19 18 17 16 15 12 10 10 9 9 6 3
3 3 3 0 -3 -3 -2 -2 0 -3 -3 -3 -0 4 18 7 5 8 7 6 6 6 7 8 9 11 15 18 16 16 15 17 17 16 14 12 10 6 5 11 8 5 2
3 2 0 -2 -1 -1 -4 -2 -3 -4 -3 -3 0 2 13 -0 -1 2 4 4 4 4 5 6 6 9 11 12 14 15 15 14 14 13 11 8 6 3 3 5 5 3 1
0 -1 -3 -5 -4 -2 -5 -5 -4 -5 -5 -6 -4 -2 -3 -6 -4 -2 0 1 0 1 2 2 4 6 6 8 9 10 13 13 11 7 10 8 4 4 4 4 1 -1 -0
-2 -2 -1 -2 -2 -1 -1 -3 -6 -5 -7 -9 -12 -9 -4 -3 -3 -2 -2 -2 -2 -3 -3 -0 4 5 6 6 6 6 7 7 5 7 8 7 6 5 3 -0 1 -2 1
-3 -2 -1 -1 -3 -2 -5 -8 -7 -10 -12 -11 -10 -9 -8 -6 -5 -5 -5 -4 -4 -3 -3 0 0 5 6 5 5 5 6 6 6 8 8 8 7 5 4 0 -1 -3 -3
-3 -3 -4 -5 -7 -10 -10 -7 -8 -9 -10 -10 -10 -10 -8 -7 -6 -5 -4 -3 -3 -2 -3 -2 -2 0 5 6 5 7 6 9 6 7 7 6 5 3 0 -2 -1 -2 -2

GFSGL_sfc_temp_093.txt.gz
Temp
48 46 45 47 46 47 46 43 41 40 40 40 39 39 39 38 38 37 37 36 35 35 34 34 34 34 33 34 34 34 34 34 32 35 38 39 38 38 40 42 42 41 41
45 45 45 45 43 42 40 39 39 39 38 38 38 37 37 36 36 36 35 34 33 33 33 32 32 35 31 32 31 33 35 37 34 31 34 36 36 38 39 38 39 41 39
44 43 41 41 41 39 38 38 38 37 37 37 36 35 35 35 35 35 34 33 33 32 32 31 31 30 29 28 33 34 35 36 35 32 31 34 35 36 35 35 35 35 37
41 41 39 38 39 38 37 37 36 36 35 34 34 34 34 34 33 33 33 32 32 32 32 31 30 29 30 32 33 33 34 33 33 33 32 33 33 35 34 32 31 34 33
39 39 37 36 36 35 35 34 34 34 33 33 32 32 32 33 35 32 32 31 30 30 31 30 31 31 34 35 34 33 34 32 32 31 30 31 31 31 30 32 30 31 32
38 36 36 35 34 33 32 32 32 32 31 31 31 31 30 33 37 38 35 31 30 30 29 29 30 29 32 36 36 37 36 32 30 30 30 29 30 30 31 28 28 28 27
34 34 33 33 33 33 32 32 31 31 31 30 30 30 29 29 37 37 37 31 30 29 29 30 30 31 30 34 36 37 36 37 37 33 30 30 29 29 28 26 26 27 25
34 33 32 33 32 31 30 30 30 30 29 29 28 27 27 29 35 36 36 31 30 30 29 29 29 29 30 34 33 33 32 33 33 33 32 32 31 31 29 27 27 25 27
34 33 33 32 29 28 27 27 28 26 24 24 26 22 20 23 33 35 34 28 29 29 30 29 28 28 34 37 33 32 30 33 36 37 34 34 33 31 30 19 20 18 18
34 33 30 29 27 25 26 25 24 23 25 25 24 21 20 17 30 34 33 26 20 26 26 29 31 32 35 36 32 32 30 29 30 28 24 23 24 23 27 20 23 13 18
30 29 26 26 25 25 23 22 21 20 21 18 20 21 21 20 22 32 33 27 25 21 22 25 27 33 34 36 37 33 31 34 31 27 23 15 16 18 19 20 19 19 16
28 25 23 22 25 23 21 18 18 18 19 20 20 21 21 20 25 29 31 31 31 16 20 26 25 33 34 35 35 36 36 33 29 26 22 13 14 16 18 19 20 21 22
25 22 20 21 21 20 19 19 18 19 21 20 21 18 19 21 20 27 28 30 30 26 26 29 32 33 33 32 33 35 33 32 28 25 22 17 20 21 21 19 19 20 20
23 21 20 19 18 20 22 21 20 19 19 19 19 18 17 17 16 19 21 20 24 25 27 25 29 31 32 31 26 29 27 24 24 22 22 20 23 22 16 16 14 17 13
22 20 20 21 21 19 20 20 20 20 21 18 17 16 11 10 16 27 27 24 24 27 28 16 18 27 27 25 23 21 23 22 24 20 20 20 21 22 17 17 17 12 8
21 21 21 20 19 19 18 15 20 23 24 26 26 22 16 24 27 28 29 30 31 30 15 10 17 20 20 22 24 24 18 22 23 25 23 22 22 21 17 16 16 7 8
23 21 20 19 18 16 15 15 15 15 19 21 22 22 23 24 25 26 28 29 25 22 4 6 12 15 17 21 23 25 24 21 25 25 25 24 23 21 17 14 14 11 9
22 20 19 17 16 13 12 11 10 11 11 11 14 18 20 21 23 25 25 17 4 8 -0 3 9 12 14 17 20 22 24 23 22 22 24 24 21 19 15 14 13 10 7
17 16 15 13 12 12 10 9 9 8 7 6 5 10 11 18 21 20 20 0 -2 -1 -1 1 7 9 11 13 16 19 20 22 20 22 21 21 20 18 14 12 14 11 8
14 13 12 10 9 8 9 8 7 6 5 4 4 4 3 4 -1 -1 -1 -4 -5 -4 -0 1 4 6 7 9 12 15 16 16 15 17 19 19 18 17 15 10 11 9 7
11 9 9 8 7 6 6 5 6 4 3 3 2 4 17 -1 -2 -5 -5 -6 -6 -3 -0 1 2 3 5 8 9 11 13 14 13 12 16 16 16 14 13 12 8 7 6
8 7 5 5 4 4 3 4 4 3 0 -0 1 -0 12 -1 -4 -6 -6 -6 -2 -3 -3 -1 1 1 4 5 7 6 9 13 13 11 11 14 13 12 10 9 8 4 4
5 4 3 1 2 2 1 1 -0 -1 -1 -5 -4 -2 -4 -5 -5 -4 -3 -4 -4 -3 -4 -8 -4 -1 -2 1 3 4 4 7 10 9 10 10 10 9 8 7 6 3 5
5 4 3 3 1 0 1 -1 -2 -3 -5 -6 -9 -8 -3 -3 -4 -4 -5 -6 -6 -7 -8 -8 -5 -4 -3 -3 -2 -0 3 8 8 8 7 5 5 8 7 6 6 5 4
3 3 4 3 1 -1 -4 -5 -4 -5 -5 -4 -3 -4 -4 -5 -6 -7 -9 -9 -9 -8 -6 -5 -5 -5 -4 -4 -2 -1 2 6 7 9 7 7 5 1 4 5 4 2 1
2 4 3 1 -3 -4 -5 -4 -4 -3 -3 -1 -2 -3 -4 -7 -8 -10 -8 -9 -7 -7 -6 -5 -4 -3 -3 -3 -3 3 8 10 8 8 7 7 7 6 5 4 3 2 1

GFSGL_sfc_temp_096.txt.gz
Temp
50 51 50 50 50 49 48 46 46 44 43 40 39 38 37 37 37 36 35 35 34 33 33 32 32 32 30 30 30 31 31 32 29 32 35 36 35 35 37 38 38 37 37
48 48 47 48 47 46 45 44 43 42 38 38 37 37 36 36 35 35 35 33 32 32 32 31 30 33 29 28 31 32 30 31 32 29 32 34 36 37 37 36 36 37 35
46 45 44 44 45 44 43 41 39 38 36 36 36 35 35 34 34 34 33 33 32 32 31 30 29 29 27 28 28 28 30 34 34 31 32 35 35 35 34 33 33 33 35
44 44 43 42 43 42 40 38 36 36 35 34 34 33 34 33 33 33 33 32 31 31 32 31 30 29 28 28 29 28 33 32 33 31 31 32 33 34 34 30 28 31 31
43 42 40 39 40 38 36 35 33 34 34 33 32 32 32 33 34 32 32 31 31 30 30 30 30 30 33 33 32 32 33 31 32 31 30 31 31 31 28 29 28 29 26
41 39 38 37 35 34 33 33 33 32 32 32 32 31 31 33 38 38 33 30 30 30 29 29 30 28 31 34 36 37 37 31 30 30 30 29 30 30 29 27 25 26 22
36 35 35 34 34 33 32 32 32 31 31 30 30 30 29 30 37 37 36 31 30 30 30 30 30 31 29 29 34 37 36 37 38 33 30 30 29 29 27 26 21 21 20
33 33 32 33 32 31 31 31 30 30 30 29 28 28 28 30 36 37 35 31 30 30 29 29 28 29 29 29 32 30 30 32 33 33 31 30 30 31 29 27 25 23 20
34 34 33 33 31 30 29 29 29 28 25 24 26 23 24 25 35 36 33 29 30 29 30 29 28 28 31 35 29 22 26 32 34 37 36 35 33 31 30 17 13 12 11
35 34 33 32 31 30 29 28 26 26 26 25 25 22 22 22 33 34 32 29 24 26 27 28 30 30 33 35 28 22 24 31 29 30 29 29 24 22 26 18 21 20 15
34 31 30 29 29 29 27 25 24 23 22 20 21 21 22 23 25 32 33 29 26 23 23 24 27 31 33 35 35 24 26 33 32 29 27 26 16 16 18 17 17 18 14
31 30 28 27 28 26 24 22 22 21 21 20 21 21 22 22 27 29 31 31 31 21 22 25 23 31 34 34 33 34 36 35 29 28 26 25 15 18 20 18 19 19 20
30 28 25 25 25 24 22 20 20 21 22 21 22 21 22 23 22 26 28 30 30 26 26 27 32 32 32 30 31 33 29 30 30 28 27 26 23 23 23 20 18 18 19
28 25 24 23 21 21 23 23 22 22 22 22 21 21 20 20 20 21 22 23 25 27 28 23 27 30 31 31 24 27 25 22 26 27 26 23 23 22 22 20 15 15 10
26 23 23 22 22 21 22 22 23 22 23 21 21 20 18 17 19 26 26 22 21 23 19 14 15 18 20 21 20 23 20 19 19 19 23 21 21 22 22 21 17 13 7
24 23 23 22 22 21 20 18 25 25 26 26 26 22 20 24 27 28 29 30 30 28 12 10 11 14 15 15 17 22 24 23 17 22 22 21 20 22 22 19 17 12 9
26 22 22 22 21 20 19 19 15 17 21 23 23 23 24 24 25 26 28 28 24 20 7 4 5 7 10 13 13 18 20 23 25 22 23 22 21 22 20 17 16 13 10
24 24 23 22 21 19 19 19 19 17 14 13 18 19 21 22 24 25 24 17 8 7 0 0 -1 1 7 8 11 12 16 19 21 21 21 21 22 21 16 15 15 11 10
22 22 21 20 19 18 16 15 14 14 13 12 10 13 14 18 21 20 18 4 1 -2 -2 -3 -5 -3 3 5 6 8 11 13 15 16 19 19 20 19 17 18 16 14 11
21 20 19 17 15 14 13 12 11 11 10 10 9 9 8 6 4 2 1 -3 -6 -6 -7 -7 -4 -3 1 2 3 7 7 9 11 13 15 18 19 17 17 17 15 11 8
17 15 16 14 13 12 11 11 11 10 9 8 8 9 13 5 4 2 -1 -4 -5 -6 -5 -5 -3 -2 -1 -1 2 2 2 5 8 12 14 15 15 13 16 16 14 10 8
12 12 12 11 10 9 9 9 9 8 8 7 6 5 16 5 1 -1 -4 -5 -5 -6 -4 -4 -3 -3 -2 -3 -1 1 -0 1 4 8 9 12 12 13 13 12 11 8 6
10 9 8 7 7 7 6 7 7 7 6 5 5 4 2 -1 -4 -6 -6 -6 -5 -5 -5 -8 -7 -6 -7 -7 -5 0 0 0 2 5 6 9 10 11 11 10 8 5 5
9 9 7 5 5 5 6 5 5 5 4 3 -0 -2 -1 -4 -5 -4 -3 -4 -6 -7 -8 -9 -10 -9 -7 -7 -10 -9 -4 -0 3 4 5 7 9 10 10 8 7 4 4
8 8 7 6 6 6 5 5 4 3 0 -0 -2 -3 -4 -3 -4 -4 -5 -8 -8 -9 -8 -9 -8 -8 -7 -6 -6 -6 -5 1 0 2 3 5 6 7 6 6 6 6 5
2 5 7 6 5 4 3 3 2 1 0 -0 -2 -3 -3 -3 -2 -5 -7 -10 -10 -9 -9 -8 -8 -7 -6 -5 -5 -1 2 7 8 8 5 3 5 7 7 6 5 4 4

GFSGL_sfc_temp_099.txt.gz
Temp
54 58 56 54 54 54 53 50 49 47 46 45 44 43 42 41 41 41 40 39 38 38 38 38 36 36 36 35 36 37 36 36 32 36 38 40 39 39 40 41 40 39 39
52 52 51 51 50 49 49 48 46 45 44 43 42 42 40 40 39 39 39 38 38 37 36 36 35 36 34 35 35 35 35 36 34 31 35 37 37 39 39 37 37 38 37
47 48 48 48 48 47 46 45 45 43 42 40 41 40 39 38 38 38 38 37 37 36 36 35 34 35 33 33 34 34 35 36 36 33 33 37 38 38 37 36 35 35 37
46 46 45 46 46 45 44 43 42 43 40 40 39 38 37 37 37 37 37 36 35 35 35 35 35 34 33 33 33 33 35 34 34 33 33 34 35 37 35 31 31 34 32
45 44 43 42 42 42 40 40 38 39 38 37 36 36 36 36 36 36 36 35 35 34 34 34 34 33 34 34 34 34 34 34 33 32 32 33 33 33 29 30 29 31 32
43 42 41 39 38 38 37 36 37 35 35 35 34 34 34 36 39 37 35 34 33 33 33 33 33 31 33 35 36 37 38 34 32 32 32 31 31 31 31 29 28 27 26
39 37 37 37 36 36 36 35 34 34 34 33 33 33 32 34 39 38 36 33 33 33 32 32 32 33 31 32 33 35 36 37 38 35 32 31 30 31 29 28 28 27 28
37 36 35 36 35 34 34 34 32 33 33 32 31 31 31 33 38 37 35 33 32 32 32 32 31 31 31 32 32 31 32 32 33 33 33 32 32 32 31 29 27 26 28
36 36 36 36 34 34 33 32 32 31 30 29 29 28 29 31 37 37 33 31 31 30 31 31 31 30 31 34 31 28 27 30 36 37 37 35 35 32 32 26 24 23 27
35 35 35 35 35 33 32 31 29 30 29 28 27 26 25 29 36 36 33 30 28 29 29 29 30 31 32 34 32 27 23 28 32 32 32 33 30 27 27 24 24 24 25
34 33 32 33 32 32 30 28 28 27 26 25 24 23 24 26 31 35 34 30 29 27 27 27 29 30 32 34 35 28 27 31 33 33 31 31 29 26 25 24 23 24 23
32 32 31 30 30 30 28 26 26 25 24 23 23 23 24 25 28 32 32 31 31 27 26 28 28 30 33 34 33 33 35 34 31 31 30 29 29 28 26 24 24 24 25
32 31 30 29 28 28 27 25 24 25 25 23 24 23 22 24 25 29 29 29 31 29 28 29 32 32 32 32 31 32 28 28 28 28 29 30 30 30 26 24 24 23 22
31 29 27 27 25 25 26 26 25 25 24 24 24 24 23 22 22 23 25 26 27 28 29 27 27 29 30 30 25 26 26 25 25 26 27 29 28 26 25 25 23 22 20
29 27 27 26 26 24 25 25 26 25 28 26 25 25 23 22 22 25 27 25 25 26 25 21 21 21 21 21 21 22 25 25 25 24 25 26 26 25 25 24 23 21 20
26 26 26 25 24 24 23 22 28 28 29 29 29 25 23 26 27 28 29 30 31 28 19 18 17 16 15 16 16 17 20 22 24 24 25 24 24 25 25 24 22 20 19
27 26 25 24 24 22 22 22 19 24 27 29 28 27 26 25 27 27 28 29 25 22 16 13 12 12 11 12 12 14 15 17 19 21 22 22 24 24 24 24 22 20 17
26 25 25 25 24 24 23 22 21 18 17 17 23 22 25 25 25 26 26 21 15 13 10 10 9 8 8 8 9 10 11 13 14 16 17 18 21 22 23 22 22 19 18
23 24 25 25 24 24 22 22 22 21 20 16 13 16 21 21 23 22 20 13 11 9 7 6 5 4 5 5 6 6 7 8 10 11 13 15 17 20 21 22 21 19 17
23 23 23 22 21 20 19 19 17 17 16 15 13 14 12 12 12 10 9 7 5 5 5 3 3 1 1 2 3 3 5 6 6 8 11 13 15 18 19 19 20 18 16
17 17 19 19 19 18 17 17 16 15 14 13 14 13 15 12 11 9 6 5 4 3 2 1 1 0 -0 0 0 1 2 3 4 4 8 10 11 13 16 18 19 18 16
15 15 14 13 13 14 13 14 13 13 13 12 11 11 20 11 9 7 5 4 3 1 0 -0 -1 -1 -1 -1 -1 -0 0 1 1 2 4 5 8 11 13 15 16 16 14
12 13 13 11 12 12 11 11 11 11 11 10 10 9 8 8 6 5 4 3 1 1 -1 -2 -2 -4 -3 -4 -3 -0 0 1 1 3 3 4 5 9 12 12 13 12 12
9 10 9 10 10 10 10 8 8 7 8 8 8 7 6 5 3 3 2 0 -1 -2 -5 -5 -6 -6 -5 -5 -4 -4 -4 -2 0 2 2 3 5 7 9 10 11 11 11
1 6 7 7 8 8 8 8 7 7 7 7 5 4 4 3 2 1 -0 -3 -4 -3 -1 -3 -5 -6 -5 -5 -5 -4 -4 -0 -1 0 2 4 5 5 6 7 8 10 9
-3 0 3 7 8 8 7 7 6 6 5 4 3 3 3 3 3 2 1 -1 -2 -1 -2 -3 -6 -7 -6 -4 -4 -2 -0 5 6 5 7 6 6 5 6 7 7 7 8

GFSGL_sfc_temp_102.txt.gz
Temp
67 68 66 64 63 64 62 62 61 53 52 49 48 47 47 48 50 50 48 47 47 45 46 46 44 44 44 44 43 44 43 43 39 44 45 45 43 43 44 43 42 42 40
64 64 61 60 58 56 56 55 53 51 50 48 47 46 46 48 49 49 46 47 46 44 44 43 43 42 43 43 43 41 42 42 39 37 41 41 41 42 42 40 40 41 39
60 62 56 54 54 54 52 51 50 48 49 46 45 44 46 48 47 47 46 45 45 44 43 43 42 42 40 41 41 41 41 41 41 37 37 41 41 41 39 39 38 38 39
56 58 57 54 54 51 51 49 46 46 46 43 46 44 45 47 45 45 44 43 43 43 41 42 41 41 40 39 38 38 38 38 38 37 37 38 39 40 38 33 33 37 36
54 52 53 50 49 49 46 46 43 43 44 43 43 42 46 45 44 43 42 42 41 40 39 39 40 38 36 38 38 37 37 37 36 35 36 37 37 35 33 32 31 32 36
52 51 50 45 42 41 40 39 38 39 39 40 40 40 42 42 40 40 40 39 39 38 37 37 37 33 35 36 36 37 38 36 32 33 35 34 33 33 33 30 30 29 28
47 42 40 40 39 39 37 37 38 38 39 39 39 40 39 39 39 39 38 38 38 38 37 35 34 35 34 36 35 36 36 36 37 36 32 33 32 32 31 30 30 29 28
42 40 38 38 37 36 36 37 35 36 37 36 38 38 37 37 39 38 36 37 37 36 36 35 35 34 35 34 34 33 33 34 34 34 33 33 33 33 32 31 29 28 30
39 39 39 38 35 34 34 34 34 35 34 35 35 34 34 35 38 37 36 34 33 33 34 34 34 33 34 34 33 31 32 32 35 37 38 38 36 36 34 31 28 26 28
38 38 38 37 35 35 35 34 34 34 33 33 32 33 33 33 38 37 35 34 31 31 31 31 30 32 32 34 32 32 30 31 32 32 32 34 36 32 32 30 30 25 26
37 36 36 36 35 36 34 33 33 31 31 31 30 30 31 33 35 37 35 32 32 31 31 29 30 31 32 33 35 32 32 33 32 33 33 34 33 31 30 30 29 29 28
35 35 34 34 34 34 33 31 31 31 30 29 28 28 29 30 33 36 35 33 33 30 29 30 30 31 32 34 34 34 34 34 33 32 31 31 33 32 32 31 29 29 30
34 33 33 33 33 33 32 30 30 31 30 28 28 27 26 27 30 34 33 33 32 29 30 29 30 33 32 32 32 32 30 30 30 29 30 32 33 33 32 30 28 27 27
33 32 32 31 31 31 32 32 31 30 30 28 28 27 26 26 26 29 28 30 30 29 29 30 29 30 30 30 28 29 28 29 28 28 29 31 32 31 29 30 28 27 24
33 31 31 32 31 30 31 31 31 33 33 29 30 30 26 25 26 28 28 27 27 28 28 26 25 25 25 25 25 24 25 26 27 27 26 26 28 29 29 31 28 27 24
31 30 31 30 30 30 28 27 31 31 33 34 34 32 28 32 31 31 31 30 30 31 25 24 23 23 22 22 21 21 22 23 24 25 25 25 25 26 27 29 28 26 25
31 30 29 29 28 27 27 27 25 28 31 32 32 30 29 29 30 31 31 30 30 27 23 22 21 20 19 18 18 17 18 20 19 20 22 23 23 23 24 26 27 26 25
30 29 29 29 29 28 28 28 26 24 23 24 29 28 29 29 30 29 29 28 21 20 20 19 18 17 15 15 15 15 15 15 16 17 18 18 19 20 21 23 26 25 25
28 28 28 28 28 28 27 26 25 24 24 22 19 24 26 28 27 27 29 21 21 19 16 15 14 13 12 12 12 12 12 12 13 12 14 15 17 18 18 21 23 23 23
27 26 27 27 26 26 25 25 24 24 24 22 19 19 19 21 21 20 18 16 15 16 14 13 12 10 10 10 10 10 10 11 12 12 12 13 15 16 16 18 19 20 22
24 24 24 26 25 25 25 25 25 25 24 22 21 19 19 17 18 18 16 13 13 13 12 11 10 9 9 9 8 8 8 10 10 9 10 11 11 11 14 16 17 19 20
21 21 21 21 21 21 22 22 21 21 20 19 17 16 22 18 17 16 14 13 12 11 11 10 9 9 8 8 8 8 8 8 9 9 9 8 9 10 12 14 15 17 18
19 19 19 19 20 17 19 19 19 18 18 17 17 15 15 18 15 14 13 12 10 9 8 7 7 6 7 5 7 7 7 8 8 8 6 7 8 9 11 12 13 14 15
17 17 17 17 17 17 17 16 15 13 14 14 14 14 13 13 12 11 10 10 8 8 7 5 5 5 5 4 6 6 5 4 6 6 5 5 6 8 10 10 11 12 13
14 14 15 15 15 15 15 14 14 13 13 13 13 12 12 11 10 9 8 8 6 6 5 5 4 4 4 3 3 4 4 4 3 4 5 6 6 7 7 8 9 10 11
10 11 12 12 13 13 13 13 13 13 12 12 11 11 10 9 8 8 7 6 5 5 5 5 4 3 3 3 3 3 3 4 4 4 6 8 8 9 9 9 9 9 10

GFSGL_sfc_temp_105.txt.gz
Temp
69 71 70 70 70 70 70 69 68 65 60 57 55 53 51 49 50 51 49 48 47 46 46 46 44 44 43 43 43 43 42 42 39 43 44 44 42 41 42 41 41 40 39
69 70 69 70 68 67 66 65 63 60 58 57 53 50 48 48 48 49 48 48 46 44 44 43 42 44 42 42 42 42 42 41 39 36 40 40 40 41 39 37 39 41 38
66 67 67 65 64 63 62 59 55 54 53 51 49 48 47 47 47 48 48 46 46 44 43 42 42 41 39 39 40 40 40 41 40 37 35 39 38 38 36 36 35 35 39
61 62 62 59 58 58 56 53 51 50 49 47 48 47 46 48 47 47 46 44 43 43 42 42 41 40 39 38 38 38 38 36 36 34 34 35 35 36 34 32 31 32 32
59 58 59 57 54 51 48 47 45 45 47 46 46 44 44 47 45 45 43 42 41 40 39 39 40 39 39 39 38 36 36 35 34 33 33 33 33 32 31 32 31 32 31
56 55 56 51 47 45 43 41 40 40 40 42 40 40 40 44 43 43 42 40 39 37 36 36 37 33 35 37 37 38 39 35 31 31 33 32 31 30 33 31 29 28 26
50 45 44 42 40 40 39 39 37 38 39 37 40 39 38 38 42 41 40 38 37 37 36 35 34 33 34 34 36 37 37 37 37 34 31 31 30 30 28 29 29 28 28
44 41 40 40 38 36 36 36 37 36 37 37 36 37 37 36 40 40 38 37 37 36 36 35 34 33 33 33 33 33 33 33 33 33 32 32 32 32 32 32 29 28 28
42 41 39 38 36 35 35 34 35 34 34 35 35 35 35 35 39 38 37 35 34 33 34 34 34 33 35 35 32 31 31 32 35 37 37 38 38 38 35 31 28 26 25
42 40 39 38 35 35 35 34 34 35 34 33 33 34 34 34 38 38 36 34 32 31 31 31 32 33 34 34 31 31 29 31 31 31 31 33 35 34 36 32 30 25 26
39 37 36 36 35 36 34 33 33 33 32 33 32 33 33 34 35 38 37 34 33 30 30 29 30 33 33 34 34 32 31 33 32 31 31 32 32 32 29 30 30 28 26
35 35 34 34 34 34 33 33 32 32 32 30 30 30 31 33 35 37 37 35 36 32 30 31 30 32 33 33 33 35 36 34 32 31 30 30 31 32 32 31 30 29 29
33 32 33 33 33 33 33 32 31 31 31 29 29 29 28 29 33 36 36 35 35 31 31 31 32 32 33 33 34 34 31 28 28 28 28 29 32 31 30 29 29 27 26
32 33 33 33 32 33 33 32 32 31 31 29 29 29 28 27 29 32 31 31 31 30 31 30 31 31 31 31 28 30 28 27 27 27 28 30 30 30 29 29 27 26 24
33 32 32 32 32 32 32 32 32 33 34 31 31 31 27 26 28 31 30 29 29 29 28 28 26 25 25 26 26 26 25 24 24 25 26 26 26 27 27 29 28 27 25
32 31 32 32 31 30 30 28 33 34 36 37 36 33 31 34 33 31 31 31 31 31 26 25 25 25 24 25 24 23 23 22 23 23 22 22 23 24 25 26 27 26 24
31 31 31 30 30 29 29 28 26 30 34 34 35 34 32 31 32 31 32 32 32 31 25 25 24 24 23 22 21 20 19 21 18 17 19 19 20 22 21 22 24 25 25
30 29 30 30 30 30 29 29 29 26 25 26 30 29 30 31 31 32 32 32 27 29 24 23 22 21 20 19 18 17 17 16 15 16 15 15 15 17 18 19 21 22 23
28 29 29 30 30 29 29 28 27 26 25 24 24 26 28 31 32 32 32 26 23 21 20 19 19 18 16 16 15 14 13 12 12 11 11 11 13 16 15 17 18 19 19
28 25 27 28 27 27 26 25 25 25 24 23 22 23 23 25 25 25 26 24 20 20 19 17 16 15 14 13 12 12 11 11 11 11 11 11 9 13 13 13 14 15 17
25 25 21 26 26 26 25 25 25 25 25 25 24 23 23 21 21 22 21 18 17 17 16 15 14 13 12 11 11 10 10 10 10 8 6 6 7 5 5 11 12 13 15
22 22 23 22 23 23 24 24 24 24 24 22 19 20 24 19 19 19 19 17 16 15 15 14 13 12 11 11 10 10 10 9 8 8 7 5 5 7 5 7 8 11 13
21 21 21 20 20 17 20 20 20 20 20 19 19 17 17 21 18 17 17 16 14 12 11 10 10 10 10 9 10 10 9 9 9 8 6 6 6 6 6 4 5 5 6
17 18 18 18 17 18 18 18 17 14 17 17 17 17 16 16 17 16 15 14 12 11 10 8 8 8 8 8 8 8 7 8 8 7 6 5 5 5 6 7 5 3 7
13 13 14 14 14 14 14 15 14 14 15 15 15 15 15 14 14 13 13 12 10 9 8 7 7 6 6 6 6 6 7 8 7 6 6 5 4 4 4 5 5 5 4
10 10 10 11 11 12 12 13 13 13 12 12 11 11 11 11 11 10 9 8 7 7 7 7 7 6 6 6 5 6 5 6 4 4 3 3 3 5 6 6 6 6 4

GFSGL_sfc_temp_108.txt.gz
Temp
64 67 66 67 67 67 67 67 67 64 62 60 56 53 52 50 51 48 47 47 46 44 42 40 39 39 37 37 37 38 37 37 35 37 38 38 37 36 36 36 36 34 34
60 61 62 63 63 64 65 66 63 62 59 57 53 51 50 50 49 48 46 47 45 42 41 39 38 41 37 37 36 37 37 37 35 34 35 35 36 35 34 32 35 38 33
56 57 58 59 60 62 62 60 57 54 54 53 52 49 48 48 48 48 47 45 44 43 41 39 38 37 34 34 35 36 36 39 36 33 33 34 33 32 31 31 31 30 35
54 54 54 55 57 58 59 56 53 51 50 49 50 49 49 48 47 46 45 43 42 42 39 39 38 37 35 35 35 34 35 33 33 32 31 31 30 31 28 27 25 26 26
51 51 51 53 54 54 52 50 48 47 48 48 47 46 46 46 46 45 44 42 41 39 38 37 37 36 37 37 36 33 33 31 31 31 31 27 26 27 28 28 29 30 26
49 48 49 48 46 46 44 42 42 41 41 41 40 41 42 46 44 43 42 40 39 38 36 34 34 34 38 39 40 39 37 33 31 30 31 28 29 28 27 26 28 27 25
45 42 41 40 39 39 40 39 39 39 38 37 38 37 38 39 42 42 40 38 37 36 36 34 33 33 32 33 37 38 37 39 37 33 30 28 26 28 26 22 28 27 27
40 39 38 37 36 35 35 37 36 36 36 35 36 36 37 36 41 40 38 36 36 35 35 34 33 32 32 32 32 32 32 32 33 33 30 29 31 32 30 31 29 27 28
38 37 36 35 32 35 34 34 34 34 33 34 34 34 34 35 40 39 37 34 34 34 33 33 33 32 35 36 31 30 30 31 35 36 37 37 36 37 35 29 26 24 24
37 37 36 34 33 34 34 33 32 32 32 33 33 34 34 34 38 38 36 35 32 32 30 31 32 32 36 37 30 30 28 29 30 28 29 32 35 32 38 31 27 25 25
35 33 31 30 32 34 33 31 32 32 31 32 32 33 34 35 36 39 38 34 33 30 30 29 31 36 36 36 34 30 30 32 32 29 28 29 28 31 27 30 29 29 26
28 28 27 27 30 33 33 32 32 31 31 30 31 30 31 33 35 38 38 36 35 30 29 29 30 35 35 35 34 34 35 34 29 28 28 28 27 29 30 29 30 30 31
26 24 24 26 33 33 33 32 30 31 31 29 29 29 28 30 34 37 37 37 36 31 31 31 33 34 34 34 34 34 32 28 26 25 26 27 27 30 30 29 29 29 28
24 24 24 25 25 29 31 31 31 31 30 29 29 29 28 29 31 33 32 31 32 30 32 31 31 31 32 30 29 31 28 26 26 25 25 25 26 26 26 27 26 26 24
24 23 24 24 24 24 28 30 29 30 32 30 30 30 27 27 29 32 32 30 30 29 27 27 26 25 25 25 26 26 25 24 23 23 21 22 24 24 24 24 26 26 24
23 23 23 22 22 23 22 21 34 34 36 37 36 32 30 32 33 33 33 33 33 32 25 24 24 25 24 24 24 23 23 22 20 22 20 19 19 20 20 21 24 23 24
22 21 21 22 20 19 19 19 20 26 35 36 36 34 33 31 32 33 33 33 33 32 25 25 25 25 24 23 23 21 20 20 17 16 15 15 16 15 17 15 16 19 22
19 20 19 18 18 18 18 18 19 19 19 23 31 31 32 32 33 33 33 32 28 30 27 25 24 24 22 21 20 19 18 17 14 13 13 11 9 10 8 10 12 15 18
17 16 15 16 16 17 17 17 16 17 18 19 23 27 28 32 33 33 33 29 27 27 23 22 22 21 19 18 18 16 16 14 12 10 7 7 7 7 8 10 13 15 15
14 18 16 14 14 14 14 14 14 15 15 14 16 17 20 25 27 28 29 26 23 22 21 19 18 17 16 15 14 14 12 11 11 9 9 10 8 6 9 6 5 8 10
11 11 14 12 13 11 11 12 21 14 15 14 14 17 24 20 20 20 20 19 19 18 18 17 16 14 12 12 12 11 11 11 11 11 10 9 9 8 8 8 7 7 9
8 7 8 9 10 11 9 9 9 11 12 10 8 11 27 13 16 16 18 18 17 17 16 15 14 13 12 12 11 11 10 10 10 10 10 9 8 7 7 7 8 9 9
8 9 9 8 7 8 8 5 7 6 6 6 6 7 7 12 10 12 14 14 13 13 13 12 12 11 12 11 11 11 10 10 10 10 9 8 7 7 7 7 7 7 7
5 5 4 3 2 4 4 5 5 7 8 10 10 11 10 11 11 10 10 9 8 7 8 9 10 10 9 9 8 9 9 9 9 9 8 7 6 6 6 6 6 7 7
-3 -1 -0 0 -1 -2 -2 -1 0 0 1 3 4 6 8 8 9 8 6 6 5 4 3 4 5 6 7 7 6 7 8 10 8 7 6 5 4 4 5 5 6 6 6
-2 -3 -4 -5 -5 -5 -4 -3 -4 -1 -0 0 0 -0 -0 -0 -2 -2 -2 -1 -0 1 2 2 3 5 4 5 5 7 7 8 7 7 5 4 3 3 4 4 4 5 6

GFSGL_sfc_temp_111.txt.gz
Temp
63 66 65 65 65 65 66 64 64 62 62 60 60 59 57 55 53 53 52 50 49 45 44 45 42 41 38 37 37 37 36 37 35 35 37 37 36 36 36 35 35 32 33
58 61 61 63 63 63 63 65 63 61 62 62 60 58 56 54 52 52 49 49 48 44 43 41 42 41 37 37 36 36 36 36 36 33 34 34 34 35 35 32 34 36 31
54 55 56 58 60 62 63 64 62 62 62 60 57 56 53 51 50 51 50 47 47 45 43 42 41 39 36 35 35 35 35 38 35 33 31 33 33 34 32 31 30 29 33
51 51 51 52 55 57 58 56 55 55 54 54 55 54 52 51 50 50 49 46 45 44 43 41 40 39 38 36 35 34 34 32 32 31 30 31 32 32 31 29 25 26 27
49 48 49 49 51 52 52 52 51 50 51 51 49 48 48 48 48 47 46 45 43 41 39 40 39 38 38 39 36 34 34 31 31 30 29 29 30 30 29 28 26 27 27
47 47 47 46 45 45 45 44 44 44 44 44 44 43 44 46 45 44 44 42 40 38 37 36 36 34 38 39 40 39 37 34 32 30 30 30 31 30 29 27 25 24 23
45 42 41 40 41 40 40 40 40 40 39 39 39 39 39 40 42 42 41 40 39 39 37 35 34 33 34 35 39 39 38 40 38 33 31 31 30 30 27 22 24 25 27
40 39 38 38 37 36 38 38 37 37 37 37 37 37 37 36 41 41 38 36 36 36 36 36 35 33 34 34 34 33 32 33 34 33 32 32 31 31 29 29 27 26 27
38 38 37 36 31 35 34 36 36 36 34 34 33 34 34 34 40 40 38 35 34 34 34 35 34 33 35 37 33 31 30 30 36 37 36 36 36 37 34 29 23 21 20
37 37 36 34 31 35 35 33 32 32 32 32 32 33 33 33 39 39 37 34 33 32 32 32 32 33 36 37 32 31 29 29 30 29 30 34 35 35 37 33 30 24 22
32 32 30 29 33 34 33 31 32 32 31 32 32 32 33 34 35 39 38 34 33 32 31 31 32 36 37 37 34 31 30 30 32 30 29 29 29 29 29 30 32 30 26
27 27 25 30 32 33 33 32 32 32 32 31 31 30 30 31 34 38 38 35 35 31 30 30 31 35 36 36 34 34 36 32 30 29 28 28 28 29 31 29 29 30 31
25 23 29 26 33 33 33 32 31 32 31 29 29 29 28 30 33 37 37 35 34 30 30 31 32 35 36 35 35 35 32 31 29 28 28 28 28 29 29 29 29 29 29
22 23 22 22 22 26 31 31 32 31 30 29 29 29 28 29 31 33 33 33 33 31 32 31 32 33 33 32 31 34 31 29 28 28 27 27 27 26 26 27 26 26 26
22 22 22 21 19 20 23 28 29 29 31 30 30 30 28 28 30 33 32 31 30 31 29 29 29 28 28 27 27 27 27 27 25 25 24 24 24 25 25 25 26 25 23
23 22 21 20 19 19 18 19 32 34 36 37 36 32 30 33 34 35 36 34 33 33 27 26 26 26 26 26 25 25 25 24 24 24 23 23 23 23 23 23 24 23 23
18 18 17 18 17 16 15 15 16 22 34 36 36 35 34 33 35 35 35 35 35 33 23 25 25 25 25 25 25 24 23 23 23 22 22 21 20 20 19 20 20 20 19
15 16 15 14 14 14 14 14 13 13 13 24 31 32 33 33 34 34 35 34 30 31 28 19 24 24 25 24 22 22 21 19 18 18 17 17 17 16 16 16 16 16 16
16 15 12 11 11 12 12 12 11 11 11 15 23 25 25 32 33 34 34 30 27 27 28 25 19 22 22 21 20 19 18 17 16 15 15 14 14 13 12 14 14 15 15
13 16 13 12 12 12 11 11 11 10 9 8 9 10 12 17 26 27 29 29 26 24 18 19 19 20 19 19 17 16 13 14 13 13 12 12 12 12 12 11 11 12 11
6 7 8 8 8 5 5 8 22 17 10 8 7 9 24 13 10 10 14 15 15 15 16 18 15 15 14 14 14 13 13 12 12 12 11 11 11 9 10 11 11 10 10
4 3 3 2 1 5 2 3 4 7 13 14 13 9 25 20 11 11 12 12 14 15 12 12 12 12 11 12 12 11 11 11 11 12 11 11 10 9 9 9 8 9 9
3 2 2 -0 -1 2 3 0 0 0 1 1 2 4 3 5 8 7 10 11 9 9 10 9 8 5 6 6 8 10 9 9 11 11 10 9 9 8 8 7 7 7 7
-2 -3 -3 -4 -3 -4 -5 -3 -3 -0 -0 1 3 4 6 6 6 7 6 5 3 2 1 1 2 3 3 2 4 5 5 6 6 5 7 6 6 7 7 6 7 6 7
-6 -5 -5 -5 -8 -7 -7 -7 -4 -6 -6 -4 -3 -3 -3 -3 -2 -4 -4 -2 -2 -3 -2 -2 -2 1 3 3 1 1 5 10 5 6 4 4 3 2 4 5 5 6 6
-7 -8 -10 -10 -10 -11 -10 -9 -9 -10 -9 -6 -5 -7 -7 -6 -6 -8 -7 -7 -4 -3 -2 -1 -1 1 1 3 4 6 7 9 7 8 5 3 1 1 3 3 4 4 4

GFSGL_sfc_temp_114.txt.gz
Temp
63 65 65 64 65 65 64 64 64 63 63 62 61 61 60 60 60 59 59 58 54 54 48 49 49 42 42 38 40 39 37 36 34 33 34 35 34 34 35 35 36 35 36
58 60 61 63 62 62 62 64 64 62 63 62 61 60 60 60 59 57 56 54 52 51 49 45 45 43 40 40 39 39 39 37 36 32 32 32 33 34 34 33 35 36 33
53 55 56 56 59 61 62 62 62 62 62 60 60 59 59 59 57 55 56 54 52 52 50 46 44 43 40 39 39 38 38 39 36 32 30 31 31 32 31 31 32 32 33
49 49 49 50 53 54 56 57 58 60 60 60 60 60 58 56 54 54 53 51 50 49 48 47 46 43 43 40 38 37 37 35 33 31 29 29 30 30 30 29 28 29 30
48 47 47 47 48 49 50 51 52 52 53 53 53 52 52 51 51 50 51 50 48 46 44 43 43 41 41 40 37 36 35 34 32 31 30 29 27 29 29 28 29 29 28
46 46 46 45 44 45 45 43 43 43 44 44 42 43 44 46 44 44 45 45 42 41 38 38 36 34 38 40 39 39 39 35 33 31 30 30 29 28 28 28 28 26 24
43 41 41 39 40 40 39 40 40 40 40 39 40 40 40 40 42 42 41 40 38 38 37 35 34 34 35 37 39 39 38 40 38 34 33 30 29 30 30 26 27 26 26
39 39 38 38 37 37 39 38 37 37 37 37 38 38 38 37 41 42 39 37 36 36 35 35 35 33 35 35 35 33 33 34 34 34 33 31 31 33 32 30 29 27 27
37 37 37 36 31 35 35 36 38 35 34 35 33 34 34 34 40 41 38 34 34 33 34 34 35 34 36 37 33 32 32 31 37 37 37 37 37 36 33 29 26 24 23
34 35 35 33 31 35 35 33 32 33 32 32 33 33 33 33 38 40 37 33 33 32 32 32 33 33 36 37 33 32 30 31 30 28 30 34 35 34 36 32 30 24 22
31 30 30 30 33 34 33 32 32 32 32 33 32 32 33 33 34 39 38 33 33 31 31 30 32 35 36 36 34 32 32 30 32 29 29 28 29 30 31 33 33 31 26
27 29 31 33 33 33 33 33 33 33 32 32 32 31 31 31 34 38 38 36 36 32 31 31 32 35 35 36 34 34 34 32 30 29 28 28 28 29 30 31 31 32 33
25 29 29 30 33 33 33 32 32 32 31 30 30 30 29 30 32 37 38 37 37 32 31 32 34 36 36 36 36 35 32 30 30 29 28 29 29 31 30 29 29 29 30
23 23 22 23 21 29 31 31 32 30 30 29 29 29 29 29 30 32 33 33 33 32 33 32 33 34 35 34 32 34 32 31 30 29 29 29 28 27 28 28 28 28 26
21 21 21 20 18 19 22 24 28 30 32 31 31 30 29 28 30 33 33 32 31 31 30 30 29 29 29 29 29 30 31 30 28 29 26 26 26 26 26 26 26 25 24
21 21 19 19 18 18 17 19 31 34 36 37 37 31 24 33 35 36 35 35 34 34 24 24 26 27 26 27 27 25 27 26 27 26 25 25 24 24 24 24 25 24 23
17 18 18 18 18 15 14 14 16 23 32 35 35 34 35 34 35 35 35 35 35 33 24 24 22 20 20 19 20 21 23 25 25 24 24 22 23 22 22 22 22 22 21
13 13 12 10 11 11 11 11 9 11 11 21 27 31 32 33 33 34 34 34 29 32 27 23 16 15 16 17 19 21 24 22 21 21 21 20 19 19 18 18 19 19 18
12 11 8 8 8 9 10 10 9 8 7 19 23 21 21 30 33 34 34 27 26 26 26 26 24 18 15 18 18 20 21 21 19 18 17 17 16 15 14 15 16 16 16
8 12 9 6 9 9 10 9 11 9 7 6 6 7 10 14 23 26 27 27 26 26 26 25 22 19 18 19 18 17 16 15 15 15 15 14 14 14 13 13 13 13 13
5 6 6 7 6 3 3 6 9 5 5 5 5 8 28 22 18 8 12 14 14 13 15 15 15 13 13 12 12 13 13 14 14 14 13 13 12 11 12 13 12 12 11
1 1 1 -1 0 4 1 1 0 2 7 8 9 8 21 17 17 6 6 8 10 10 9 11 11 12 11 10 10 9 9 9 10 12 11 10 11 11 11 10 10 10 9
0 0 -0 -3 -4 -1 -0 -2 -3 -4 -2 -2 -1 3 1 -1 1 1 1 2 3 3 6 7 7 7 7 8 8 8 8 8 8 7 7 7 6 6 7 7 6 6 7
-2 -2 -0 -1 -1 -3 -4 -5 -4 -3 -4 -5 -8 -5 -4 -5 -5 -4 -2 -0 1 -1 -0 1 2 5 3 4 4 4 5 5 5 6 7 5 4 4 3 1 2 3 3
-4 -4 -3 -6 -7 -10 -8 -10 -9 -12 -11 -8 -8 -7 -8 -7 -6 -7 -8 -10 -8 -6 -4 -4 -4 -0 3 4 4 4 5 10 5 6 2 2 4 4 3 4 3 3 2
-5 -6 -7 -9 -10 -12 -13 -12 -11 -11 -11 -8 -9 -10 -10 -8 -6 -8 -8 -9 -6 -3 -2 -2 -1 -1 -0 1 3 6 6 8 7 8 3 2 -0 -0 -1 0 1 3 1

GFSGL_sfc_temp_117.txt.gz
Temp
61 63 62 62 63 63 63 63 63 62 62 60 60 60 60 59 60 59 59 60 58 58 58 56 55 54 51 46 44 45 43 40 44 35 36 35 35 35 35 34 35 34 36
59 59 59 61 60 60 61 62 61 60 61 61 60 59 60 60 61 60 59 58 57 56 56 52 52 49 48 46 45 45 44 41 38 34 33 32 32 36 34 32 34 35 34
54 55 56 57 58 59 60 59 59 59 61 60 60 59 59 60 59 60 59 58 56 56 56 52 52 47 46 45 44 43 40 38 35 34 32 33 32 31 31 31 30 32 34
49 49 50 51 53 54 55 57 58 60 60 59 59 60 60 60 59 59 57 56 55 54 53 53 51 47 47 45 41 40 37 36 34 33 31 31 31 31 31 30 28 30 30
47 46 47 46 47 47 47 47 48 50 53 54 54 53 52 52 52 52 51 50 49 48 45 44 44 41 39 41 39 36 37 34 34 32 31 30 30 29 30 30 30 29 29
46 46 45 44 41 44 44 43 43 43 44 44 43 43 45 46 44 44 45 45 43 42 41 39 38 36 39 39 40 39 39 35 33 33 31 32 31 31 30 29 28 26 25
43 40 39 38 40 40 40 40 39 39 40 39 40 40 40 40 41 43 41 41 40 39 37 36 34 34 35 36 38 38 38 39 40 36 33 32 32 32 31 28 28 27 26
38 38 37 37 36 37 38 38 38 38 37 37 37 37 38 37 41 41 39 38 37 37 36 36 34 34 34 35 35 34 34 35 36 34 35 33 34 34 34 31 30 27 26
35 36 36 35 33 35 36 37 36 35 34 34 33 33 34 34 39 40 39 34 35 34 34 34 34 33 36 37 34 33 32 32 37 37 37 38 38 36 34 29 25 25 21
33 33 33 33 34 34 34 34 32 33 32 32 33 33 33 33 37 39 36 33 33 32 32 32 33 34 37 38 34 33 32 32 32 32 32 33 35 35 36 31 28 25 24
31 32 32 32 34 34 33 32 33 33 33 33 33 33 33 33 34 39 37 33 32 32 31 31 32 37 38 38 37 33 34 32 33 31 30 28 27 28 31 33 30 29 22
29 30 32 33 33 33 33 33 33 33 33 30 31 32 32 32 35 38 38 37 36 32 32 31 32 37 38 38 35 35 35 32 30 30 26 27 28 28 30 31 32 32 33
30 29 30 32 33 33 33 33 32 32 32 30 30 31 30 31 31 37 37 37 37 32 31 31 34 36 36 36 37 35 32 30 30 29 28 29 28 30 29 27 28 28 30
24 23 23 23 27 30 31 31 32 31 31 30 30 30 29 29 30 31 32 33 32 32 32 32 34 34 35 34 31 34 32 31 28 25 21 23 28 28 28 27 27 27 27
22 21 21 20 19 20 21 26 28 29 31 29 29 29 27 28 29 34 33 31 28 30 27 26 29 29 29 29 29 30 30 30 29 30 28 22 26 27 26 26 27 26 25
20 21 19 19 17 17 17 18 32 34 36 36 36 29 19 32 35 36 36 35 34 33 27 27 27 27 27 28 28 28 29 29 29 28 26 26 25 25 24 24 25 24 24
17 16 15 16 15 13 12 16 16 20 32 32 33 33 33 33 34 35 35 35 35 32 20 19 17 18 17 17 19 25 23 20 21 25 26 25 24 23 22 23 23 23 22
10 12 10 10 10 11 12 9 9 10 12 20 27 29 31 33 34 34 34 34 30 31 27 25 24 24 21 12 11 12 12 13 19 19 23 22 21 21 19 19 20 20 20
11 9 6 7 8 10 11 12 10 9 10 18 18 20 16 28 33 33 34 29 27 26 26 26 25 24 23 22 21 20 20 17 16 15 14 16 16 17 15 17 18 18 18
4 10 7 5 8 9 9 10 10 8 6 7 7 7 9 13 15 14 22 23 24 25 25 24 15 14 15 13 13 13 12 10 11 13 12 12 13 14 14 14 14 14 14
2 3 5 7 5 3 2 4 4 5 4 2 4 9 26 19 19 15 6 8 9 8 8 8 7 6 7 7 6 7 7 8 10 12 11 10 11 10 11 13 10 11 10
2 1 1 -1 1 3 -0 0 -0 -0 -1 0 1 3 18 2 2 2 -2 -1 2 5 5 5 4 4 4 5 5 4 5 6 8 8 7 8 10 9 8 8 7 7 5
3 3 1 0 1 1 0 -4 -4 -5 -6 -7 -6 -2 -3 -6 -5 -5 -5 -6 -6 -3 -2 -1 -1 -1 -1 0 2 5 4 3 6 5 6 6 5 6 5 5 4 3 3
2 1 1 -1 -1 -1 -6 -8 -9 -7 -9 -9 -11 -10 -7 -9 -10 -9 -9 -9 -8 -9 -10 -8 -7 -5 -6 -6 -6 -4 -3 -1 0 5 6 5 3 3 2 3 2 2 1
-2 -2 -2 -3 -6 -8 -8 -6 -4 -8 -9 -10 -8 -10 -9 -8 -7 -8 -8 -9 -10 -11 -5 -7 -8 -5 -4 -5 -6 -6 -4 5 3 1 -1 1 1 1 0 1 0 1 3
-3 -3 -6 -8 -7 -9 -11 -8 -6 -6 -7 -7 -7 -7 -8 -8 -7 -7 -6 -7 -6 -5 -4 -4 -4 -3 -4 -4 -4 -2 1 6 4 7 4 2 1 1 0 1 1 0 -1

GFSGL_sfc_temp_120.txt.gz
Temp
59 60 60 61 62 62 62 62 62 60 59 58 59 58 59 58 59 59 59 59 58 58 58 57 57 58 57 56 51 50 49 49 47 34 34 34 34 35 35 36 36 36 36
56 56 57 59 58 59 59 60 59 59 58 59 59 58 58 59 59 58 58 58 58 57 57 57 56 56 55 54 50 48 47 43 42 34 33 32 33 35 35 34 34 36 34
54 55 54 55 55 56 57 58 57 57 57 57 58 58 59 59 59 59 59 59 58 58 58 57 56 54 51 51 46 45 43 39 38 35 33 33 32 33 32 32 31 32 34
48 50 51 51 53 54 56 56 56 57 58 58 58 59 59 59 59 59 58 58 58 56 55 52 52 49 48 47 43 41 38 36 36 34 32 32 32 31 33 31 29 30 31
47 46 46 45 46 46 46 47 47 48 51 52 53 53 52 52 50 51 51 50 49 48 46 45 43 40 40 43 40 38 37 35 34 34 32 31 30 30 30 31 31 30 30
44 44 43 41 42 44 44 43 43 43 43 43 42 42 43 44 42 42 43 45 43 42 41 39 39 36 39 41 41 40 40 35 34 34 34 33 32 32 33 31 31 28 27
40 38 37 38 39 39 39 39 38 39 39 38 39 39 39 39 41 42 40 41 40 40 38 37 35 35 35 36 39 40 39 41 41 37 34 34 32 33 33 30 29 28 25
36 36 36 36 37 37 38 38 38 37 36 36 35 34 35 36 40 41 38 38 37 37 37 36 35 35 35 34 34 34 33 34 35 34 35 34 34 34 34 33 30 24 24
34 34 34 35 34 36 35 36 36 35 34 34 33 33 31 33 39 40 36 34 34 33 34 35 35 34 36 37 33 33 32 32 37 38 38 38 39 38 34 31 27 25 21
34 34 34 34 35 35 35 34 32 33 32 32 33 33 33 33 39 39 36 33 33 32 32 32 33 34 36 38 33 33 32 32 33 32 32 34 35 35 36 32 28 18 14
32 32 32 33 34 34 33 32 33 33 33 33 33 33 33 33 34 39 38 32 30 29 27 27 29 37 37 38 36 33 32 32 34 32 30 30 31 27 30 28 26 24 19
30 32 33 33 33 33 33 33 33 33 33 32 33 32 32 32 36 38 38 37 36 27 27 30 31 37 38 39 34 37 37 33 32 30 29 29 29 30 30 31 31 30 30
31 32 32 32 33 33 33 33 32 33 32 30 31 30 30 31 33 38 38 37 36 31 31 33 35 36 37 37 36 36 32 30 29 29 29 28 25 26 27 26 29 29 30
25 26 27 30 29 30 31 31 32 31 31 30 30 30 29 30 31 31 32 32 32 32 32 32 34 34 35 33 30 33 31 30 29 28 28 26 22 21 22 26 28 28 26
24 23 23 23 23 23 24 28 28 28 31 30 27 26 25 24 26 33 33 31 23 28 27 27 28 30 29 29 30 30 29 29 28 28 28 28 27 25 24 27 27 23 25
23 22 21 21 20 20 21 22 35 35 35 35 34 27 21 33 36 36 36 35 34 33 19 16 26 26 26 27 27 27 27 27 27 27 27 26 26 26 19 20 22 24 22
20 19 19 19 18 17 14 16 18 21 31 32 32 33 33 33 34 35 36 36 35 32 25 25 24 24 23 23 23 24 26 24 22 26 26 27 25 22 20 18 20 22 21
15 15 16 14 15 14 14 11 11 13 18 20 26 28 30 34 34 34 35 34 31 30 26 25 25 25 24 23 21 14 13 16 21 23 23 23 22 18 14 15 17 19 19
14 12 11 11 12 12 13 12 11 15 16 17 12 19 15 28 30 30 31 27 26 26 25 25 25 24 24 23 22 18 17 15 12 10 10 11 11 12 13 15 15 17 17
9 11 9 9 10 11 11 11 9 6 7 5 5 17 21 20 14 7 13 17 19 19 19 19 16 5 8 7 6 6 5 4 4 4 4 5 11 12 13 11 11 12 11
5 6 8 8 6 4 4 6 5 2 1 -1 2 9 22 4 5 6 0 0 1 1 4 3 2 0 -1 -1 -1 -0 -1 0 -1 0 1 4 6 7 8 10 8 7 9
6 5 4 3 2 3 3 4 4 3 -2 -2 -1 2 15 -1 -3 -3 -3 -5 -5 -3 -2 -2 -3 -3 -3 -2 -3 -3 -3 -3 -3 -2 -1 -0 1 2 2 4 5 4 5
7 7 5 4 4 5 4 3 2 1 1 -6 -4 -1 -5 -7 -6 -5 -4 -6 -8 -6 -8 -8 -7 -6 -7 -7 -6 -4 -3 -4 -4 -4 -3 -2 -0 3 3 0 -2 -1 1
5 5 5 4 4 3 2 1 -0 -1 -1 -2 -5 -7 -4 -7 -7 -6 -6 -8 -9 -9 -11 -12 -11 -9 -10 -11 -12 -12 -10 -7 -6 -4 2 3 3 1 2 1 2 3 2
3 3 3 2 1 1 0 0 1 -3 -4 -7 -6 -4 -6 -11 -9 -9 -10 -10 -11 -11 -7 -7 -10 -10 -9 -7 -7 -8 -8 2 -0 -2 -4 -1 -0 -2 -3 0 0 -0 2
3 3 2 1 1 0 -2 -2 -2 -4 -4 -5 -7 -7 -8 -7 -7 -7 -7 -8 -8 -7 -8 -7 -7 -7 -6 -5 -4 -1 -0 4 1 2 2 1 0 -4 -1 -1 -1 -0 -1